<?xml version="1.0" encoding="UTF-8" standalone="no" ?>
<gpx xmlns="http://www.topografix.com/GPX/1/1" xmlns:xsi="http://www.w3.org/2001/XMLSchema-instance" xsi:schemaLocation="http://www.topografix.com/GPX/1/1 http://www.topografix.com/GPX/1/1/gpx.xsd" version="1.1" creator="VisuGPX - https://www.visugpx.com">
  <metadata>
    <name>Ben - 25km - 23 fev 14</name>
    <desc><![CDATA[25km au chateau de versailles, beau temps.]]></desc>
  </metadata>
  <trk>
    <name><![CDATA[track_1393139836237]]></name>
    <trkseg>
      <trkpt lat="48.80047" lon="2.11974">
        <ele>132</ele>
        <time>2014-02-23T08:17:16+01:00</time>
      </trkpt>
      <trkpt lat="48.80037" lon="2.11983">
        <ele>138</ele>
        <time>2014-02-23T08:17:20+01:00</time>
      </trkpt>
      <trkpt lat="48.80035" lon="2.11965">
        <ele>121</ele>
        <time>2014-02-23T08:17:24+01:00</time>
      </trkpt>
      <trkpt lat="48.80027" lon="2.11964">
        <ele>123</ele>
        <time>2014-02-23T08:17:28+01:00</time>
      </trkpt>
      <trkpt lat="48.80019" lon="2.11958">
        <ele>126</ele>
        <time>2014-02-23T08:17:32+01:00</time>
      </trkpt>
      <trkpt lat="48.80013" lon="2.11956">
        <ele>127</ele>
        <time>2014-02-23T08:17:36+01:00</time>
      </trkpt>
      <trkpt lat="48.80005" lon="2.11952">
        <ele>127</ele>
        <time>2014-02-23T08:17:40+01:00</time>
      </trkpt>
      <trkpt lat="48.79996" lon="2.11946">
        <ele>127</ele>
        <time>2014-02-23T08:17:44+01:00</time>
      </trkpt>
      <trkpt lat="48.79987" lon="2.11941">
        <ele>128</ele>
        <time>2014-02-23T08:17:48+01:00</time>
      </trkpt>
      <trkpt lat="48.79978" lon="2.11938">
        <ele>129</ele>
        <time>2014-02-23T08:17:52+01:00</time>
      </trkpt>
      <trkpt lat="48.79972" lon="2.11949">
        <ele>129</ele>
        <time>2014-02-23T08:18:04+01:00</time>
      </trkpt>
      <trkpt lat="48.79972" lon="2.11949">
        <ele>129</ele>
        <time>2014-02-23T08:18:08+01:00</time>
      </trkpt>
      <trkpt lat="48.79972" lon="2.11949">
        <ele>130</ele>
        <time>2014-02-23T08:18:12+01:00</time>
      </trkpt>
      <trkpt lat="48.79961" lon="2.11935">
        <ele>133</ele>
        <time>2014-02-23T08:18:24+01:00</time>
      </trkpt>
      <trkpt lat="48.79954" lon="2.11922">
        <ele>132</ele>
        <time>2014-02-23T08:18:28+01:00</time>
      </trkpt>
      <trkpt lat="48.79949" lon="2.11909">
        <ele>132</ele>
        <time>2014-02-23T08:18:32+01:00</time>
      </trkpt>
      <trkpt lat="48.79942" lon="2.11898">
        <ele>130</ele>
        <time>2014-02-23T08:18:36+01:00</time>
      </trkpt>
      <trkpt lat="48.79933" lon="2.11893">
        <ele>130</ele>
        <time>2014-02-23T08:18:40+01:00</time>
      </trkpt>
      <trkpt lat="48.79924" lon="2.11889">
        <ele>127</ele>
        <time>2014-02-23T08:18:44+01:00</time>
      </trkpt>
      <trkpt lat="48.79915" lon="2.11884">
        <ele>127</ele>
        <time>2014-02-23T08:18:48+01:00</time>
      </trkpt>
      <trkpt lat="48.79905" lon="2.1188">
        <ele>128</ele>
        <time>2014-02-23T08:18:52+01:00</time>
      </trkpt>
      <trkpt lat="48.79896" lon="2.11874">
        <ele>130</ele>
        <time>2014-02-23T08:18:56+01:00</time>
      </trkpt>
      <trkpt lat="48.79888" lon="2.11866">
        <ele>131</ele>
        <time>2014-02-23T08:19:00+01:00</time>
      </trkpt>
      <trkpt lat="48.7988" lon="2.11859">
        <ele>132</ele>
        <time>2014-02-23T08:19:04+01:00</time>
      </trkpt>
      <trkpt lat="48.79872" lon="2.11854">
        <ele>132</ele>
        <time>2014-02-23T08:19:08+01:00</time>
      </trkpt>
      <trkpt lat="48.79864" lon="2.11849">
        <ele>131</ele>
        <time>2014-02-23T08:19:12+01:00</time>
      </trkpt>
      <trkpt lat="48.79856" lon="2.11842">
        <ele>132</ele>
        <time>2014-02-23T08:19:16+01:00</time>
      </trkpt>
      <trkpt lat="48.79848" lon="2.11838">
        <ele>132</ele>
        <time>2014-02-23T08:19:20+01:00</time>
      </trkpt>
      <trkpt lat="48.79839" lon="2.11832">
        <ele>133</ele>
        <time>2014-02-23T08:19:24+01:00</time>
      </trkpt>
      <trkpt lat="48.7983" lon="2.11827">
        <ele>130</ele>
        <time>2014-02-23T08:19:28+01:00</time>
      </trkpt>
      <trkpt lat="48.7982" lon="2.11822">
        <ele>130</ele>
        <time>2014-02-23T08:19:32+01:00</time>
      </trkpt>
      <trkpt lat="48.79812" lon="2.11817">
        <ele>128</ele>
        <time>2014-02-23T08:19:36+01:00</time>
      </trkpt>
      <trkpt lat="48.79804" lon="2.11813">
        <ele>127</ele>
        <time>2014-02-23T08:19:40+01:00</time>
      </trkpt>
      <trkpt lat="48.79796" lon="2.11809">
        <ele>128</ele>
        <time>2014-02-23T08:19:44+01:00</time>
      </trkpt>
      <trkpt lat="48.79789" lon="2.11804">
        <ele>128</ele>
        <time>2014-02-23T08:19:48+01:00</time>
      </trkpt>
      <trkpt lat="48.7978" lon="2.11798">
        <ele>130</ele>
        <time>2014-02-23T08:19:52+01:00</time>
      </trkpt>
      <trkpt lat="48.79773" lon="2.11791">
        <ele>131</ele>
        <time>2014-02-23T08:19:56+01:00</time>
      </trkpt>
      <trkpt lat="48.79764" lon="2.11786">
        <ele>132</ele>
        <time>2014-02-23T08:20:00+01:00</time>
      </trkpt>
      <trkpt lat="48.79756" lon="2.11782">
        <ele>130</ele>
        <time>2014-02-23T08:20:04+01:00</time>
      </trkpt>
      <trkpt lat="48.79748" lon="2.11778">
        <ele>129</ele>
        <time>2014-02-23T08:20:08+01:00</time>
      </trkpt>
      <trkpt lat="48.79741" lon="2.11773">
        <ele>129</ele>
        <time>2014-02-23T08:20:12+01:00</time>
      </trkpt>
      <trkpt lat="48.79733" lon="2.11768">
        <ele>129</ele>
        <time>2014-02-23T08:20:16+01:00</time>
      </trkpt>
      <trkpt lat="48.79725" lon="2.11761">
        <ele>129</ele>
        <time>2014-02-23T08:20:20+01:00</time>
      </trkpt>
      <trkpt lat="48.79717" lon="2.11755">
        <ele>131</ele>
        <time>2014-02-23T08:20:24+01:00</time>
      </trkpt>
      <trkpt lat="48.79707" lon="2.11749">
        <ele>131</ele>
        <time>2014-02-23T08:20:28+01:00</time>
      </trkpt>
      <trkpt lat="48.79698" lon="2.11744">
        <ele>129</ele>
        <time>2014-02-23T08:20:32+01:00</time>
      </trkpt>
      <trkpt lat="48.7969" lon="2.1174">
        <ele>131</ele>
        <time>2014-02-23T08:20:36+01:00</time>
      </trkpt>
      <trkpt lat="48.79681" lon="2.11732">
        <ele>132</ele>
        <time>2014-02-23T08:20:40+01:00</time>
      </trkpt>
      <trkpt lat="48.79672" lon="2.11726">
        <ele>133</ele>
        <time>2014-02-23T08:20:44+01:00</time>
      </trkpt>
      <trkpt lat="48.79663" lon="2.11722">
        <ele>133</ele>
        <time>2014-02-23T08:20:48+01:00</time>
      </trkpt>
      <trkpt lat="48.79655" lon="2.11715">
        <ele>133</ele>
        <time>2014-02-23T08:20:52+01:00</time>
      </trkpt>
      <trkpt lat="48.79646" lon="2.11713">
        <ele>132</ele>
        <time>2014-02-23T08:20:56+01:00</time>
      </trkpt>
      <trkpt lat="48.79638" lon="2.11709">
        <ele>132</ele>
        <time>2014-02-23T08:21:00+01:00</time>
      </trkpt>
      <trkpt lat="48.7963" lon="2.11701">
        <ele>133</ele>
        <time>2014-02-23T08:21:04+01:00</time>
      </trkpt>
      <trkpt lat="48.79622" lon="2.11695">
        <ele>132</ele>
        <time>2014-02-23T08:21:08+01:00</time>
      </trkpt>
      <trkpt lat="48.79613" lon="2.11695">
        <ele>130</ele>
        <time>2014-02-23T08:21:12+01:00</time>
      </trkpt>
      <trkpt lat="48.79604" lon="2.11706">
        <ele>127</ele>
        <time>2014-02-23T08:21:16+01:00</time>
      </trkpt>
      <trkpt lat="48.79594" lon="2.11708">
        <ele>126</ele>
        <time>2014-02-23T08:21:20+01:00</time>
      </trkpt>
      <trkpt lat="48.79585" lon="2.11706">
        <ele>124</ele>
        <time>2014-02-23T08:21:24+01:00</time>
      </trkpt>
      <trkpt lat="48.79578" lon="2.11698">
        <ele>127</ele>
        <time>2014-02-23T08:21:28+01:00</time>
      </trkpt>
      <trkpt lat="48.7957" lon="2.1169">
        <ele>129</ele>
        <time>2014-02-23T08:21:32+01:00</time>
      </trkpt>
      <trkpt lat="48.79563" lon="2.11682">
        <ele>130</ele>
        <time>2014-02-23T08:21:36+01:00</time>
      </trkpt>
      <trkpt lat="48.79555" lon="2.11676">
        <ele>129</ele>
        <time>2014-02-23T08:21:40+01:00</time>
      </trkpt>
      <trkpt lat="48.79547" lon="2.11668">
        <ele>132</ele>
        <time>2014-02-23T08:21:44+01:00</time>
      </trkpt>
      <trkpt lat="48.7954" lon="2.11664">
        <ele>131</ele>
        <time>2014-02-23T08:21:48+01:00</time>
      </trkpt>
      <trkpt lat="48.79531" lon="2.11659">
        <ele>128</ele>
        <time>2014-02-23T08:21:52+01:00</time>
      </trkpt>
      <trkpt lat="48.79521" lon="2.11657">
        <ele>124</ele>
        <time>2014-02-23T08:21:56+01:00</time>
      </trkpt>
      <trkpt lat="48.7951" lon="2.11656">
        <ele>123</ele>
        <time>2014-02-23T08:22:00+01:00</time>
      </trkpt>
      <trkpt lat="48.79501" lon="2.11653">
        <ele>120</ele>
        <time>2014-02-23T08:22:04+01:00</time>
      </trkpt>
      <trkpt lat="48.79494" lon="2.11651">
        <ele>118</ele>
        <time>2014-02-23T08:22:08+01:00</time>
      </trkpt>
      <trkpt lat="48.79486" lon="2.11647">
        <ele>116</ele>
        <time>2014-02-23T08:22:12+01:00</time>
      </trkpt>
      <trkpt lat="48.79478" lon="2.11644">
        <ele>115</ele>
        <time>2014-02-23T08:22:16+01:00</time>
      </trkpt>
      <trkpt lat="48.7947" lon="2.11638">
        <ele>115</ele>
        <time>2014-02-23T08:22:20+01:00</time>
      </trkpt>
      <trkpt lat="48.7946" lon="2.11632">
        <ele>115</ele>
        <time>2014-02-23T08:22:24+01:00</time>
      </trkpt>
      <trkpt lat="48.79451" lon="2.11623">
        <ele>118</ele>
        <time>2014-02-23T08:22:28+01:00</time>
      </trkpt>
      <trkpt lat="48.79443" lon="2.11615">
        <ele>117</ele>
        <time>2014-02-23T08:22:32+01:00</time>
      </trkpt>
      <trkpt lat="48.79436" lon="2.1161">
        <ele>117</ele>
        <time>2014-02-23T08:22:36+01:00</time>
      </trkpt>
      <trkpt lat="48.79429" lon="2.11604">
        <ele>116</ele>
        <time>2014-02-23T08:22:40+01:00</time>
      </trkpt>
      <trkpt lat="48.79421" lon="2.116">
        <ele>116</ele>
        <time>2014-02-23T08:22:44+01:00</time>
      </trkpt>
      <trkpt lat="48.79414" lon="2.11594">
        <ele>118</ele>
        <time>2014-02-23T08:22:48+01:00</time>
      </trkpt>
      <trkpt lat="48.79408" lon="2.11585">
        <ele>117</ele>
        <time>2014-02-23T08:22:52+01:00</time>
      </trkpt>
      <trkpt lat="48.79404" lon="2.11572">
        <ele>117</ele>
        <time>2014-02-23T08:22:56+01:00</time>
      </trkpt>
      <trkpt lat="48.79401" lon="2.11556">
        <ele>118</ele>
        <time>2014-02-23T08:23:00+01:00</time>
      </trkpt>
      <trkpt lat="48.79397" lon="2.11542">
        <ele>117</ele>
        <time>2014-02-23T08:23:04+01:00</time>
      </trkpt>
      <trkpt lat="48.79394" lon="2.11529">
        <ele>116</ele>
        <time>2014-02-23T08:23:08+01:00</time>
      </trkpt>
      <trkpt lat="48.79391" lon="2.11509">
        <ele>124</ele>
        <time>2014-02-23T08:23:12+01:00</time>
      </trkpt>
      <trkpt lat="48.7939" lon="2.11491">
        <ele>130</ele>
        <time>2014-02-23T08:23:16+01:00</time>
      </trkpt>
      <trkpt lat="48.79391" lon="2.11475">
        <ele>133</ele>
        <time>2014-02-23T08:23:20+01:00</time>
      </trkpt>
      <trkpt lat="48.79392" lon="2.11459">
        <ele>133</ele>
        <time>2014-02-23T08:23:24+01:00</time>
      </trkpt>
      <trkpt lat="48.79394" lon="2.11445">
        <ele>136</ele>
        <time>2014-02-23T08:23:28+01:00</time>
      </trkpt>
      <trkpt lat="48.79394" lon="2.11431">
        <ele>135</ele>
        <time>2014-02-23T08:23:32+01:00</time>
      </trkpt>
      <trkpt lat="48.79393" lon="2.11417">
        <ele>135</ele>
        <time>2014-02-23T08:23:36+01:00</time>
      </trkpt>
      <trkpt lat="48.79395" lon="2.11404">
        <ele>134</ele>
        <time>2014-02-23T08:23:40+01:00</time>
      </trkpt>
      <trkpt lat="48.79396" lon="2.11392">
        <ele>135</ele>
        <time>2014-02-23T08:23:44+01:00</time>
      </trkpt>
      <trkpt lat="48.79396" lon="2.11391">
        <ele>131</ele>
        <time>2014-02-23T08:23:48+01:00</time>
      </trkpt>
      <trkpt lat="48.79396" lon="2.11381">
        <ele>132</ele>
        <time>2014-02-23T08:23:52+01:00</time>
      </trkpt>
      <trkpt lat="48.79398" lon="2.11367">
        <ele>134</ele>
        <time>2014-02-23T08:23:56+01:00</time>
      </trkpt>
      <trkpt lat="48.794" lon="2.11354">
        <ele>134</ele>
        <time>2014-02-23T08:24:00+01:00</time>
      </trkpt>
      <trkpt lat="48.79403" lon="2.11341">
        <ele>134</ele>
        <time>2014-02-23T08:24:05+01:00</time>
      </trkpt>
      <trkpt lat="48.79404" lon="2.11332">
        <ele>132</ele>
        <time>2014-02-23T08:24:08+01:00</time>
      </trkpt>
      <trkpt lat="48.79405" lon="2.11322">
        <ele>132</ele>
        <time>2014-02-23T08:24:12+01:00</time>
      </trkpt>
      <trkpt lat="48.79408" lon="2.11313">
        <ele>132</ele>
        <time>2014-02-23T08:24:16+01:00</time>
      </trkpt>
      <trkpt lat="48.79413" lon="2.11304">
        <ele>135</ele>
        <time>2014-02-23T08:24:20+01:00</time>
      </trkpt>
      <trkpt lat="48.79418" lon="2.11293">
        <ele>138</ele>
        <time>2014-02-23T08:24:24+01:00</time>
      </trkpt>
      <trkpt lat="48.79424" lon="2.11282">
        <ele>139</ele>
        <time>2014-02-23T08:24:28+01:00</time>
      </trkpt>
      <trkpt lat="48.79429" lon="2.11271">
        <ele>138</ele>
        <time>2014-02-23T08:24:32+01:00</time>
      </trkpt>
      <trkpt lat="48.79435" lon="2.11259">
        <ele>138</ele>
        <time>2014-02-23T08:24:36+01:00</time>
      </trkpt>
      <trkpt lat="48.79441" lon="2.11248">
        <ele>139</ele>
        <time>2014-02-23T08:24:40+01:00</time>
      </trkpt>
      <trkpt lat="48.79448" lon="2.11234">
        <ele>139</ele>
        <time>2014-02-23T08:24:44+01:00</time>
      </trkpt>
      <trkpt lat="48.79456" lon="2.11219">
        <ele>139</ele>
        <time>2014-02-23T08:24:48+01:00</time>
      </trkpt>
      <trkpt lat="48.79462" lon="2.11204">
        <ele>141</ele>
        <time>2014-02-23T08:24:52+01:00</time>
      </trkpt>
      <trkpt lat="48.79469" lon="2.1119">
        <ele>141</ele>
        <time>2014-02-23T08:24:56+01:00</time>
      </trkpt>
      <trkpt lat="48.79476" lon="2.11178">
        <ele>140</ele>
        <time>2014-02-23T08:25:00+01:00</time>
      </trkpt>
      <trkpt lat="48.79481" lon="2.11163">
        <ele>142</ele>
        <time>2014-02-23T08:25:04+01:00</time>
      </trkpt>
      <trkpt lat="48.79489" lon="2.11152">
        <ele>140</ele>
        <time>2014-02-23T08:25:08+01:00</time>
      </trkpt>
      <trkpt lat="48.79498" lon="2.11155">
        <ele>139</ele>
        <time>2014-02-23T08:25:12+01:00</time>
      </trkpt>
      <trkpt lat="48.79507" lon="2.1116">
        <ele>138</ele>
        <time>2014-02-23T08:25:16+01:00</time>
      </trkpt>
      <trkpt lat="48.79516" lon="2.11167">
        <ele>137</ele>
        <time>2014-02-23T08:25:20+01:00</time>
      </trkpt>
      <trkpt lat="48.79526" lon="2.11175">
        <ele>138</ele>
        <time>2014-02-23T08:25:24+01:00</time>
      </trkpt>
      <trkpt lat="48.79535" lon="2.11185">
        <ele>138</ele>
        <time>2014-02-23T08:25:28+01:00</time>
      </trkpt>
      <trkpt lat="48.79545" lon="2.11191">
        <ele>138</ele>
        <time>2014-02-23T08:25:32+01:00</time>
      </trkpt>
      <trkpt lat="48.79557" lon="2.11198">
        <ele>138</ele>
        <time>2014-02-23T08:25:36+01:00</time>
      </trkpt>
      <trkpt lat="48.79569" lon="2.11205">
        <ele>138</ele>
        <time>2014-02-23T08:25:40+01:00</time>
      </trkpt>
      <trkpt lat="48.7958" lon="2.11211">
        <ele>136</ele>
        <time>2014-02-23T08:25:44+01:00</time>
      </trkpt>
      <trkpt lat="48.79588" lon="2.11216">
        <ele>136</ele>
        <time>2014-02-23T08:25:48+01:00</time>
      </trkpt>
      <trkpt lat="48.79595" lon="2.11221">
        <ele>137</ele>
        <time>2014-02-23T08:25:52+01:00</time>
      </trkpt>
      <trkpt lat="48.79604" lon="2.11227">
        <ele>137</ele>
        <time>2014-02-23T08:25:56+01:00</time>
      </trkpt>
      <trkpt lat="48.79615" lon="2.11233">
        <ele>136</ele>
        <time>2014-02-23T08:26:01+01:00</time>
      </trkpt>
      <trkpt lat="48.79626" lon="2.1124">
        <ele>138</ele>
        <time>2014-02-23T08:26:04+01:00</time>
      </trkpt>
      <trkpt lat="48.79635" lon="2.11247">
        <ele>138</ele>
        <time>2014-02-23T08:26:08+01:00</time>
      </trkpt>
      <trkpt lat="48.79644" lon="2.11256">
        <ele>137</ele>
        <time>2014-02-23T08:26:12+01:00</time>
      </trkpt>
      <trkpt lat="48.79654" lon="2.11266">
        <ele>137</ele>
        <time>2014-02-23T08:26:16+01:00</time>
      </trkpt>
      <trkpt lat="48.79663" lon="2.11272">
        <ele>136</ele>
        <time>2014-02-23T08:26:20+01:00</time>
      </trkpt>
      <trkpt lat="48.79674" lon="2.11276">
        <ele>136</ele>
        <time>2014-02-23T08:26:24+01:00</time>
      </trkpt>
      <trkpt lat="48.79684" lon="2.11281">
        <ele>134</ele>
        <time>2014-02-23T08:26:28+01:00</time>
      </trkpt>
      <trkpt lat="48.79694" lon="2.11286">
        <ele>133</ele>
        <time>2014-02-23T08:26:32+01:00</time>
      </trkpt>
      <trkpt lat="48.79704" lon="2.11293">
        <ele>133</ele>
        <time>2014-02-23T08:26:36+01:00</time>
      </trkpt>
      <trkpt lat="48.79714" lon="2.113">
        <ele>132</ele>
        <time>2014-02-23T08:26:40+01:00</time>
      </trkpt>
      <trkpt lat="48.79723" lon="2.11305">
        <ele>131</ele>
        <time>2014-02-23T08:26:44+01:00</time>
      </trkpt>
      <trkpt lat="48.79732" lon="2.11309">
        <ele>131</ele>
        <time>2014-02-23T08:26:48+01:00</time>
      </trkpt>
      <trkpt lat="48.79743" lon="2.11316">
        <ele>131</ele>
        <time>2014-02-23T08:26:52+01:00</time>
      </trkpt>
      <trkpt lat="48.79753" lon="2.11321">
        <ele>131</ele>
        <time>2014-02-23T08:26:56+01:00</time>
      </trkpt>
      <trkpt lat="48.79763" lon="2.11326">
        <ele>130</ele>
        <time>2014-02-23T08:27:01+01:00</time>
      </trkpt>
      <trkpt lat="48.79781" lon="2.11335">
        <ele>132</ele>
        <time>2014-02-23T08:27:08+01:00</time>
      </trkpt>
      <trkpt lat="48.7979" lon="2.11342">
        <ele>132</ele>
        <time>2014-02-23T08:27:12+01:00</time>
      </trkpt>
      <trkpt lat="48.798" lon="2.11348">
        <ele>132</ele>
        <time>2014-02-23T08:27:16+01:00</time>
      </trkpt>
      <trkpt lat="48.79809" lon="2.11355">
        <ele>132</ele>
        <time>2014-02-23T08:27:20+01:00</time>
      </trkpt>
      <trkpt lat="48.79819" lon="2.11362">
        <ele>131</ele>
        <time>2014-02-23T08:27:24+01:00</time>
      </trkpt>
      <trkpt lat="48.79828" lon="2.11366">
        <ele>131</ele>
        <time>2014-02-23T08:27:28+01:00</time>
      </trkpt>
      <trkpt lat="48.79838" lon="2.11371">
        <ele>131</ele>
        <time>2014-02-23T08:27:32+01:00</time>
      </trkpt>
      <trkpt lat="48.79849" lon="2.11376">
        <ele>130</ele>
        <time>2014-02-23T08:27:36+01:00</time>
      </trkpt>
      <trkpt lat="48.79859" lon="2.11383">
        <ele>131</ele>
        <time>2014-02-23T08:27:40+01:00</time>
      </trkpt>
      <trkpt lat="48.79869" lon="2.11391">
        <ele>131</ele>
        <time>2014-02-23T08:27:44+01:00</time>
      </trkpt>
      <trkpt lat="48.7988" lon="2.11397">
        <ele>131</ele>
        <time>2014-02-23T08:27:48+01:00</time>
      </trkpt>
      <trkpt lat="48.7989" lon="2.11405">
        <ele>133</ele>
        <time>2014-02-23T08:27:52+01:00</time>
      </trkpt>
      <trkpt lat="48.799" lon="2.11411">
        <ele>132</ele>
        <time>2014-02-23T08:27:56+01:00</time>
      </trkpt>
      <trkpt lat="48.79908" lon="2.11416">
        <ele>131</ele>
        <time>2014-02-23T08:28:03+01:00</time>
      </trkpt>
      <trkpt lat="48.79916" lon="2.11422">
        <ele>131</ele>
        <time>2014-02-23T08:28:04+01:00</time>
      </trkpt>
      <trkpt lat="48.79925" lon="2.11428">
        <ele>131</ele>
        <time>2014-02-23T08:28:08+01:00</time>
      </trkpt>
      <trkpt lat="48.79934" lon="2.11435">
        <ele>132</ele>
        <time>2014-02-23T08:28:12+01:00</time>
      </trkpt>
      <trkpt lat="48.79943" lon="2.11441">
        <ele>133</ele>
        <time>2014-02-23T08:28:16+01:00</time>
      </trkpt>
      <trkpt lat="48.79954" lon="2.11446">
        <ele>134</ele>
        <time>2014-02-23T08:28:20+01:00</time>
      </trkpt>
      <trkpt lat="48.79964" lon="2.11449">
        <ele>132</ele>
        <time>2014-02-23T08:28:24+01:00</time>
      </trkpt>
      <trkpt lat="48.79971" lon="2.11451">
        <ele>131</ele>
        <time>2014-02-23T08:28:28+01:00</time>
      </trkpt>
      <trkpt lat="48.79981" lon="2.11456">
        <ele>131</ele>
        <time>2014-02-23T08:28:32+01:00</time>
      </trkpt>
      <trkpt lat="48.79991" lon="2.11464">
        <ele>131</ele>
        <time>2014-02-23T08:28:36+01:00</time>
      </trkpt>
      <trkpt lat="48.8" lon="2.1147">
        <ele>130</ele>
        <time>2014-02-23T08:28:40+01:00</time>
      </trkpt>
      <trkpt lat="48.80009" lon="2.11475">
        <ele>130</ele>
        <time>2014-02-23T08:28:44+01:00</time>
      </trkpt>
      <trkpt lat="48.80017" lon="2.11481">
        <ele>130</ele>
        <time>2014-02-23T08:28:48+01:00</time>
      </trkpt>
      <trkpt lat="48.80025" lon="2.11487">
        <ele>130</ele>
        <time>2014-02-23T08:28:52+01:00</time>
      </trkpt>
      <trkpt lat="48.80034" lon="2.11492">
        <ele>131</ele>
        <time>2014-02-23T08:28:56+01:00</time>
      </trkpt>
      <trkpt lat="48.80041" lon="2.11497">
        <ele>131</ele>
        <time>2014-02-23T08:29:00+01:00</time>
      </trkpt>
      <trkpt lat="48.80049" lon="2.11501">
        <ele>132</ele>
        <time>2014-02-23T08:29:07+01:00</time>
      </trkpt>
      <trkpt lat="48.80059" lon="2.11508">
        <ele>131</ele>
        <time>2014-02-23T08:29:08+01:00</time>
      </trkpt>
      <trkpt lat="48.80069" lon="2.11513">
        <ele>132</ele>
        <time>2014-02-23T08:29:12+01:00</time>
      </trkpt>
      <trkpt lat="48.80079" lon="2.11522">
        <ele>131</ele>
        <time>2014-02-23T08:29:16+01:00</time>
      </trkpt>
      <trkpt lat="48.80088" lon="2.11529">
        <ele>128</ele>
        <time>2014-02-23T08:29:20+01:00</time>
      </trkpt>
      <trkpt lat="48.80098" lon="2.11536">
        <ele>129</ele>
        <time>2014-02-23T08:29:24+01:00</time>
      </trkpt>
      <trkpt lat="48.80108" lon="2.11542">
        <ele>131</ele>
        <time>2014-02-23T08:29:28+01:00</time>
      </trkpt>
      <trkpt lat="48.80118" lon="2.11549">
        <ele>131</ele>
        <time>2014-02-23T08:29:32+01:00</time>
      </trkpt>
      <trkpt lat="48.80127" lon="2.11555">
        <ele>130</ele>
        <time>2014-02-23T08:29:36+01:00</time>
      </trkpt>
      <trkpt lat="48.80136" lon="2.11561">
        <ele>129</ele>
        <time>2014-02-23T08:29:40+01:00</time>
      </trkpt>
      <trkpt lat="48.80144" lon="2.11566">
        <ele>129</ele>
        <time>2014-02-23T08:29:44+01:00</time>
      </trkpt>
      <trkpt lat="48.80153" lon="2.11569">
        <ele>126</ele>
        <time>2014-02-23T08:29:48+01:00</time>
      </trkpt>
      <trkpt lat="48.80162" lon="2.11572">
        <ele>125</ele>
        <time>2014-02-23T08:29:52+01:00</time>
      </trkpt>
      <trkpt lat="48.80172" lon="2.11568">
        <ele>124</ele>
        <time>2014-02-23T08:29:56+01:00</time>
      </trkpt>
      <trkpt lat="48.80181" lon="2.11561">
        <ele>126</ele>
        <time>2014-02-23T08:30:00+01:00</time>
      </trkpt>
      <trkpt lat="48.80189" lon="2.11548">
        <ele>125</ele>
        <time>2014-02-23T08:30:07+01:00</time>
      </trkpt>
      <trkpt lat="48.802" lon="2.11519">
        <ele>122</ele>
        <time>2014-02-23T08:30:12+01:00</time>
      </trkpt>
      <trkpt lat="48.80208" lon="2.11508">
        <ele>121</ele>
        <time>2014-02-23T08:30:16+01:00</time>
      </trkpt>
      <trkpt lat="48.80218" lon="2.11501">
        <ele>121</ele>
        <time>2014-02-23T08:30:20+01:00</time>
      </trkpt>
      <trkpt lat="48.80227" lon="2.11493">
        <ele>121</ele>
        <time>2014-02-23T08:30:24+01:00</time>
      </trkpt>
      <trkpt lat="48.80234" lon="2.11485">
        <ele>122</ele>
        <time>2014-02-23T08:30:28+01:00</time>
      </trkpt>
      <trkpt lat="48.80236" lon="2.11473">
        <ele>122</ele>
        <time>2014-02-23T08:30:32+01:00</time>
      </trkpt>
      <trkpt lat="48.80238" lon="2.1146">
        <ele>122</ele>
        <time>2014-02-23T08:30:37+01:00</time>
      </trkpt>
      <trkpt lat="48.80241" lon="2.11448">
        <ele>120</ele>
        <time>2014-02-23T08:30:40+01:00</time>
      </trkpt>
      <trkpt lat="48.80243" lon="2.11432">
        <ele>119</ele>
        <time>2014-02-23T08:30:44+01:00</time>
      </trkpt>
      <trkpt lat="48.80245" lon="2.11415">
        <ele>116</ele>
        <time>2014-02-23T08:30:48+01:00</time>
      </trkpt>
      <trkpt lat="48.80248" lon="2.114">
        <ele>116</ele>
        <time>2014-02-23T08:30:52+01:00</time>
      </trkpt>
      <trkpt lat="48.80248" lon="2.11386">
        <ele>117</ele>
        <time>2014-02-23T08:30:56+01:00</time>
      </trkpt>
      <trkpt lat="48.80251" lon="2.11371">
        <ele>115</ele>
        <time>2014-02-23T08:31:00+01:00</time>
      </trkpt>
      <trkpt lat="48.80254" lon="2.11359">
        <ele>112</ele>
        <time>2014-02-23T08:31:09+01:00</time>
      </trkpt>
      <trkpt lat="48.80254" lon="2.11347">
        <ele>114</ele>
        <time>2014-02-23T08:31:10+01:00</time>
      </trkpt>
      <trkpt lat="48.80254" lon="2.11335">
        <ele>114</ele>
        <time>2014-02-23T08:31:12+01:00</time>
      </trkpt>
      <trkpt lat="48.80254" lon="2.11323">
        <ele>113</ele>
        <time>2014-02-23T08:31:16+01:00</time>
      </trkpt>
      <trkpt lat="48.80257" lon="2.11309">
        <ele>111</ele>
        <time>2014-02-23T08:31:20+01:00</time>
      </trkpt>
      <trkpt lat="48.8026" lon="2.11294">
        <ele>111</ele>
        <time>2014-02-23T08:31:24+01:00</time>
      </trkpt>
      <trkpt lat="48.80262" lon="2.11278">
        <ele>111</ele>
        <time>2014-02-23T08:31:28+01:00</time>
      </trkpt>
      <trkpt lat="48.80265" lon="2.11263">
        <ele>111</ele>
        <time>2014-02-23T08:31:32+01:00</time>
      </trkpt>
      <trkpt lat="48.80267" lon="2.11247">
        <ele>112</ele>
        <time>2014-02-23T08:31:36+01:00</time>
      </trkpt>
      <trkpt lat="48.80268" lon="2.11232">
        <ele>113</ele>
        <time>2014-02-23T08:31:40+01:00</time>
      </trkpt>
      <trkpt lat="48.80269" lon="2.11217">
        <ele>112</ele>
        <time>2014-02-23T08:31:44+01:00</time>
      </trkpt>
      <trkpt lat="48.80271" lon="2.11202">
        <ele>113</ele>
        <time>2014-02-23T08:31:48+01:00</time>
      </trkpt>
      <trkpt lat="48.80273" lon="2.11186">
        <ele>114</ele>
        <time>2014-02-23T08:31:52+01:00</time>
      </trkpt>
      <trkpt lat="48.80275" lon="2.1117">
        <ele>115</ele>
        <time>2014-02-23T08:31:56+01:00</time>
      </trkpt>
      <trkpt lat="48.80276" lon="2.11154">
        <ele>114</ele>
        <time>2014-02-23T08:32:00+01:00</time>
      </trkpt>
      <trkpt lat="48.8028" lon="2.11139">
        <ele>113</ele>
        <time>2014-02-23T08:32:04+01:00</time>
      </trkpt>
      <trkpt lat="48.80281" lon="2.11124">
        <ele>115</ele>
        <time>2014-02-23T08:32:12+01:00</time>
      </trkpt>
      <trkpt lat="48.80281" lon="2.11096">
        <ele>114</ele>
        <time>2014-02-23T08:32:16+01:00</time>
      </trkpt>
      <trkpt lat="48.80284" lon="2.11082">
        <ele>112</ele>
        <time>2014-02-23T08:32:20+01:00</time>
      </trkpt>
      <trkpt lat="48.80284" lon="2.11069">
        <ele>114</ele>
        <time>2014-02-23T08:32:24+01:00</time>
      </trkpt>
      <trkpt lat="48.80286" lon="2.11055">
        <ele>114</ele>
        <time>2014-02-23T08:32:28+01:00</time>
      </trkpt>
      <trkpt lat="48.80288" lon="2.1104">
        <ele>113</ele>
        <time>2014-02-23T08:32:32+01:00</time>
      </trkpt>
      <trkpt lat="48.80289" lon="2.11025">
        <ele>113</ele>
        <time>2014-02-23T08:32:36+01:00</time>
      </trkpt>
      <trkpt lat="48.80291" lon="2.11009">
        <ele>111</ele>
        <time>2014-02-23T08:32:41+01:00</time>
      </trkpt>
      <trkpt lat="48.80294" lon="2.10977">
        <ele>112</ele>
        <time>2014-02-23T08:32:48+01:00</time>
      </trkpt>
      <trkpt lat="48.80296" lon="2.10963">
        <ele>113</ele>
        <time>2014-02-23T08:32:52+01:00</time>
      </trkpt>
      <trkpt lat="48.80299" lon="2.10948">
        <ele>113</ele>
        <time>2014-02-23T08:32:56+01:00</time>
      </trkpt>
      <trkpt lat="48.80302" lon="2.10931">
        <ele>112</ele>
        <time>2014-02-23T08:33:00+01:00</time>
      </trkpt>
      <trkpt lat="48.80305" lon="2.10916">
        <ele>113</ele>
        <time>2014-02-23T08:33:04+01:00</time>
      </trkpt>
      <trkpt lat="48.80306" lon="2.109">
        <ele>113</ele>
        <time>2014-02-23T08:33:08+01:00</time>
      </trkpt>
      <trkpt lat="48.80308" lon="2.10886">
        <ele>112</ele>
        <time>2014-02-23T08:33:15+01:00</time>
      </trkpt>
      <trkpt lat="48.80313" lon="2.10857">
        <ele>113</ele>
        <time>2014-02-23T08:33:20+01:00</time>
      </trkpt>
      <trkpt lat="48.80315" lon="2.10841">
        <ele>114</ele>
        <time>2014-02-23T08:33:24+01:00</time>
      </trkpt>
      <trkpt lat="48.80318" lon="2.10825">
        <ele>114</ele>
        <time>2014-02-23T08:33:28+01:00</time>
      </trkpt>
      <trkpt lat="48.80319" lon="2.10808">
        <ele>116</ele>
        <time>2014-02-23T08:33:32+01:00</time>
      </trkpt>
      <trkpt lat="48.80321" lon="2.1079">
        <ele>117</ele>
        <time>2014-02-23T08:33:36+01:00</time>
      </trkpt>
      <trkpt lat="48.80323" lon="2.10774">
        <ele>118</ele>
        <time>2014-02-23T08:33:40+01:00</time>
      </trkpt>
      <trkpt lat="48.80324" lon="2.10756">
        <ele>119</ele>
        <time>2014-02-23T08:33:44+01:00</time>
      </trkpt>
      <trkpt lat="48.80325" lon="2.1074">
        <ele>121</ele>
        <time>2014-02-23T08:33:48+01:00</time>
      </trkpt>
      <trkpt lat="48.80327" lon="2.10726">
        <ele>121</ele>
        <time>2014-02-23T08:33:52+01:00</time>
      </trkpt>
      <trkpt lat="48.80329" lon="2.10712">
        <ele>122</ele>
        <time>2014-02-23T08:33:56+01:00</time>
      </trkpt>
      <trkpt lat="48.8033" lon="2.10699">
        <ele>122</ele>
        <time>2014-02-23T08:34:00+01:00</time>
      </trkpt>
      <trkpt lat="48.80333" lon="2.10686">
        <ele>120</ele>
        <time>2014-02-23T08:34:04+01:00</time>
      </trkpt>
      <trkpt lat="48.80336" lon="2.10672">
        <ele>120</ele>
        <time>2014-02-23T08:34:08+01:00</time>
      </trkpt>
      <trkpt lat="48.80336" lon="2.10658">
        <ele>120</ele>
        <time>2014-02-23T08:34:12+01:00</time>
      </trkpt>
      <trkpt lat="48.80338" lon="2.10645">
        <ele>119</ele>
        <time>2014-02-23T08:34:16+01:00</time>
      </trkpt>
      <trkpt lat="48.80342" lon="2.10632">
        <ele>120</ele>
        <time>2014-02-23T08:34:20+01:00</time>
      </trkpt>
      <trkpt lat="48.80343" lon="2.10618">
        <ele>120</ele>
        <time>2014-02-23T08:34:24+01:00</time>
      </trkpt>
      <trkpt lat="48.80344" lon="2.10603">
        <ele>118</ele>
        <time>2014-02-23T08:34:28+01:00</time>
      </trkpt>
      <trkpt lat="48.80346" lon="2.10586">
        <ele>118</ele>
        <time>2014-02-23T08:34:32+01:00</time>
      </trkpt>
      <trkpt lat="48.80349" lon="2.10571">
        <ele>116</ele>
        <time>2014-02-23T08:34:36+01:00</time>
      </trkpt>
      <trkpt lat="48.80356" lon="2.10571">
        <ele>116</ele>
        <time>2014-02-23T08:34:40+01:00</time>
      </trkpt>
      <trkpt lat="48.80364" lon="2.10579">
        <ele>117</ele>
        <time>2014-02-23T08:34:44+01:00</time>
      </trkpt>
      <trkpt lat="48.80373" lon="2.10588">
        <ele>116</ele>
        <time>2014-02-23T08:34:49+01:00</time>
      </trkpt>
      <trkpt lat="48.80381" lon="2.10596">
        <ele>117</ele>
        <time>2014-02-23T08:34:52+01:00</time>
      </trkpt>
      <trkpt lat="48.8039" lon="2.10602">
        <ele>117</ele>
        <time>2014-02-23T08:34:56+01:00</time>
      </trkpt>
      <trkpt lat="48.80399" lon="2.10609">
        <ele>118</ele>
        <time>2014-02-23T08:35:00+01:00</time>
      </trkpt>
      <trkpt lat="48.80407" lon="2.10616">
        <ele>117</ele>
        <time>2014-02-23T08:35:04+01:00</time>
      </trkpt>
      <trkpt lat="48.80416" lon="2.10623">
        <ele>119</ele>
        <time>2014-02-23T08:35:08+01:00</time>
      </trkpt>
      <trkpt lat="48.80425" lon="2.1063">
        <ele>118</ele>
        <time>2014-02-23T08:35:12+01:00</time>
      </trkpt>
      <trkpt lat="48.80433" lon="2.10639">
        <ele>120</ele>
        <time>2014-02-23T08:35:21+01:00</time>
      </trkpt>
      <trkpt lat="48.80452" lon="2.10651">
        <ele>120</ele>
        <time>2014-02-23T08:35:24+01:00</time>
      </trkpt>
      <trkpt lat="48.80461" lon="2.10658">
        <ele>120</ele>
        <time>2014-02-23T08:35:28+01:00</time>
      </trkpt>
      <trkpt lat="48.8047" lon="2.10665">
        <ele>120</ele>
        <time>2014-02-23T08:35:32+01:00</time>
      </trkpt>
      <trkpt lat="48.80478" lon="2.10672">
        <ele>120</ele>
        <time>2014-02-23T08:35:36+01:00</time>
      </trkpt>
      <trkpt lat="48.80486" lon="2.1068">
        <ele>119</ele>
        <time>2014-02-23T08:35:40+01:00</time>
      </trkpt>
      <trkpt lat="48.80496" lon="2.10685">
        <ele>120</ele>
        <time>2014-02-23T08:35:44+01:00</time>
      </trkpt>
      <trkpt lat="48.80505" lon="2.1069">
        <ele>120</ele>
        <time>2014-02-23T08:35:48+01:00</time>
      </trkpt>
      <trkpt lat="48.80513" lon="2.10696">
        <ele>119</ele>
        <time>2014-02-23T08:35:52+01:00</time>
      </trkpt>
      <trkpt lat="48.80523" lon="2.10702">
        <ele>119</ele>
        <time>2014-02-23T08:35:56+01:00</time>
      </trkpt>
      <trkpt lat="48.80531" lon="2.10707">
        <ele>118</ele>
        <time>2014-02-23T08:36:00+01:00</time>
      </trkpt>
      <trkpt lat="48.80541" lon="2.10713">
        <ele>118</ele>
        <time>2014-02-23T08:36:04+01:00</time>
      </trkpt>
      <trkpt lat="48.80549" lon="2.10721">
        <ele>119</ele>
        <time>2014-02-23T08:36:08+01:00</time>
      </trkpt>
      <trkpt lat="48.80558" lon="2.10729">
        <ele>118</ele>
        <time>2014-02-23T08:36:12+01:00</time>
      </trkpt>
      <trkpt lat="48.80567" lon="2.10735">
        <ele>118</ele>
        <time>2014-02-23T08:36:16+01:00</time>
      </trkpt>
      <trkpt lat="48.80577" lon="2.1074">
        <ele>118</ele>
        <time>2014-02-23T08:36:20+01:00</time>
      </trkpt>
      <trkpt lat="48.80586" lon="2.10746">
        <ele>118</ele>
        <time>2014-02-23T08:36:24+01:00</time>
      </trkpt>
      <trkpt lat="48.80594" lon="2.10751">
        <ele>117</ele>
        <time>2014-02-23T08:36:28+01:00</time>
      </trkpt>
      <trkpt lat="48.80603" lon="2.10757">
        <ele>116</ele>
        <time>2014-02-23T08:36:32+01:00</time>
      </trkpt>
      <trkpt lat="48.80612" lon="2.10763">
        <ele>117</ele>
        <time>2014-02-23T08:36:36+01:00</time>
      </trkpt>
      <trkpt lat="48.80621" lon="2.1077">
        <ele>117</ele>
        <time>2014-02-23T08:36:40+01:00</time>
      </trkpt>
      <trkpt lat="48.8063" lon="2.10776">
        <ele>116</ele>
        <time>2014-02-23T08:36:44+01:00</time>
      </trkpt>
      <trkpt lat="48.80639" lon="2.10782">
        <ele>116</ele>
        <time>2014-02-23T08:36:48+01:00</time>
      </trkpt>
      <trkpt lat="48.80648" lon="2.10788">
        <ele>115</ele>
        <time>2014-02-23T08:36:52+01:00</time>
      </trkpt>
      <trkpt lat="48.80657" lon="2.10793">
        <ele>113</ele>
        <time>2014-02-23T08:36:56+01:00</time>
      </trkpt>
      <trkpt lat="48.80666" lon="2.10799">
        <ele>112</ele>
        <time>2014-02-23T08:37:00+01:00</time>
      </trkpt>
      <trkpt lat="48.80675" lon="2.10806">
        <ele>113</ele>
        <time>2014-02-23T08:37:04+01:00</time>
      </trkpt>
      <trkpt lat="48.80684" lon="2.10813">
        <ele>110</ele>
        <time>2014-02-23T08:37:08+01:00</time>
      </trkpt>
      <trkpt lat="48.80693" lon="2.10819">
        <ele>109</ele>
        <time>2014-02-23T08:37:12+01:00</time>
      </trkpt>
      <trkpt lat="48.80701" lon="2.10828">
        <ele>110</ele>
        <time>2014-02-23T08:37:16+01:00</time>
      </trkpt>
      <trkpt lat="48.80705" lon="2.10842">
        <ele>113</ele>
        <time>2014-02-23T08:37:24+01:00</time>
      </trkpt>
      <trkpt lat="48.80705" lon="2.10856">
        <ele>115</ele>
        <time>2014-02-23T08:37:24+01:00</time>
      </trkpt>
      <trkpt lat="48.80706" lon="2.10868">
        <ele>115</ele>
        <time>2014-02-23T08:37:28+01:00</time>
      </trkpt>
      <trkpt lat="48.8071" lon="2.10879">
        <ele>116</ele>
        <time>2014-02-23T08:37:32+01:00</time>
      </trkpt>
      <trkpt lat="48.80715" lon="2.10891">
        <ele>117</ele>
        <time>2014-02-23T08:37:36+01:00</time>
      </trkpt>
      <trkpt lat="48.80719" lon="2.10904">
        <ele>118</ele>
        <time>2014-02-23T08:37:40+01:00</time>
      </trkpt>
      <trkpt lat="48.80725" lon="2.10915">
        <ele>115</ele>
        <time>2014-02-23T08:37:44+01:00</time>
      </trkpt>
      <trkpt lat="48.80732" lon="2.10924">
        <ele>115</ele>
        <time>2014-02-23T08:37:48+01:00</time>
      </trkpt>
      <trkpt lat="48.80739" lon="2.10933">
        <ele>114</ele>
        <time>2014-02-23T08:37:52+01:00</time>
      </trkpt>
      <trkpt lat="48.80747" lon="2.10941">
        <ele>113</ele>
        <time>2014-02-23T08:37:56+01:00</time>
      </trkpt>
      <trkpt lat="48.80756" lon="2.10947">
        <ele>113</ele>
        <time>2014-02-23T08:38:00+01:00</time>
      </trkpt>
      <trkpt lat="48.80766" lon="2.10953">
        <ele>114</ele>
        <time>2014-02-23T08:38:04+01:00</time>
      </trkpt>
      <trkpt lat="48.80776" lon="2.10956">
        <ele>114</ele>
        <time>2014-02-23T08:38:08+01:00</time>
      </trkpt>
      <trkpt lat="48.80786" lon="2.10956">
        <ele>112</ele>
        <time>2014-02-23T08:38:13+01:00</time>
      </trkpt>
      <trkpt lat="48.80806" lon="2.10951">
        <ele>111</ele>
        <time>2014-02-23T08:38:20+01:00</time>
      </trkpt>
      <trkpt lat="48.80816" lon="2.10945">
        <ele>110</ele>
        <time>2014-02-23T08:38:30+01:00</time>
      </trkpt>
      <trkpt lat="48.80841" lon="2.10919">
        <ele>109</ele>
        <time>2014-02-23T08:38:36+01:00</time>
      </trkpt>
      <trkpt lat="48.80849" lon="2.1091">
        <ele>109</ele>
        <time>2014-02-23T08:38:40+01:00</time>
      </trkpt>
      <trkpt lat="48.8086" lon="2.10907">
        <ele>109</ele>
        <time>2014-02-23T08:38:44+01:00</time>
      </trkpt>
      <trkpt lat="48.80871" lon="2.10912">
        <ele>110</ele>
        <time>2014-02-23T08:38:48+01:00</time>
      </trkpt>
      <trkpt lat="48.8088" lon="2.10918">
        <ele>111</ele>
        <time>2014-02-23T08:38:52+01:00</time>
      </trkpt>
      <trkpt lat="48.80889" lon="2.10923">
        <ele>114</ele>
        <time>2014-02-23T08:38:56+01:00</time>
      </trkpt>
      <trkpt lat="48.80897" lon="2.10932">
        <ele>114</ele>
        <time>2014-02-23T08:39:00+01:00</time>
      </trkpt>
      <trkpt lat="48.80906" lon="2.10941">
        <ele>113</ele>
        <time>2014-02-23T08:39:04+01:00</time>
      </trkpt>
      <trkpt lat="48.80913" lon="2.10946">
        <ele>111</ele>
        <time>2014-02-23T08:39:08+01:00</time>
      </trkpt>
      <trkpt lat="48.80922" lon="2.1095">
        <ele>109</ele>
        <time>2014-02-23T08:39:12+01:00</time>
      </trkpt>
      <trkpt lat="48.80931" lon="2.10954">
        <ele>109</ele>
        <time>2014-02-23T08:39:16+01:00</time>
      </trkpt>
      <trkpt lat="48.80939" lon="2.10957">
        <ele>108</ele>
        <time>2014-02-23T08:39:21+01:00</time>
      </trkpt>
      <trkpt lat="48.80947" lon="2.10963">
        <ele>106</ele>
        <time>2014-02-23T08:39:33+01:00</time>
      </trkpt>
      <trkpt lat="48.80956" lon="2.10968">
        <ele>105</ele>
        <time>2014-02-23T08:39:34+01:00</time>
      </trkpt>
      <trkpt lat="48.80981" lon="2.10986">
        <ele>105</ele>
        <time>2014-02-23T08:39:40+01:00</time>
      </trkpt>
      <trkpt lat="48.80986" lon="2.10994">
        <ele>102</ele>
        <time>2014-02-23T08:39:44+01:00</time>
      </trkpt>
      <trkpt lat="48.80996" lon="2.11001">
        <ele>101</ele>
        <time>2014-02-23T08:39:48+01:00</time>
      </trkpt>
      <trkpt lat="48.81005" lon="2.11004">
        <ele>100</ele>
        <time>2014-02-23T08:39:52+01:00</time>
      </trkpt>
      <trkpt lat="48.81014" lon="2.11008">
        <ele>102</ele>
        <time>2014-02-23T08:39:56+01:00</time>
      </trkpt>
      <trkpt lat="48.81024" lon="2.11015">
        <ele>100</ele>
        <time>2014-02-23T08:40:00+01:00</time>
      </trkpt>
      <trkpt lat="48.81033" lon="2.11023">
        <ele>99</ele>
        <time>2014-02-23T08:40:04+01:00</time>
      </trkpt>
      <trkpt lat="48.81041" lon="2.11031">
        <ele>98</ele>
        <time>2014-02-23T08:40:08+01:00</time>
      </trkpt>
      <trkpt lat="48.81051" lon="2.11037">
        <ele>98</ele>
        <time>2014-02-23T08:40:12+01:00</time>
      </trkpt>
      <trkpt lat="48.8106" lon="2.11041">
        <ele>98</ele>
        <time>2014-02-23T08:40:16+01:00</time>
      </trkpt>
      <trkpt lat="48.81068" lon="2.11047">
        <ele>97</ele>
        <time>2014-02-23T08:40:20+01:00</time>
      </trkpt>
      <trkpt lat="48.81076" lon="2.1105">
        <ele>98</ele>
        <time>2014-02-23T08:40:24+01:00</time>
      </trkpt>
      <trkpt lat="48.81083" lon="2.11054">
        <ele>97</ele>
        <time>2014-02-23T08:40:29+01:00</time>
      </trkpt>
      <trkpt lat="48.81091" lon="2.1106">
        <ele>98</ele>
        <time>2014-02-23T08:40:32+01:00</time>
      </trkpt>
      <trkpt lat="48.81103" lon="2.11065">
        <ele>100</ele>
        <time>2014-02-23T08:40:36+01:00</time>
      </trkpt>
      <trkpt lat="48.81115" lon="2.11067">
        <ele>99</ele>
        <time>2014-02-23T08:40:40+01:00</time>
      </trkpt>
      <trkpt lat="48.81126" lon="2.11074">
        <ele>101</ele>
        <time>2014-02-23T08:40:44+01:00</time>
      </trkpt>
      <trkpt lat="48.81135" lon="2.1108">
        <ele>103</ele>
        <time>2014-02-23T08:40:48+01:00</time>
      </trkpt>
      <trkpt lat="48.81142" lon="2.11087">
        <ele>103</ele>
        <time>2014-02-23T08:40:52+01:00</time>
      </trkpt>
      <trkpt lat="48.81148" lon="2.11088">
        <ele>102</ele>
        <time>2014-02-23T08:40:56+01:00</time>
      </trkpt>
      <trkpt lat="48.81157" lon="2.11094">
        <ele>102</ele>
        <time>2014-02-23T08:41:00+01:00</time>
      </trkpt>
      <trkpt lat="48.81167" lon="2.111">
        <ele>103</ele>
        <time>2014-02-23T08:41:04+01:00</time>
      </trkpt>
      <trkpt lat="48.81176" lon="2.11108">
        <ele>103</ele>
        <time>2014-02-23T08:41:08+01:00</time>
      </trkpt>
      <trkpt lat="48.81182" lon="2.1112">
        <ele>103</ele>
        <time>2014-02-23T08:41:12+01:00</time>
      </trkpt>
      <trkpt lat="48.81184" lon="2.11134">
        <ele>104</ele>
        <time>2014-02-23T08:41:16+01:00</time>
      </trkpt>
      <trkpt lat="48.81181" lon="2.11149">
        <ele>106</ele>
        <time>2014-02-23T08:41:20+01:00</time>
      </trkpt>
      <trkpt lat="48.81177" lon="2.11165">
        <ele>106</ele>
        <time>2014-02-23T08:41:24+01:00</time>
      </trkpt>
      <trkpt lat="48.81174" lon="2.1118">
        <ele>104</ele>
        <time>2014-02-23T08:41:28+01:00</time>
      </trkpt>
      <trkpt lat="48.8117" lon="2.11194">
        <ele>105</ele>
        <time>2014-02-23T08:41:33+01:00</time>
      </trkpt>
      <trkpt lat="48.81165" lon="2.11207">
        <ele>106</ele>
        <time>2014-02-23T08:41:36+01:00</time>
      </trkpt>
      <trkpt lat="48.8116" lon="2.11221">
        <ele>106</ele>
        <time>2014-02-23T08:41:40+01:00</time>
      </trkpt>
      <trkpt lat="48.81154" lon="2.11235">
        <ele>107</ele>
        <time>2014-02-23T08:41:44+01:00</time>
      </trkpt>
      <trkpt lat="48.81148" lon="2.11249">
        <ele>109</ele>
        <time>2014-02-23T08:41:48+01:00</time>
      </trkpt>
      <trkpt lat="48.81144" lon="2.11264">
        <ele>109</ele>
        <time>2014-02-23T08:41:52+01:00</time>
      </trkpt>
      <trkpt lat="48.81139" lon="2.11278">
        <ele>107</ele>
        <time>2014-02-23T08:41:56+01:00</time>
      </trkpt>
      <trkpt lat="48.81134" lon="2.11291">
        <ele>107</ele>
        <time>2014-02-23T08:42:00+01:00</time>
      </trkpt>
      <trkpt lat="48.81129" lon="2.11303">
        <ele>109</ele>
        <time>2014-02-23T08:42:04+01:00</time>
      </trkpt>
      <trkpt lat="48.81124" lon="2.11314">
        <ele>111</ele>
        <time>2014-02-23T08:42:08+01:00</time>
      </trkpt>
      <trkpt lat="48.8112" lon="2.11325">
        <ele>112</ele>
        <time>2014-02-23T08:42:12+01:00</time>
      </trkpt>
      <trkpt lat="48.81114" lon="2.11335">
        <ele>112</ele>
        <time>2014-02-23T08:42:16+01:00</time>
      </trkpt>
      <trkpt lat="48.8111" lon="2.11347">
        <ele>111</ele>
        <time>2014-02-23T08:42:20+01:00</time>
      </trkpt>
      <trkpt lat="48.81107" lon="2.11359">
        <ele>114</ele>
        <time>2014-02-23T08:42:24+01:00</time>
      </trkpt>
      <trkpt lat="48.81104" lon="2.1137">
        <ele>114</ele>
        <time>2014-02-23T08:42:28+01:00</time>
      </trkpt>
      <trkpt lat="48.811" lon="2.11383">
        <ele>114</ele>
        <time>2014-02-23T08:42:32+01:00</time>
      </trkpt>
      <trkpt lat="48.81096" lon="2.11397">
        <ele>115</ele>
        <time>2014-02-23T08:42:36+01:00</time>
      </trkpt>
      <trkpt lat="48.8109" lon="2.11408">
        <ele>115</ele>
        <time>2014-02-23T08:42:41+01:00</time>
      </trkpt>
      <trkpt lat="48.81085" lon="2.11419">
        <ele>117</ele>
        <time>2014-02-23T08:42:44+01:00</time>
      </trkpt>
      <trkpt lat="48.81081" lon="2.11431">
        <ele>117</ele>
        <time>2014-02-23T08:42:48+01:00</time>
      </trkpt>
      <trkpt lat="48.81077" lon="2.11444">
        <ele>115</ele>
        <time>2014-02-23T08:42:52+01:00</time>
      </trkpt>
      <trkpt lat="48.81073" lon="2.11458">
        <ele>115</ele>
        <time>2014-02-23T08:42:56+01:00</time>
      </trkpt>
      <trkpt lat="48.81068" lon="2.11471">
        <ele>117</ele>
        <time>2014-02-23T08:43:00+01:00</time>
      </trkpt>
      <trkpt lat="48.81063" lon="2.11484">
        <ele>118</ele>
        <time>2014-02-23T08:43:04+01:00</time>
      </trkpt>
      <trkpt lat="48.81059" lon="2.11496">
        <ele>118</ele>
        <time>2014-02-23T08:43:08+01:00</time>
      </trkpt>
      <trkpt lat="48.81055" lon="2.11509">
        <ele>119</ele>
        <time>2014-02-23T08:43:12+01:00</time>
      </trkpt>
      <trkpt lat="48.81051" lon="2.11521">
        <ele>120</ele>
        <time>2014-02-23T08:43:16+01:00</time>
      </trkpt>
      <trkpt lat="48.81046" lon="2.11533">
        <ele>122</ele>
        <time>2014-02-23T08:43:20+01:00</time>
      </trkpt>
      <trkpt lat="48.81041" lon="2.11546">
        <ele>124</ele>
        <time>2014-02-23T08:43:24+01:00</time>
      </trkpt>
      <trkpt lat="48.81036" lon="2.11558">
        <ele>125</ele>
        <time>2014-02-23T08:43:28+01:00</time>
      </trkpt>
      <trkpt lat="48.81032" lon="2.1157">
        <ele>124</ele>
        <time>2014-02-23T08:43:32+01:00</time>
      </trkpt>
      <trkpt lat="48.81027" lon="2.11581">
        <ele>125</ele>
        <time>2014-02-23T08:43:40+01:00</time>
      </trkpt>
      <trkpt lat="48.81019" lon="2.11607">
        <ele>121</ele>
        <time>2014-02-23T08:43:44+01:00</time>
      </trkpt>
      <trkpt lat="48.81016" lon="2.11621">
        <ele>117</ele>
        <time>2014-02-23T08:43:48+01:00</time>
      </trkpt>
      <trkpt lat="48.81014" lon="2.11634">
        <ele>117</ele>
        <time>2014-02-23T08:43:52+01:00</time>
      </trkpt>
      <trkpt lat="48.81009" lon="2.11646">
        <ele>117</ele>
        <time>2014-02-23T08:43:56+01:00</time>
      </trkpt>
      <trkpt lat="48.81003" lon="2.11658">
        <ele>118</ele>
        <time>2014-02-23T08:44:00+01:00</time>
      </trkpt>
      <trkpt lat="48.80998" lon="2.11671">
        <ele>117</ele>
        <time>2014-02-23T08:44:04+01:00</time>
      </trkpt>
      <trkpt lat="48.80994" lon="2.11684">
        <ele>116</ele>
        <time>2014-02-23T08:44:08+01:00</time>
      </trkpt>
      <trkpt lat="48.80991" lon="2.11697">
        <ele>115</ele>
        <time>2014-02-23T08:44:12+01:00</time>
      </trkpt>
      <trkpt lat="48.80987" lon="2.11709">
        <ele>115</ele>
        <time>2014-02-23T08:44:16+01:00</time>
      </trkpt>
      <trkpt lat="48.80982" lon="2.11721">
        <ele>114</ele>
        <time>2014-02-23T08:44:20+01:00</time>
      </trkpt>
      <trkpt lat="48.80978" lon="2.11734">
        <ele>114</ele>
        <time>2014-02-23T08:44:24+01:00</time>
      </trkpt>
      <trkpt lat="48.80974" lon="2.11747">
        <ele>114</ele>
        <time>2014-02-23T08:44:28+01:00</time>
      </trkpt>
      <trkpt lat="48.8097" lon="2.1176">
        <ele>114</ele>
        <time>2014-02-23T08:44:32+01:00</time>
      </trkpt>
      <trkpt lat="48.80966" lon="2.11773">
        <ele>114</ele>
        <time>2014-02-23T08:44:36+01:00</time>
      </trkpt>
      <trkpt lat="48.80962" lon="2.11786">
        <ele>115</ele>
        <time>2014-02-23T08:44:40+01:00</time>
      </trkpt>
      <trkpt lat="48.80958" lon="2.11798">
        <ele>115</ele>
        <time>2014-02-23T08:44:44+01:00</time>
      </trkpt>
      <trkpt lat="48.80954" lon="2.1181">
        <ele>115</ele>
        <time>2014-02-23T08:44:48+01:00</time>
      </trkpt>
      <trkpt lat="48.8095" lon="2.11823">
        <ele>116</ele>
        <time>2014-02-23T08:44:52+01:00</time>
      </trkpt>
      <trkpt lat="48.80953" lon="2.11836">
        <ele>117</ele>
        <time>2014-02-23T08:44:56+01:00</time>
      </trkpt>
      <trkpt lat="48.80953" lon="2.11851">
        <ele>119</ele>
        <time>2014-02-23T08:45:00+01:00</time>
      </trkpt>
      <trkpt lat="48.80952" lon="2.11865">
        <ele>121</ele>
        <time>2014-02-23T08:45:04+01:00</time>
      </trkpt>
      <trkpt lat="48.80953" lon="2.11879">
        <ele>120</ele>
        <time>2014-02-23T08:45:08+01:00</time>
      </trkpt>
      <trkpt lat="48.80948" lon="2.11892">
        <ele>120</ele>
        <time>2014-02-23T08:45:12+01:00</time>
      </trkpt>
      <trkpt lat="48.80943" lon="2.11902">
        <ele>120</ele>
        <time>2014-02-23T08:45:16+01:00</time>
      </trkpt>
      <trkpt lat="48.80938" lon="2.11913">
        <ele>120</ele>
        <time>2014-02-23T08:45:20+01:00</time>
      </trkpt>
      <trkpt lat="48.80933" lon="2.11924">
        <ele>120</ele>
        <time>2014-02-23T08:45:24+01:00</time>
      </trkpt>
      <trkpt lat="48.80929" lon="2.11937">
        <ele>122</ele>
        <time>2014-02-23T08:45:28+01:00</time>
      </trkpt>
      <trkpt lat="48.80925" lon="2.1195">
        <ele>122</ele>
        <time>2014-02-23T08:45:32+01:00</time>
      </trkpt>
      <trkpt lat="48.80923" lon="2.11964">
        <ele>123</ele>
        <time>2014-02-23T08:45:36+01:00</time>
      </trkpt>
      <trkpt lat="48.80924" lon="2.11977">
        <ele>119</ele>
        <time>2014-02-23T08:45:46+01:00</time>
      </trkpt>
      <trkpt lat="48.80951" lon="2.11991">
        <ele>117</ele>
        <time>2014-02-23T08:45:52+01:00</time>
      </trkpt>
      <trkpt lat="48.80961" lon="2.11991">
        <ele>115</ele>
        <time>2014-02-23T08:45:56+01:00</time>
      </trkpt>
      <trkpt lat="48.80969" lon="2.11988">
        <ele>115</ele>
        <time>2014-02-23T08:46:00+01:00</time>
      </trkpt>
      <trkpt lat="48.80977" lon="2.11984">
        <ele>115</ele>
        <time>2014-02-23T08:46:04+01:00</time>
      </trkpt>
      <trkpt lat="48.80986" lon="2.1198">
        <ele>115</ele>
        <time>2014-02-23T08:46:08+01:00</time>
      </trkpt>
      <trkpt lat="48.80996" lon="2.11974">
        <ele>117</ele>
        <time>2014-02-23T08:46:12+01:00</time>
      </trkpt>
      <trkpt lat="48.81007" lon="2.11969">
        <ele>117</ele>
        <time>2014-02-23T08:46:16+01:00</time>
      </trkpt>
      <trkpt lat="48.81016" lon="2.11965">
        <ele>116</ele>
        <time>2014-02-23T08:46:20+01:00</time>
      </trkpt>
      <trkpt lat="48.81026" lon="2.11962">
        <ele>116</ele>
        <time>2014-02-23T08:46:24+01:00</time>
      </trkpt>
      <trkpt lat="48.81033" lon="2.11957">
        <ele>115</ele>
        <time>2014-02-23T08:46:28+01:00</time>
      </trkpt>
      <trkpt lat="48.8104" lon="2.11954">
        <ele>113</ele>
        <time>2014-02-23T08:46:32+01:00</time>
      </trkpt>
      <trkpt lat="48.81047" lon="2.1195">
        <ele>113</ele>
        <time>2014-02-23T08:46:36+01:00</time>
      </trkpt>
      <trkpt lat="48.81057" lon="2.11946">
        <ele>112</ele>
        <time>2014-02-23T08:46:40+01:00</time>
      </trkpt>
      <trkpt lat="48.81066" lon="2.11944">
        <ele>113</ele>
        <time>2014-02-23T08:46:45+01:00</time>
      </trkpt>
      <trkpt lat="48.81075" lon="2.11941">
        <ele>112</ele>
        <time>2014-02-23T08:46:48+01:00</time>
      </trkpt>
      <trkpt lat="48.81083" lon="2.11936">
        <ele>111</ele>
        <time>2014-02-23T08:46:52+01:00</time>
      </trkpt>
      <trkpt lat="48.81091" lon="2.11929">
        <ele>110</ele>
        <time>2014-02-23T08:46:56+01:00</time>
      </trkpt>
      <trkpt lat="48.81099" lon="2.11928">
        <ele>107</ele>
        <time>2014-02-23T08:47:00+01:00</time>
      </trkpt>
      <trkpt lat="48.81109" lon="2.11921">
        <ele>109</ele>
        <time>2014-02-23T08:47:04+01:00</time>
      </trkpt>
      <trkpt lat="48.81118" lon="2.11912">
        <ele>109</ele>
        <time>2014-02-23T08:47:08+01:00</time>
      </trkpt>
      <trkpt lat="48.81128" lon="2.11905">
        <ele>110</ele>
        <time>2014-02-23T08:47:12+01:00</time>
      </trkpt>
      <trkpt lat="48.81138" lon="2.11899">
        <ele>113</ele>
        <time>2014-02-23T08:47:16+01:00</time>
      </trkpt>
      <trkpt lat="48.8115" lon="2.11894">
        <ele>113</ele>
        <time>2014-02-23T08:47:20+01:00</time>
      </trkpt>
      <trkpt lat="48.81163" lon="2.1189">
        <ele>113</ele>
        <time>2014-02-23T08:47:24+01:00</time>
      </trkpt>
      <trkpt lat="48.81175" lon="2.11883">
        <ele>114</ele>
        <time>2014-02-23T08:47:28+01:00</time>
      </trkpt>
      <trkpt lat="48.81186" lon="2.11878">
        <ele>118</ele>
        <time>2014-02-23T08:47:32+01:00</time>
      </trkpt>
      <trkpt lat="48.81197" lon="2.11874">
        <ele>116</ele>
        <time>2014-02-23T08:47:36+01:00</time>
      </trkpt>
      <trkpt lat="48.81207" lon="2.11869">
        <ele>117</ele>
        <time>2014-02-23T08:47:40+01:00</time>
      </trkpt>
      <trkpt lat="48.81217" lon="2.11866">
        <ele>118</ele>
        <time>2014-02-23T08:47:52+01:00</time>
      </trkpt>
      <trkpt lat="48.81243" lon="2.11849">
        <ele>117</ele>
        <time>2014-02-23T08:47:56+01:00</time>
      </trkpt>
      <trkpt lat="48.81253" lon="2.11846">
        <ele>116</ele>
        <time>2014-02-23T08:48:00+01:00</time>
      </trkpt>
      <trkpt lat="48.81262" lon="2.1184">
        <ele>116</ele>
        <time>2014-02-23T08:48:04+01:00</time>
      </trkpt>
      <trkpt lat="48.81271" lon="2.11835">
        <ele>115</ele>
        <time>2014-02-23T08:48:08+01:00</time>
      </trkpt>
      <trkpt lat="48.81281" lon="2.1183">
        <ele>115</ele>
        <time>2014-02-23T08:48:12+01:00</time>
      </trkpt>
      <trkpt lat="48.8129" lon="2.11825">
        <ele>116</ele>
        <time>2014-02-23T08:48:16+01:00</time>
      </trkpt>
      <trkpt lat="48.81299" lon="2.11819">
        <ele>113</ele>
        <time>2014-02-23T08:48:20+01:00</time>
      </trkpt>
      <trkpt lat="48.81308" lon="2.11813">
        <ele>114</ele>
        <time>2014-02-23T08:48:24+01:00</time>
      </trkpt>
      <trkpt lat="48.81317" lon="2.11808">
        <ele>113</ele>
        <time>2014-02-23T08:48:28+01:00</time>
      </trkpt>
      <trkpt lat="48.81326" lon="2.11803">
        <ele>112</ele>
        <time>2014-02-23T08:48:32+01:00</time>
      </trkpt>
      <trkpt lat="48.81335" lon="2.11798">
        <ele>113</ele>
        <time>2014-02-23T08:48:36+01:00</time>
      </trkpt>
      <trkpt lat="48.81346" lon="2.11794">
        <ele>115</ele>
        <time>2014-02-23T08:48:40+01:00</time>
      </trkpt>
      <trkpt lat="48.81355" lon="2.1179">
        <ele>115</ele>
        <time>2014-02-23T08:48:44+01:00</time>
      </trkpt>
      <trkpt lat="48.81362" lon="2.11784">
        <ele>113</ele>
        <time>2014-02-23T08:48:56+01:00</time>
      </trkpt>
      <trkpt lat="48.8137" lon="2.11778">
        <ele>113</ele>
        <time>2014-02-23T08:48:57+01:00</time>
      </trkpt>
      <trkpt lat="48.81381" lon="2.11772">
        <ele>113</ele>
        <time>2014-02-23T08:48:58+01:00</time>
      </trkpt>
      <trkpt lat="48.81403" lon="2.11763">
        <ele>114</ele>
        <time>2014-02-23T08:49:04+01:00</time>
      </trkpt>
      <trkpt lat="48.81413" lon="2.11759">
        <ele>115</ele>
        <time>2014-02-23T08:49:08+01:00</time>
      </trkpt>
      <trkpt lat="48.81423" lon="2.11753">
        <ele>114</ele>
        <time>2014-02-23T08:49:12+01:00</time>
      </trkpt>
      <trkpt lat="48.81432" lon="2.11747">
        <ele>112</ele>
        <time>2014-02-23T08:49:16+01:00</time>
      </trkpt>
      <trkpt lat="48.81441" lon="2.1174">
        <ele>112</ele>
        <time>2014-02-23T08:49:20+01:00</time>
      </trkpt>
      <trkpt lat="48.8145" lon="2.11735">
        <ele>113</ele>
        <time>2014-02-23T08:49:24+01:00</time>
      </trkpt>
      <trkpt lat="48.81459" lon="2.11731">
        <ele>114</ele>
        <time>2014-02-23T08:49:28+01:00</time>
      </trkpt>
      <trkpt lat="48.81468" lon="2.11727">
        <ele>114</ele>
        <time>2014-02-23T08:49:32+01:00</time>
      </trkpt>
      <trkpt lat="48.81476" lon="2.11721">
        <ele>113</ele>
        <time>2014-02-23T08:49:36+01:00</time>
      </trkpt>
      <trkpt lat="48.81484" lon="2.11717">
        <ele>114</ele>
        <time>2014-02-23T08:49:40+01:00</time>
      </trkpt>
      <trkpt lat="48.81495" lon="2.11711">
        <ele>115</ele>
        <time>2014-02-23T08:49:44+01:00</time>
      </trkpt>
      <trkpt lat="48.81506" lon="2.11708">
        <ele>115</ele>
        <time>2014-02-23T08:49:48+01:00</time>
      </trkpt>
      <trkpt lat="48.81516" lon="2.11705">
        <ele>116</ele>
        <time>2014-02-23T08:49:59+01:00</time>
      </trkpt>
      <trkpt lat="48.81539" lon="2.11689">
        <ele>118</ele>
        <time>2014-02-23T08:50:04+01:00</time>
      </trkpt>
      <trkpt lat="48.81548" lon="2.11683">
        <ele>116</ele>
        <time>2014-02-23T08:50:08+01:00</time>
      </trkpt>
      <trkpt lat="48.81558" lon="2.11678">
        <ele>118</ele>
        <time>2014-02-23T08:50:12+01:00</time>
      </trkpt>
      <trkpt lat="48.81567" lon="2.11672">
        <ele>116</ele>
        <time>2014-02-23T08:50:16+01:00</time>
      </trkpt>
      <trkpt lat="48.81575" lon="2.11667">
        <ele>116</ele>
        <time>2014-02-23T08:50:20+01:00</time>
      </trkpt>
      <trkpt lat="48.81584" lon="2.11662">
        <ele>116</ele>
        <time>2014-02-23T08:50:24+01:00</time>
      </trkpt>
      <trkpt lat="48.81593" lon="2.11657">
        <ele>117</ele>
        <time>2014-02-23T08:50:28+01:00</time>
      </trkpt>
      <trkpt lat="48.81602" lon="2.11651">
        <ele>119</ele>
        <time>2014-02-23T08:50:32+01:00</time>
      </trkpt>
      <trkpt lat="48.81612" lon="2.11646">
        <ele>120</ele>
        <time>2014-02-23T08:50:36+01:00</time>
      </trkpt>
      <trkpt lat="48.81622" lon="2.11642">
        <ele>122</ele>
        <time>2014-02-23T08:50:40+01:00</time>
      </trkpt>
      <trkpt lat="48.81631" lon="2.11637">
        <ele>122</ele>
        <time>2014-02-23T08:50:44+01:00</time>
      </trkpt>
      <trkpt lat="48.81641" lon="2.11633">
        <ele>123</ele>
        <time>2014-02-23T08:50:48+01:00</time>
      </trkpt>
      <trkpt lat="48.81651" lon="2.11629">
        <ele>124</ele>
        <time>2014-02-23T08:50:58+01:00</time>
      </trkpt>
      <trkpt lat="48.81679" lon="2.11613">
        <ele>124</ele>
        <time>2014-02-23T08:51:04+01:00</time>
      </trkpt>
      <trkpt lat="48.81688" lon="2.11607">
        <ele>123</ele>
        <time>2014-02-23T08:51:08+01:00</time>
      </trkpt>
      <trkpt lat="48.81697" lon="2.11602">
        <ele>123</ele>
        <time>2014-02-23T08:51:12+01:00</time>
      </trkpt>
      <trkpt lat="48.81706" lon="2.11596">
        <ele>122</ele>
        <time>2014-02-23T08:51:16+01:00</time>
      </trkpt>
      <trkpt lat="48.81715" lon="2.11591">
        <ele>122</ele>
        <time>2014-02-23T08:51:20+01:00</time>
      </trkpt>
      <trkpt lat="48.81724" lon="2.11587">
        <ele>123</ele>
        <time>2014-02-23T08:51:24+01:00</time>
      </trkpt>
      <trkpt lat="48.81734" lon="2.11584">
        <ele>124</ele>
        <time>2014-02-23T08:51:28+01:00</time>
      </trkpt>
      <trkpt lat="48.81743" lon="2.11579">
        <ele>125</ele>
        <time>2014-02-23T08:51:32+01:00</time>
      </trkpt>
      <trkpt lat="48.81752" lon="2.11573">
        <ele>124</ele>
        <time>2014-02-23T08:51:36+01:00</time>
      </trkpt>
      <trkpt lat="48.81762" lon="2.11568">
        <ele>125</ele>
        <time>2014-02-23T08:51:40+01:00</time>
      </trkpt>
      <trkpt lat="48.81772" lon="2.11563">
        <ele>125</ele>
        <time>2014-02-23T08:51:44+01:00</time>
      </trkpt>
      <trkpt lat="48.81781" lon="2.11558">
        <ele>126</ele>
        <time>2014-02-23T08:51:48+01:00</time>
      </trkpt>
      <trkpt lat="48.81791" lon="2.11552">
        <ele>125</ele>
        <time>2014-02-23T08:51:52+01:00</time>
      </trkpt>
      <trkpt lat="48.81801" lon="2.11546">
        <ele>124</ele>
        <time>2014-02-23T08:52:04+01:00</time>
      </trkpt>
      <trkpt lat="48.8181" lon="2.11539">
        <ele>125</ele>
        <time>2014-02-23T08:52:05+01:00</time>
      </trkpt>
      <trkpt lat="48.81823" lon="2.11533">
        <ele>123</ele>
        <time>2014-02-23T08:52:08+01:00</time>
      </trkpt>
      <trkpt lat="48.81823" lon="2.11532">
        <ele>123</ele>
        <time>2014-02-23T08:52:12+01:00</time>
      </trkpt>
      <trkpt lat="48.81831" lon="2.11526">
        <ele>125</ele>
        <time>2014-02-23T08:52:16+01:00</time>
      </trkpt>
      <trkpt lat="48.81837" lon="2.11516">
        <ele>126</ele>
        <time>2014-02-23T08:52:20+01:00</time>
      </trkpt>
      <trkpt lat="48.81846" lon="2.11511">
        <ele>124</ele>
        <time>2014-02-23T08:52:24+01:00</time>
      </trkpt>
      <trkpt lat="48.81854" lon="2.11508">
        <ele>123</ele>
        <time>2014-02-23T08:52:28+01:00</time>
      </trkpt>
      <trkpt lat="48.8186" lon="2.11501">
        <ele>123</ele>
        <time>2014-02-23T08:52:32+01:00</time>
      </trkpt>
      <trkpt lat="48.81866" lon="2.11492">
        <ele>121</ele>
        <time>2014-02-23T08:52:36+01:00</time>
      </trkpt>
      <trkpt lat="48.8187" lon="2.11479">
        <ele>122</ele>
        <time>2014-02-23T08:52:40+01:00</time>
      </trkpt>
      <trkpt lat="48.81874" lon="2.11473">
        <ele>123</ele>
        <time>2014-02-23T08:52:44+01:00</time>
      </trkpt>
      <trkpt lat="48.81878" lon="2.11467">
        <ele>124</ele>
        <time>2014-02-23T08:52:48+01:00</time>
      </trkpt>
      <trkpt lat="48.81883" lon="2.11464">
        <ele>123</ele>
        <time>2014-02-23T08:52:52+01:00</time>
      </trkpt>
      <trkpt lat="48.81892" lon="2.11465">
        <ele>123</ele>
        <time>2014-02-23T08:53:10+01:00</time>
      </trkpt>
      <trkpt lat="48.81899" lon="2.1147">
        <ele>123</ele>
        <time>2014-02-23T08:53:12+01:00</time>
      </trkpt>
      <trkpt lat="48.81907" lon="2.11476">
        <ele>121</ele>
        <time>2014-02-23T08:53:16+01:00</time>
      </trkpt>
      <trkpt lat="48.81918" lon="2.1148">
        <ele>120</ele>
        <time>2014-02-23T08:53:20+01:00</time>
      </trkpt>
      <trkpt lat="48.81929" lon="2.11485">
        <ele>119</ele>
        <time>2014-02-23T08:53:24+01:00</time>
      </trkpt>
      <trkpt lat="48.81941" lon="2.11491">
        <ele>121</ele>
        <time>2014-02-23T08:53:28+01:00</time>
      </trkpt>
      <trkpt lat="48.81951" lon="2.11496">
        <ele>121</ele>
        <time>2014-02-23T08:53:32+01:00</time>
      </trkpt>
      <trkpt lat="48.81961" lon="2.11488">
        <ele>120</ele>
        <time>2014-02-23T08:53:36+01:00</time>
      </trkpt>
      <trkpt lat="48.81969" lon="2.11478">
        <ele>120</ele>
        <time>2014-02-23T08:53:40+01:00</time>
      </trkpt>
      <trkpt lat="48.81975" lon="2.11464">
        <ele>120</ele>
        <time>2014-02-23T08:53:44+01:00</time>
      </trkpt>
      <trkpt lat="48.81979" lon="2.11451">
        <ele>121</ele>
        <time>2014-02-23T08:53:48+01:00</time>
      </trkpt>
      <trkpt lat="48.81984" lon="2.11437">
        <ele>121</ele>
        <time>2014-02-23T08:53:52+01:00</time>
      </trkpt>
      <trkpt lat="48.81988" lon="2.11423">
        <ele>121</ele>
        <time>2014-02-23T08:53:56+01:00</time>
      </trkpt>
      <trkpt lat="48.81993" lon="2.1141">
        <ele>122</ele>
        <time>2014-02-23T08:54:00+01:00</time>
      </trkpt>
      <trkpt lat="48.81995" lon="2.11397">
        <ele>121</ele>
        <time>2014-02-23T08:54:12+01:00</time>
      </trkpt>
      <trkpt lat="48.82006" lon="2.11356">
        <ele>119</ele>
        <time>2014-02-23T08:54:16+01:00</time>
      </trkpt>
      <trkpt lat="48.8201" lon="2.11342">
        <ele>119</ele>
        <time>2014-02-23T08:54:20+01:00</time>
      </trkpt>
      <trkpt lat="48.82016" lon="2.11329">
        <ele>121</ele>
        <time>2014-02-23T08:54:24+01:00</time>
      </trkpt>
      <trkpt lat="48.82021" lon="2.11314">
        <ele>119</ele>
        <time>2014-02-23T08:54:29+01:00</time>
      </trkpt>
      <trkpt lat="48.82026" lon="2.113">
        <ele>121</ele>
        <time>2014-02-23T08:54:32+01:00</time>
      </trkpt>
      <trkpt lat="48.8203" lon="2.11286">
        <ele>119</ele>
        <time>2014-02-23T08:54:36+01:00</time>
      </trkpt>
      <trkpt lat="48.82035" lon="2.11271">
        <ele>120</ele>
        <time>2014-02-23T08:54:40+01:00</time>
      </trkpt>
      <trkpt lat="48.8204" lon="2.11258">
        <ele>122</ele>
        <time>2014-02-23T08:54:44+01:00</time>
      </trkpt>
      <trkpt lat="48.82044" lon="2.11244">
        <ele>123</ele>
        <time>2014-02-23T08:54:48+01:00</time>
      </trkpt>
      <trkpt lat="48.82049" lon="2.11231">
        <ele>123</ele>
        <time>2014-02-23T08:54:52+01:00</time>
      </trkpt>
      <trkpt lat="48.82054" lon="2.11217">
        <ele>125</ele>
        <time>2014-02-23T08:54:56+01:00</time>
      </trkpt>
      <trkpt lat="48.82059" lon="2.11204">
        <ele>124</ele>
        <time>2014-02-23T08:55:00+01:00</time>
      </trkpt>
      <trkpt lat="48.82063" lon="2.1119">
        <ele>125</ele>
        <time>2014-02-23T08:55:04+01:00</time>
      </trkpt>
      <trkpt lat="48.82066" lon="2.11176">
        <ele>128</ele>
        <time>2014-02-23T08:55:16+01:00</time>
      </trkpt>
      <trkpt lat="48.82079" lon="2.11138">
        <ele>129</ele>
        <time>2014-02-23T08:55:20+01:00</time>
      </trkpt>
      <trkpt lat="48.82082" lon="2.11123">
        <ele>128</ele>
        <time>2014-02-23T08:55:24+01:00</time>
      </trkpt>
      <trkpt lat="48.82086" lon="2.1111">
        <ele>128</ele>
        <time>2014-02-23T08:55:28+01:00</time>
      </trkpt>
      <trkpt lat="48.82089" lon="2.11096">
        <ele>128</ele>
        <time>2014-02-23T08:55:32+01:00</time>
      </trkpt>
      <trkpt lat="48.82094" lon="2.11083">
        <ele>126</ele>
        <time>2014-02-23T08:55:36+01:00</time>
      </trkpt>
      <trkpt lat="48.82095" lon="2.11069">
        <ele>125</ele>
        <time>2014-02-23T08:55:40+01:00</time>
      </trkpt>
      <trkpt lat="48.82097" lon="2.11054">
        <ele>125</ele>
        <time>2014-02-23T08:55:44+01:00</time>
      </trkpt>
      <trkpt lat="48.82098" lon="2.11039">
        <ele>122</ele>
        <time>2014-02-23T08:55:48+01:00</time>
      </trkpt>
      <trkpt lat="48.82103" lon="2.11027">
        <ele>124</ele>
        <time>2014-02-23T08:55:52+01:00</time>
      </trkpt>
      <trkpt lat="48.82109" lon="2.11015">
        <ele>124</ele>
        <time>2014-02-23T08:55:56+01:00</time>
      </trkpt>
      <trkpt lat="48.82114" lon="2.11003">
        <ele>125</ele>
        <time>2014-02-23T08:56:00+01:00</time>
      </trkpt>
      <trkpt lat="48.82118" lon="2.10987">
        <ele>125</ele>
        <time>2014-02-23T08:56:04+01:00</time>
      </trkpt>
      <trkpt lat="48.82121" lon="2.10973">
        <ele>124</ele>
        <time>2014-02-23T08:56:08+01:00</time>
      </trkpt>
      <trkpt lat="48.82126" lon="2.10957">
        <ele>122</ele>
        <time>2014-02-23T08:56:20+01:00</time>
      </trkpt>
      <trkpt lat="48.82133" lon="2.10945">
        <ele>122</ele>
        <time>2014-02-23T08:56:21+01:00</time>
      </trkpt>
      <trkpt lat="48.8214" lon="2.10914">
        <ele>124</ele>
        <time>2014-02-23T08:56:24+01:00</time>
      </trkpt>
      <trkpt lat="48.82144" lon="2.10899">
        <ele>123</ele>
        <time>2014-02-23T08:56:28+01:00</time>
      </trkpt>
      <trkpt lat="48.82148" lon="2.10884">
        <ele>120</ele>
        <time>2014-02-23T08:56:32+01:00</time>
      </trkpt>
      <trkpt lat="48.82152" lon="2.10869">
        <ele>120</ele>
        <time>2014-02-23T08:56:36+01:00</time>
      </trkpt>
      <trkpt lat="48.82156" lon="2.10854">
        <ele>121</ele>
        <time>2014-02-23T08:56:40+01:00</time>
      </trkpt>
      <trkpt lat="48.8216" lon="2.10839">
        <ele>123</ele>
        <time>2014-02-23T08:56:44+01:00</time>
      </trkpt>
      <trkpt lat="48.82164" lon="2.10824">
        <ele>123</ele>
        <time>2014-02-23T08:56:48+01:00</time>
      </trkpt>
      <trkpt lat="48.82167" lon="2.1081">
        <ele>122</ele>
        <time>2014-02-23T08:56:52+01:00</time>
      </trkpt>
      <trkpt lat="48.8217" lon="2.10795">
        <ele>122</ele>
        <time>2014-02-23T08:56:56+01:00</time>
      </trkpt>
      <trkpt lat="48.82174" lon="2.10781">
        <ele>122</ele>
        <time>2014-02-23T08:57:00+01:00</time>
      </trkpt>
      <trkpt lat="48.8218" lon="2.10767">
        <ele>122</ele>
        <time>2014-02-23T08:57:05+01:00</time>
      </trkpt>
      <trkpt lat="48.82184" lon="2.10752">
        <ele>121</ele>
        <time>2014-02-23T08:57:08+01:00</time>
      </trkpt>
      <trkpt lat="48.82187" lon="2.10737">
        <ele>121</ele>
        <time>2014-02-23T08:57:23+01:00</time>
      </trkpt>
      <trkpt lat="48.82209" lon="2.10683">
        <ele>124</ele>
        <time>2014-02-23T08:57:28+01:00</time>
      </trkpt>
      <trkpt lat="48.82213" lon="2.10668">
        <ele>122</ele>
        <time>2014-02-23T08:57:32+01:00</time>
      </trkpt>
      <trkpt lat="48.82217" lon="2.10653">
        <ele>123</ele>
        <time>2014-02-23T08:57:36+01:00</time>
      </trkpt>
      <trkpt lat="48.82221" lon="2.10638">
        <ele>121</ele>
        <time>2014-02-23T08:57:41+01:00</time>
      </trkpt>
      <trkpt lat="48.82225" lon="2.10623">
        <ele>121</ele>
        <time>2014-02-23T08:57:44+01:00</time>
      </trkpt>
      <trkpt lat="48.82228" lon="2.10609">
        <ele>121</ele>
        <time>2014-02-23T08:57:48+01:00</time>
      </trkpt>
      <trkpt lat="48.82233" lon="2.10595">
        <ele>120</ele>
        <time>2014-02-23T08:57:52+01:00</time>
      </trkpt>
      <trkpt lat="48.8224" lon="2.10584">
        <ele>118</ele>
        <time>2014-02-23T08:57:56+01:00</time>
      </trkpt>
      <trkpt lat="48.82245" lon="2.10571">
        <ele>117</ele>
        <time>2014-02-23T08:58:00+01:00</time>
      </trkpt>
      <trkpt lat="48.82248" lon="2.10563">
        <ele>118</ele>
        <time>2014-02-23T08:58:04+01:00</time>
      </trkpt>
      <trkpt lat="48.82252" lon="2.10553">
        <ele>116</ele>
        <time>2014-02-23T08:58:08+01:00</time>
      </trkpt>
      <trkpt lat="48.82254" lon="2.1054">
        <ele>115</ele>
        <time>2014-02-23T08:58:12+01:00</time>
      </trkpt>
      <trkpt lat="48.82258" lon="2.10527">
        <ele>117</ele>
        <time>2014-02-23T08:58:26+01:00</time>
      </trkpt>
      <trkpt lat="48.82263" lon="2.10512">
        <ele>117</ele>
        <time>2014-02-23T08:58:28+01:00</time>
      </trkpt>
      <trkpt lat="48.82271" lon="2.10468">
        <ele>119</ele>
        <time>2014-02-23T08:58:32+01:00</time>
      </trkpt>
      <trkpt lat="48.82275" lon="2.10454">
        <ele>121</ele>
        <time>2014-02-23T08:58:36+01:00</time>
      </trkpt>
      <trkpt lat="48.82279" lon="2.10439">
        <ele>119</ele>
        <time>2014-02-23T08:58:40+01:00</time>
      </trkpt>
      <trkpt lat="48.82284" lon="2.10422">
        <ele>115</ele>
        <time>2014-02-23T08:58:45+01:00</time>
      </trkpt>
      <trkpt lat="48.82291" lon="2.10408">
        <ele>116</ele>
        <time>2014-02-23T08:58:48+01:00</time>
      </trkpt>
      <trkpt lat="48.82295" lon="2.10394">
        <ele>115</ele>
        <time>2014-02-23T08:58:52+01:00</time>
      </trkpt>
      <trkpt lat="48.823" lon="2.10381">
        <ele>115</ele>
        <time>2014-02-23T08:58:56+01:00</time>
      </trkpt>
      <trkpt lat="48.82303" lon="2.10368">
        <ele>116</ele>
        <time>2014-02-23T08:59:00+01:00</time>
      </trkpt>
      <trkpt lat="48.82308" lon="2.10356">
        <ele>116</ele>
        <time>2014-02-23T08:59:04+01:00</time>
      </trkpt>
      <trkpt lat="48.82314" lon="2.10344">
        <ele>119</ele>
        <time>2014-02-23T08:59:08+01:00</time>
      </trkpt>
      <trkpt lat="48.82317" lon="2.10329">
        <ele>119</ele>
        <time>2014-02-23T08:59:12+01:00</time>
      </trkpt>
      <trkpt lat="48.82319" lon="2.10316">
        <ele>118</ele>
        <time>2014-02-23T08:59:26+01:00</time>
      </trkpt>
      <trkpt lat="48.82321" lon="2.10302">
        <ele>121</ele>
        <time>2014-02-23T08:59:26+01:00</time>
      </trkpt>
      <trkpt lat="48.82335" lon="2.10264">
        <ele>121</ele>
        <time>2014-02-23T08:59:32+01:00</time>
      </trkpt>
      <trkpt lat="48.82337" lon="2.1025">
        <ele>121</ele>
        <time>2014-02-23T08:59:36+01:00</time>
      </trkpt>
      <trkpt lat="48.82343" lon="2.10237">
        <ele>120</ele>
        <time>2014-02-23T08:59:40+01:00</time>
      </trkpt>
      <trkpt lat="48.82348" lon="2.10225">
        <ele>122</ele>
        <time>2014-02-23T08:59:44+01:00</time>
      </trkpt>
      <trkpt lat="48.82353" lon="2.10213">
        <ele>124</ele>
        <time>2014-02-23T08:59:48+01:00</time>
      </trkpt>
      <trkpt lat="48.82357" lon="2.10201">
        <ele>124</ele>
        <time>2014-02-23T08:59:52+01:00</time>
      </trkpt>
      <trkpt lat="48.8236" lon="2.10188">
        <ele>124</ele>
        <time>2014-02-23T08:59:56+01:00</time>
      </trkpt>
      <trkpt lat="48.82365" lon="2.10175">
        <ele>124</ele>
        <time>2014-02-23T09:00:00+01:00</time>
      </trkpt>
      <trkpt lat="48.82369" lon="2.10161">
        <ele>124</ele>
        <time>2014-02-23T09:00:04+01:00</time>
      </trkpt>
      <trkpt lat="48.82372" lon="2.10147">
        <ele>125</ele>
        <time>2014-02-23T09:00:08+01:00</time>
      </trkpt>
      <trkpt lat="48.82375" lon="2.10132">
        <ele>124</ele>
        <time>2014-02-23T09:00:12+01:00</time>
      </trkpt>
      <trkpt lat="48.82379" lon="2.10118">
        <ele>123</ele>
        <time>2014-02-23T09:00:16+01:00</time>
      </trkpt>
      <trkpt lat="48.82383" lon="2.10104">
        <ele>123</ele>
        <time>2014-02-23T09:00:30+01:00</time>
      </trkpt>
      <trkpt lat="48.82398" lon="2.10044">
        <ele>123</ele>
        <time>2014-02-23T09:00:36+01:00</time>
      </trkpt>
      <trkpt lat="48.82401" lon="2.1003">
        <ele>122</ele>
        <time>2014-02-23T09:00:40+01:00</time>
      </trkpt>
      <trkpt lat="48.82406" lon="2.10016">
        <ele>121</ele>
        <time>2014-02-23T09:00:44+01:00</time>
      </trkpt>
      <trkpt lat="48.8241" lon="2.10002">
        <ele>123</ele>
        <time>2014-02-23T09:00:48+01:00</time>
      </trkpt>
      <trkpt lat="48.82412" lon="2.09988">
        <ele>122</ele>
        <time>2014-02-23T09:00:52+01:00</time>
      </trkpt>
      <trkpt lat="48.82414" lon="2.09974">
        <ele>121</ele>
        <time>2014-02-23T09:00:57+01:00</time>
      </trkpt>
      <trkpt lat="48.82418" lon="2.09962">
        <ele>121</ele>
        <time>2014-02-23T09:01:00+01:00</time>
      </trkpt>
      <trkpt lat="48.8242" lon="2.09952">
        <ele>121</ele>
        <time>2014-02-23T09:01:04+01:00</time>
      </trkpt>
      <trkpt lat="48.82425" lon="2.09939">
        <ele>120</ele>
        <time>2014-02-23T09:01:12+01:00</time>
      </trkpt>
      <trkpt lat="48.82429" lon="2.09928">
        <ele>121</ele>
        <time>2014-02-23T09:01:16+01:00</time>
      </trkpt>
      <trkpt lat="48.82433" lon="2.09916">
        <ele>120</ele>
        <time>2014-02-23T09:01:30+01:00</time>
      </trkpt>
      <trkpt lat="48.82437" lon="2.09904">
        <ele>121</ele>
        <time>2014-02-23T09:01:31+01:00</time>
      </trkpt>
      <trkpt lat="48.82452" lon="2.09872">
        <ele>124</ele>
        <time>2014-02-23T09:01:36+01:00</time>
      </trkpt>
      <trkpt lat="48.82456" lon="2.0986">
        <ele>123</ele>
        <time>2014-02-23T09:01:40+01:00</time>
      </trkpt>
      <trkpt lat="48.8246" lon="2.09847">
        <ele>127</ele>
        <time>2014-02-23T09:01:44+01:00</time>
      </trkpt>
      <trkpt lat="48.82463" lon="2.09837">
        <ele>126</ele>
        <time>2014-02-23T09:01:48+01:00</time>
      </trkpt>
      <trkpt lat="48.82473" lon="2.09832">
        <ele>121</ele>
        <time>2014-02-23T09:02:00+01:00</time>
      </trkpt>
      <trkpt lat="48.82473" lon="2.09819">
        <ele>118</ele>
        <time>2014-02-23T09:02:04+01:00</time>
      </trkpt>
      <trkpt lat="48.82467" lon="2.09806">
        <ele>118</ele>
        <time>2014-02-23T09:02:09+01:00</time>
      </trkpt>
      <trkpt lat="48.82463" lon="2.09794">
        <ele>117</ele>
        <time>2014-02-23T09:02:12+01:00</time>
      </trkpt>
      <trkpt lat="48.8246" lon="2.09782">
        <ele>117</ele>
        <time>2014-02-23T09:02:16+01:00</time>
      </trkpt>
      <trkpt lat="48.82452" lon="2.09771">
        <ele>116</ele>
        <time>2014-02-23T09:02:31+01:00</time>
      </trkpt>
      <trkpt lat="48.82422" lon="2.0973">
        <ele>119</ele>
        <time>2014-02-23T09:02:36+01:00</time>
      </trkpt>
      <trkpt lat="48.82413" lon="2.09718">
        <ele>118</ele>
        <time>2014-02-23T09:02:40+01:00</time>
      </trkpt>
      <trkpt lat="48.82406" lon="2.09708">
        <ele>118</ele>
        <time>2014-02-23T09:02:44+01:00</time>
      </trkpt>
      <trkpt lat="48.82398" lon="2.09697">
        <ele>118</ele>
        <time>2014-02-23T09:02:49+01:00</time>
      </trkpt>
      <trkpt lat="48.82391" lon="2.09688">
        <ele>117</ele>
        <time>2014-02-23T09:02:52+01:00</time>
      </trkpt>
      <trkpt lat="48.82385" lon="2.09676">
        <ele>115</ele>
        <time>2014-02-23T09:02:56+01:00</time>
      </trkpt>
      <trkpt lat="48.82378" lon="2.09665">
        <ele>116</ele>
        <time>2014-02-23T09:03:00+01:00</time>
      </trkpt>
      <trkpt lat="48.82371" lon="2.09654">
        <ele>116</ele>
        <time>2014-02-23T09:03:04+01:00</time>
      </trkpt>
      <trkpt lat="48.82363" lon="2.09644">
        <ele>115</ele>
        <time>2014-02-23T09:03:09+01:00</time>
      </trkpt>
      <trkpt lat="48.82354" lon="2.09632">
        <ele>117</ele>
        <time>2014-02-23T09:03:12+01:00</time>
      </trkpt>
      <trkpt lat="48.82345" lon="2.0962">
        <ele>116</ele>
        <time>2014-02-23T09:03:18+01:00</time>
      </trkpt>
      <trkpt lat="48.82338" lon="2.09608">
        <ele>116</ele>
        <time>2014-02-23T09:03:35+01:00</time>
      </trkpt>
      <trkpt lat="48.8233" lon="2.09595">
        <ele>116</ele>
        <time>2014-02-23T09:03:36+01:00</time>
      </trkpt>
      <trkpt lat="48.82298" lon="2.09548">
        <ele>112</ele>
        <time>2014-02-23T09:03:41+01:00</time>
      </trkpt>
      <trkpt lat="48.82291" lon="2.09538">
        <ele>112</ele>
        <time>2014-02-23T09:03:44+01:00</time>
      </trkpt>
      <trkpt lat="48.82284" lon="2.09528">
        <ele>114</ele>
        <time>2014-02-23T09:03:48+01:00</time>
      </trkpt>
      <trkpt lat="48.82276" lon="2.0952">
        <ele>117</ele>
        <time>2014-02-23T09:03:52+01:00</time>
      </trkpt>
      <trkpt lat="48.82269" lon="2.09511">
        <ele>115</ele>
        <time>2014-02-23T09:03:56+01:00</time>
      </trkpt>
      <trkpt lat="48.82261" lon="2.09502">
        <ele>115</ele>
        <time>2014-02-23T09:04:00+01:00</time>
      </trkpt>
      <trkpt lat="48.82251" lon="2.09496">
        <ele>115</ele>
        <time>2014-02-23T09:04:04+01:00</time>
      </trkpt>
      <trkpt lat="48.82242" lon="2.0949">
        <ele>115</ele>
        <time>2014-02-23T09:04:08+01:00</time>
      </trkpt>
      <trkpt lat="48.82234" lon="2.09481">
        <ele>112</ele>
        <time>2014-02-23T09:04:13+01:00</time>
      </trkpt>
      <trkpt lat="48.82226" lon="2.09472">
        <ele>110</ele>
        <time>2014-02-23T09:04:16+01:00</time>
      </trkpt>
      <trkpt lat="48.82219" lon="2.0946">
        <ele>112</ele>
        <time>2014-02-23T09:04:21+01:00</time>
      </trkpt>
      <trkpt lat="48.8221" lon="2.09451">
        <ele>111</ele>
        <time>2014-02-23T09:04:39+01:00</time>
      </trkpt>
      <trkpt lat="48.82177" lon="2.09402">
        <ele>109</ele>
        <time>2014-02-23T09:04:45+01:00</time>
      </trkpt>
      <trkpt lat="48.82174" lon="2.09397">
        <ele>108</ele>
        <time>2014-02-23T09:04:48+01:00</time>
      </trkpt>
      <trkpt lat="48.82172" lon="2.09395">
        <ele>109</ele>
        <time>2014-02-23T09:04:52+01:00</time>
      </trkpt>
      <trkpt lat="48.82172" lon="2.09395">
        <ele>109</ele>
        <time>2014-02-23T09:04:56+01:00</time>
      </trkpt>
      <trkpt lat="48.82173" lon="2.09387">
        <ele>106</ele>
        <time>2014-02-23T09:05:16+01:00</time>
      </trkpt>
      <trkpt lat="48.82181" lon="2.09376">
        <ele>106</ele>
        <time>2014-02-23T09:05:20+01:00</time>
      </trkpt>
      <trkpt lat="48.82189" lon="2.09368">
        <ele>106</ele>
        <time>2014-02-23T09:05:24+01:00</time>
      </trkpt>
      <trkpt lat="48.82198" lon="2.0936">
        <ele>108</ele>
        <time>2014-02-23T09:05:29+01:00</time>
      </trkpt>
      <trkpt lat="48.82209" lon="2.09352">
        <ele>111</ele>
        <time>2014-02-23T09:05:32+01:00</time>
      </trkpt>
      <trkpt lat="48.82218" lon="2.09341">
        <ele>112</ele>
        <time>2014-02-23T09:05:36+01:00</time>
      </trkpt>
      <trkpt lat="48.82227" lon="2.0933">
        <ele>114</ele>
        <time>2014-02-23T09:05:40+01:00</time>
      </trkpt>
      <trkpt lat="48.82236" lon="2.09322">
        <ele>112</ele>
        <time>2014-02-23T09:05:44+01:00</time>
      </trkpt>
      <trkpt lat="48.82245" lon="2.09314">
        <ele>113</ele>
        <time>2014-02-23T09:05:48+01:00</time>
      </trkpt>
      <trkpt lat="48.82251" lon="2.09306">
        <ele>114</ele>
        <time>2014-02-23T09:05:52+01:00</time>
      </trkpt>
      <trkpt lat="48.82258" lon="2.09297">
        <ele>114</ele>
        <time>2014-02-23T09:05:56+01:00</time>
      </trkpt>
      <trkpt lat="48.82265" lon="2.09287">
        <ele>116</ele>
        <time>2014-02-23T09:06:01+01:00</time>
      </trkpt>
      <trkpt lat="48.82273" lon="2.09278">
        <ele>114</ele>
        <time>2014-02-23T09:06:04+01:00</time>
      </trkpt>
      <trkpt lat="48.82282" lon="2.09269">
        <ele>114</ele>
        <time>2014-02-23T09:06:08+01:00</time>
      </trkpt>
      <trkpt lat="48.82292" lon="2.09259">
        <ele>110</ele>
        <time>2014-02-23T09:06:12+01:00</time>
      </trkpt>
      <trkpt lat="48.82301" lon="2.09249">
        <ele>109</ele>
        <time>2014-02-23T09:06:16+01:00</time>
      </trkpt>
      <trkpt lat="48.82309" lon="2.09238">
        <ele>109</ele>
        <time>2014-02-23T09:06:20+01:00</time>
      </trkpt>
      <trkpt lat="48.82312" lon="2.09223">
        <ele>109</ele>
        <time>2014-02-23T09:06:24+01:00</time>
      </trkpt>
      <trkpt lat="48.82305" lon="2.0921">
        <ele>110</ele>
        <time>2014-02-23T09:06:28+01:00</time>
      </trkpt>
      <trkpt lat="48.82298" lon="2.09199">
        <ele>108</ele>
        <time>2014-02-23T09:06:32+01:00</time>
      </trkpt>
      <trkpt lat="48.82291" lon="2.09188">
        <ele>110</ele>
        <time>2014-02-23T09:06:36+01:00</time>
      </trkpt>
      <trkpt lat="48.82285" lon="2.09176">
        <ele>109</ele>
        <time>2014-02-23T09:06:40+01:00</time>
      </trkpt>
      <trkpt lat="48.82278" lon="2.09164">
        <ele>107</ele>
        <time>2014-02-23T09:06:44+01:00</time>
      </trkpt>
      <trkpt lat="48.8227" lon="2.09153">
        <ele>106</ele>
        <time>2014-02-23T09:06:48+01:00</time>
      </trkpt>
      <trkpt lat="48.82263" lon="2.0914">
        <ele>107</ele>
        <time>2014-02-23T09:06:52+01:00</time>
      </trkpt>
      <trkpt lat="48.82255" lon="2.09128">
        <ele>105</ele>
        <time>2014-02-23T09:06:56+01:00</time>
      </trkpt>
      <trkpt lat="48.82248" lon="2.09115">
        <ele>105</ele>
        <time>2014-02-23T09:07:00+01:00</time>
      </trkpt>
      <trkpt lat="48.8224" lon="2.09102">
        <ele>103</ele>
        <time>2014-02-23T09:07:04+01:00</time>
      </trkpt>
      <trkpt lat="48.82232" lon="2.09089">
        <ele>102</ele>
        <time>2014-02-23T09:07:08+01:00</time>
      </trkpt>
      <trkpt lat="48.82224" lon="2.09077">
        <ele>101</ele>
        <time>2014-02-23T09:07:12+01:00</time>
      </trkpt>
      <trkpt lat="48.82216" lon="2.09065">
        <ele>101</ele>
        <time>2014-02-23T09:07:16+01:00</time>
      </trkpt>
      <trkpt lat="48.82209" lon="2.09053">
        <ele>99</ele>
        <time>2014-02-23T09:07:21+01:00</time>
      </trkpt>
      <trkpt lat="48.82201" lon="2.0904">
        <ele>99</ele>
        <time>2014-02-23T09:07:24+01:00</time>
      </trkpt>
      <trkpt lat="48.82194" lon="2.09027">
        <ele>100</ele>
        <time>2014-02-23T09:07:28+01:00</time>
      </trkpt>
      <trkpt lat="48.82187" lon="2.09016">
        <ele>100</ele>
        <time>2014-02-23T09:07:38+01:00</time>
      </trkpt>
      <trkpt lat="48.82165" lon="2.08982">
        <ele>100</ele>
        <time>2014-02-23T09:07:44+01:00</time>
      </trkpt>
      <trkpt lat="48.82158" lon="2.08972">
        <ele>101</ele>
        <time>2014-02-23T09:07:48+01:00</time>
      </trkpt>
      <trkpt lat="48.82152" lon="2.08962">
        <ele>99</ele>
        <time>2014-02-23T09:07:52+01:00</time>
      </trkpt>
      <trkpt lat="48.82146" lon="2.08952">
        <ele>100</ele>
        <time>2014-02-23T09:07:56+01:00</time>
      </trkpt>
      <trkpt lat="48.8214" lon="2.0894">
        <ele>100</ele>
        <time>2014-02-23T09:08:00+01:00</time>
      </trkpt>
      <trkpt lat="48.82134" lon="2.08927">
        <ele>101</ele>
        <time>2014-02-23T09:08:04+01:00</time>
      </trkpt>
      <trkpt lat="48.82128" lon="2.08915">
        <ele>103</ele>
        <time>2014-02-23T09:08:09+01:00</time>
      </trkpt>
      <trkpt lat="48.82121" lon="2.08905">
        <ele>101</ele>
        <time>2014-02-23T09:08:13+01:00</time>
      </trkpt>
      <trkpt lat="48.82114" lon="2.08895">
        <ele>100</ele>
        <time>2014-02-23T09:08:16+01:00</time>
      </trkpt>
      <trkpt lat="48.82107" lon="2.08887">
        <ele>99</ele>
        <time>2014-02-23T09:08:20+01:00</time>
      </trkpt>
      <trkpt lat="48.821" lon="2.08876">
        <ele>99</ele>
        <time>2014-02-23T09:08:25+01:00</time>
      </trkpt>
      <trkpt lat="48.82094" lon="2.08865">
        <ele>98</ele>
        <time>2014-02-23T09:08:29+01:00</time>
      </trkpt>
      <trkpt lat="48.82087" lon="2.08853">
        <ele>98</ele>
        <time>2014-02-23T09:08:36+01:00</time>
      </trkpt>
      <trkpt lat="48.82074" lon="2.08828">
        <ele>99</ele>
        <time>2014-02-23T09:08:41+01:00</time>
      </trkpt>
      <trkpt lat="48.82067" lon="2.08816">
        <ele>100</ele>
        <time>2014-02-23T09:08:45+01:00</time>
      </trkpt>
      <trkpt lat="48.8206" lon="2.08803">
        <ele>99</ele>
        <time>2014-02-23T09:08:49+01:00</time>
      </trkpt>
      <trkpt lat="48.82053" lon="2.0879">
        <ele>101</ele>
        <time>2014-02-23T09:08:53+01:00</time>
      </trkpt>
      <trkpt lat="48.82046" lon="2.08779">
        <ele>100</ele>
        <time>2014-02-23T09:08:57+01:00</time>
      </trkpt>
      <trkpt lat="48.82038" lon="2.0877">
        <ele>98</ele>
        <time>2014-02-23T09:09:01+01:00</time>
      </trkpt>
      <trkpt lat="48.8203" lon="2.08758">
        <ele>98</ele>
        <time>2014-02-23T09:09:05+01:00</time>
      </trkpt>
      <trkpt lat="48.82023" lon="2.08746">
        <ele>97</ele>
        <time>2014-02-23T09:09:09+01:00</time>
      </trkpt>
      <trkpt lat="48.82015" lon="2.08734">
        <ele>98</ele>
        <time>2014-02-23T09:09:13+01:00</time>
      </trkpt>
      <trkpt lat="48.82008" lon="2.08722">
        <ele>96</ele>
        <time>2014-02-23T09:09:17+01:00</time>
      </trkpt>
      <trkpt lat="48.82002" lon="2.08708">
        <ele>97</ele>
        <time>2014-02-23T09:09:21+01:00</time>
      </trkpt>
      <trkpt lat="48.81995" lon="2.08695">
        <ele>97</ele>
        <time>2014-02-23T09:09:25+01:00</time>
      </trkpt>
      <trkpt lat="48.81988" lon="2.08686">
        <ele>99</ele>
        <time>2014-02-23T09:09:29+01:00</time>
      </trkpt>
      <trkpt lat="48.81981" lon="2.08676">
        <ele>100</ele>
        <time>2014-02-23T09:09:33+01:00</time>
      </trkpt>
      <trkpt lat="48.81974" lon="2.08666">
        <ele>99</ele>
        <time>2014-02-23T09:09:44+01:00</time>
      </trkpt>
      <trkpt lat="48.81954" lon="2.08634">
        <ele>99</ele>
        <time>2014-02-23T09:09:49+01:00</time>
      </trkpt>
      <trkpt lat="48.81946" lon="2.08622">
        <ele>98</ele>
        <time>2014-02-23T09:09:53+01:00</time>
      </trkpt>
      <trkpt lat="48.81937" lon="2.0861">
        <ele>99</ele>
        <time>2014-02-23T09:09:57+01:00</time>
      </trkpt>
      <trkpt lat="48.81931" lon="2.08598">
        <ele>98</ele>
        <time>2014-02-23T09:10:01+01:00</time>
      </trkpt>
      <trkpt lat="48.81925" lon="2.08586">
        <ele>99</ele>
        <time>2014-02-23T09:10:05+01:00</time>
      </trkpt>
      <trkpt lat="48.81919" lon="2.08576">
        <ele>97</ele>
        <time>2014-02-23T09:10:09+01:00</time>
      </trkpt>
      <trkpt lat="48.81912" lon="2.08565">
        <ele>94</ele>
        <time>2014-02-23T09:10:13+01:00</time>
      </trkpt>
      <trkpt lat="48.81905" lon="2.08553">
        <ele>95</ele>
        <time>2014-02-23T09:10:17+01:00</time>
      </trkpt>
      <trkpt lat="48.81898" lon="2.08542">
        <ele>96</ele>
        <time>2014-02-23T09:10:21+01:00</time>
      </trkpt>
      <trkpt lat="48.8189" lon="2.0853">
        <ele>97</ele>
        <time>2014-02-23T09:10:25+01:00</time>
      </trkpt>
      <trkpt lat="48.81884" lon="2.08517">
        <ele>97</ele>
        <time>2014-02-23T09:10:29+01:00</time>
      </trkpt>
      <trkpt lat="48.81877" lon="2.08508">
        <ele>97</ele>
        <time>2014-02-23T09:10:33+01:00</time>
      </trkpt>
      <trkpt lat="48.8187" lon="2.08497">
        <ele>95</ele>
        <time>2014-02-23T09:10:41+01:00</time>
      </trkpt>
      <trkpt lat="48.81855" lon="2.08476">
        <ele>95</ele>
        <time>2014-02-23T09:10:45+01:00</time>
      </trkpt>
      <trkpt lat="48.81849" lon="2.08464">
        <ele>96</ele>
        <time>2014-02-23T09:10:49+01:00</time>
      </trkpt>
      <trkpt lat="48.81843" lon="2.08452">
        <ele>96</ele>
        <time>2014-02-23T09:10:53+01:00</time>
      </trkpt>
      <trkpt lat="48.81836" lon="2.0844">
        <ele>95</ele>
        <time>2014-02-23T09:10:57+01:00</time>
      </trkpt>
      <trkpt lat="48.81828" lon="2.08427">
        <ele>93</ele>
        <time>2014-02-23T09:11:01+01:00</time>
      </trkpt>
      <trkpt lat="48.8182" lon="2.08416">
        <ele>93</ele>
        <time>2014-02-23T09:11:05+01:00</time>
      </trkpt>
      <trkpt lat="48.81813" lon="2.08405">
        <ele>93</ele>
        <time>2014-02-23T09:11:09+01:00</time>
      </trkpt>
      <trkpt lat="48.81805" lon="2.08393">
        <ele>93</ele>
        <time>2014-02-23T09:11:13+01:00</time>
      </trkpt>
      <trkpt lat="48.81799" lon="2.08382">
        <ele>94</ele>
        <time>2014-02-23T09:11:17+01:00</time>
      </trkpt>
      <trkpt lat="48.81792" lon="2.08371">
        <ele>94</ele>
        <time>2014-02-23T09:11:21+01:00</time>
      </trkpt>
      <trkpt lat="48.81786" lon="2.0836">
        <ele>95</ele>
        <time>2014-02-23T09:11:25+01:00</time>
      </trkpt>
      <trkpt lat="48.8178" lon="2.0835">
        <ele>94</ele>
        <time>2014-02-23T09:11:29+01:00</time>
      </trkpt>
      <trkpt lat="48.81773" lon="2.08339">
        <ele>94</ele>
        <time>2014-02-23T09:11:33+01:00</time>
      </trkpt>
      <trkpt lat="48.81766" lon="2.08328">
        <ele>95</ele>
        <time>2014-02-23T09:11:48+01:00</time>
      </trkpt>
      <trkpt lat="48.81742" lon="2.08288">
        <ele>97</ele>
        <time>2014-02-23T09:11:53+01:00</time>
      </trkpt>
      <trkpt lat="48.81736" lon="2.08279">
        <ele>97</ele>
        <time>2014-02-23T09:11:57+01:00</time>
      </trkpt>
      <trkpt lat="48.8173" lon="2.08269">
        <ele>98</ele>
        <time>2014-02-23T09:12:01+01:00</time>
      </trkpt>
      <trkpt lat="48.81725" lon="2.08259">
        <ele>100</ele>
        <time>2014-02-23T09:12:05+01:00</time>
      </trkpt>
      <trkpt lat="48.81719" lon="2.08248">
        <ele>100</ele>
        <time>2014-02-23T09:12:09+01:00</time>
      </trkpt>
      <trkpt lat="48.81712" lon="2.08239">
        <ele>98</ele>
        <time>2014-02-23T09:12:13+01:00</time>
      </trkpt>
      <trkpt lat="48.81705" lon="2.08229">
        <ele>98</ele>
        <time>2014-02-23T09:12:17+01:00</time>
      </trkpt>
      <trkpt lat="48.81698" lon="2.08218">
        <ele>98</ele>
        <time>2014-02-23T09:12:21+01:00</time>
      </trkpt>
      <trkpt lat="48.81692" lon="2.08209">
        <ele>97</ele>
        <time>2014-02-23T09:12:25+01:00</time>
      </trkpt>
      <trkpt lat="48.81685" lon="2.08198">
        <ele>96</ele>
        <time>2014-02-23T09:12:29+01:00</time>
      </trkpt>
      <trkpt lat="48.81677" lon="2.08189">
        <ele>96</ele>
        <time>2014-02-23T09:12:33+01:00</time>
      </trkpt>
      <trkpt lat="48.81668" lon="2.08191">
        <ele>95</ele>
        <time>2014-02-23T09:12:37+01:00</time>
      </trkpt>
      <trkpt lat="48.8166" lon="2.08199">
        <ele>95</ele>
        <time>2014-02-23T09:12:50+01:00</time>
      </trkpt>
      <trkpt lat="48.81636" lon="2.08224">
        <ele>96</ele>
        <time>2014-02-23T09:12:53+01:00</time>
      </trkpt>
      <trkpt lat="48.81628" lon="2.08233">
        <ele>99</ele>
        <time>2014-02-23T09:12:57+01:00</time>
      </trkpt>
      <trkpt lat="48.8162" lon="2.08242">
        <ele>103</ele>
        <time>2014-02-23T09:13:01+01:00</time>
      </trkpt>
      <trkpt lat="48.81612" lon="2.08251">
        <ele>104</ele>
        <time>2014-02-23T09:13:05+01:00</time>
      </trkpt>
      <trkpt lat="48.81603" lon="2.08258">
        <ele>105</ele>
        <time>2014-02-23T09:13:09+01:00</time>
      </trkpt>
      <trkpt lat="48.81593" lon="2.08264">
        <ele>106</ele>
        <time>2014-02-23T09:13:13+01:00</time>
      </trkpt>
      <trkpt lat="48.81584" lon="2.08271">
        <ele>105</ele>
        <time>2014-02-23T09:13:17+01:00</time>
      </trkpt>
      <trkpt lat="48.81574" lon="2.08278">
        <ele>108</ele>
        <time>2014-02-23T09:13:21+01:00</time>
      </trkpt>
      <trkpt lat="48.81565" lon="2.08285">
        <ele>110</ele>
        <time>2014-02-23T09:13:25+01:00</time>
      </trkpt>
      <trkpt lat="48.81555" lon="2.08294">
        <ele>112</ele>
        <time>2014-02-23T09:13:29+01:00</time>
      </trkpt>
      <trkpt lat="48.81546" lon="2.08302">
        <ele>109</ele>
        <time>2014-02-23T09:13:33+01:00</time>
      </trkpt>
      <trkpt lat="48.81538" lon="2.0831">
        <ele>109</ele>
        <time>2014-02-23T09:13:37+01:00</time>
      </trkpt>
      <trkpt lat="48.8153" lon="2.08315">
        <ele>109</ele>
        <time>2014-02-23T09:13:51+01:00</time>
      </trkpt>
      <trkpt lat="48.8152" lon="2.08308">
        <ele>110</ele>
        <time>2014-02-23T09:13:52+01:00</time>
      </trkpt>
      <trkpt lat="48.81497" lon="2.08276">
        <ele>109</ele>
        <time>2014-02-23T09:13:57+01:00</time>
      </trkpt>
      <trkpt lat="48.81489" lon="2.08267">
        <ele>110</ele>
        <time>2014-02-23T09:14:01+01:00</time>
      </trkpt>
      <trkpt lat="48.81479" lon="2.08261">
        <ele>111</ele>
        <time>2014-02-23T09:14:05+01:00</time>
      </trkpt>
      <trkpt lat="48.8147" lon="2.08256">
        <ele>112</ele>
        <time>2014-02-23T09:14:09+01:00</time>
      </trkpt>
      <trkpt lat="48.81461" lon="2.08253">
        <ele>112</ele>
        <time>2014-02-23T09:14:13+01:00</time>
      </trkpt>
      <trkpt lat="48.8145" lon="2.08251">
        <ele>113</ele>
        <time>2014-02-23T09:14:17+01:00</time>
      </trkpt>
      <trkpt lat="48.8144" lon="2.08251">
        <ele>113</ele>
        <time>2014-02-23T09:14:21+01:00</time>
      </trkpt>
      <trkpt lat="48.8143" lon="2.08252">
        <ele>113</ele>
        <time>2014-02-23T09:14:25+01:00</time>
      </trkpt>
      <trkpt lat="48.8142" lon="2.08254">
        <ele>112</ele>
        <time>2014-02-23T09:14:29+01:00</time>
      </trkpt>
      <trkpt lat="48.8141" lon="2.08258">
        <ele>112</ele>
        <time>2014-02-23T09:14:33+01:00</time>
      </trkpt>
      <trkpt lat="48.81401" lon="2.08263">
        <ele>114</ele>
        <time>2014-02-23T09:14:37+01:00</time>
      </trkpt>
      <trkpt lat="48.81392" lon="2.0827">
        <ele>114</ele>
        <time>2014-02-23T09:14:52+01:00</time>
      </trkpt>
      <trkpt lat="48.81371" lon="2.08293">
        <ele>118</ele>
        <time>2014-02-23T09:14:57+01:00</time>
      </trkpt>
      <trkpt lat="48.81365" lon="2.08304">
        <ele>116</ele>
        <time>2014-02-23T09:15:01+01:00</time>
      </trkpt>
      <trkpt lat="48.81358" lon="2.08317">
        <ele>116</ele>
        <time>2014-02-23T09:15:05+01:00</time>
      </trkpt>
      <trkpt lat="48.81353" lon="2.08332">
        <ele>116</ele>
        <time>2014-02-23T09:15:09+01:00</time>
      </trkpt>
      <trkpt lat="48.81348" lon="2.08348">
        <ele>115</ele>
        <time>2014-02-23T09:15:13+01:00</time>
      </trkpt>
      <trkpt lat="48.81345" lon="2.08365">
        <ele>115</ele>
        <time>2014-02-23T09:15:17+01:00</time>
      </trkpt>
      <trkpt lat="48.81343" lon="2.08382">
        <ele>114</ele>
        <time>2014-02-23T09:15:21+01:00</time>
      </trkpt>
      <trkpt lat="48.81343" lon="2.08399">
        <ele>114</ele>
        <time>2014-02-23T09:15:25+01:00</time>
      </trkpt>
      <trkpt lat="48.81343" lon="2.08415">
        <ele>114</ele>
        <time>2014-02-23T09:15:29+01:00</time>
      </trkpt>
      <trkpt lat="48.81345" lon="2.08431">
        <ele>114</ele>
        <time>2014-02-23T09:15:33+01:00</time>
      </trkpt>
      <trkpt lat="48.81346" lon="2.08448">
        <ele>114</ele>
        <time>2014-02-23T09:15:37+01:00</time>
      </trkpt>
      <trkpt lat="48.81348" lon="2.08464">
        <ele>114</ele>
        <time>2014-02-23T09:15:50+01:00</time>
      </trkpt>
      <trkpt lat="48.81327" lon="2.08506">
        <ele>112</ele>
        <time>2014-02-23T09:15:57+01:00</time>
      </trkpt>
      <trkpt lat="48.81317" lon="2.08515">
        <ele>113</ele>
        <time>2014-02-23T09:16:01+01:00</time>
      </trkpt>
      <trkpt lat="48.81309" lon="2.08523">
        <ele>112</ele>
        <time>2014-02-23T09:16:05+01:00</time>
      </trkpt>
      <trkpt lat="48.813" lon="2.08533">
        <ele>111</ele>
        <time>2014-02-23T09:16:09+01:00</time>
      </trkpt>
      <trkpt lat="48.8129" lon="2.08539">
        <ele>110</ele>
        <time>2014-02-23T09:16:13+01:00</time>
      </trkpt>
      <trkpt lat="48.81282" lon="2.08547">
        <ele>109</ele>
        <time>2014-02-23T09:16:17+01:00</time>
      </trkpt>
      <trkpt lat="48.81273" lon="2.08555">
        <ele>110</ele>
        <time>2014-02-23T09:16:21+01:00</time>
      </trkpt>
      <trkpt lat="48.81265" lon="2.08562">
        <ele>109</ele>
        <time>2014-02-23T09:16:25+01:00</time>
      </trkpt>
      <trkpt lat="48.81256" lon="2.08569">
        <ele>109</ele>
        <time>2014-02-23T09:16:29+01:00</time>
      </trkpt>
      <trkpt lat="48.81248" lon="2.08578">
        <ele>111</ele>
        <time>2014-02-23T09:16:33+01:00</time>
      </trkpt>
      <trkpt lat="48.81239" lon="2.08587">
        <ele>110</ele>
        <time>2014-02-23T09:16:37+01:00</time>
      </trkpt>
      <trkpt lat="48.8123" lon="2.08595">
        <ele>111</ele>
        <time>2014-02-23T09:16:41+01:00</time>
      </trkpt>
      <trkpt lat="48.81221" lon="2.08603">
        <ele>111</ele>
        <time>2014-02-23T09:16:54+01:00</time>
      </trkpt>
      <trkpt lat="48.81212" lon="2.08612">
        <ele>111</ele>
        <time>2014-02-23T09:16:54+01:00</time>
      </trkpt>
      <trkpt lat="48.8119" lon="2.08639">
        <ele>111</ele>
        <time>2014-02-23T09:17:01+01:00</time>
      </trkpt>
      <trkpt lat="48.8118" lon="2.08645">
        <ele>112</ele>
        <time>2014-02-23T09:17:05+01:00</time>
      </trkpt>
      <trkpt lat="48.81169" lon="2.08652">
        <ele>114</ele>
        <time>2014-02-23T09:17:09+01:00</time>
      </trkpt>
      <trkpt lat="48.81161" lon="2.08662">
        <ele>115</ele>
        <time>2014-02-23T09:17:13+01:00</time>
      </trkpt>
      <trkpt lat="48.81153" lon="2.08672">
        <ele>115</ele>
        <time>2014-02-23T09:17:17+01:00</time>
      </trkpt>
      <trkpt lat="48.81143" lon="2.08681">
        <ele>118</ele>
        <time>2014-02-23T09:17:21+01:00</time>
      </trkpt>
      <trkpt lat="48.81135" lon="2.08689">
        <ele>118</ele>
        <time>2014-02-23T09:17:25+01:00</time>
      </trkpt>
      <trkpt lat="48.81126" lon="2.08697">
        <ele>119</ele>
        <time>2014-02-23T09:17:29+01:00</time>
      </trkpt>
      <trkpt lat="48.81118" lon="2.08704">
        <ele>120</ele>
        <time>2014-02-23T09:17:33+01:00</time>
      </trkpt>
      <trkpt lat="48.8111" lon="2.08713">
        <ele>119</ele>
        <time>2014-02-23T09:17:37+01:00</time>
      </trkpt>
      <trkpt lat="48.81103" lon="2.08721">
        <ele>118</ele>
        <time>2014-02-23T09:17:41+01:00</time>
      </trkpt>
      <trkpt lat="48.81095" lon="2.08728">
        <ele>118</ele>
        <time>2014-02-23T09:17:49+01:00</time>
      </trkpt>
      <trkpt lat="48.81078" lon="2.08745">
        <ele>118</ele>
        <time>2014-02-23T09:17:53+01:00</time>
      </trkpt>
      <trkpt lat="48.8107" lon="2.08753">
        <ele>117</ele>
        <time>2014-02-23T09:17:57+01:00</time>
      </trkpt>
      <trkpt lat="48.81061" lon="2.0876">
        <ele>117</ele>
        <time>2014-02-23T09:18:01+01:00</time>
      </trkpt>
      <trkpt lat="48.81053" lon="2.08767">
        <ele>116</ele>
        <time>2014-02-23T09:18:05+01:00</time>
      </trkpt>
      <trkpt lat="48.81044" lon="2.08775">
        <ele>117</ele>
        <time>2014-02-23T09:18:09+01:00</time>
      </trkpt>
      <trkpt lat="48.81037" lon="2.08784">
        <ele>118</ele>
        <time>2014-02-23T09:18:13+01:00</time>
      </trkpt>
      <trkpt lat="48.81028" lon="2.08791">
        <ele>118</ele>
        <time>2014-02-23T09:18:17+01:00</time>
      </trkpt>
      <trkpt lat="48.81018" lon="2.08798">
        <ele>118</ele>
        <time>2014-02-23T09:18:21+01:00</time>
      </trkpt>
      <trkpt lat="48.8101" lon="2.0881">
        <ele>119</ele>
        <time>2014-02-23T09:18:25+01:00</time>
      </trkpt>
      <trkpt lat="48.81001" lon="2.08819">
        <ele>120</ele>
        <time>2014-02-23T09:18:29+01:00</time>
      </trkpt>
      <trkpt lat="48.80991" lon="2.08827">
        <ele>120</ele>
        <time>2014-02-23T09:18:33+01:00</time>
      </trkpt>
      <trkpt lat="48.80981" lon="2.08834">
        <ele>120</ele>
        <time>2014-02-23T09:18:37+01:00</time>
      </trkpt>
      <trkpt lat="48.80972" lon="2.08843">
        <ele>119</ele>
        <time>2014-02-23T09:18:41+01:00</time>
      </trkpt>
      <trkpt lat="48.80963" lon="2.08851">
        <ele>119</ele>
        <time>2014-02-23T09:18:45+01:00</time>
      </trkpt>
      <trkpt lat="48.80953" lon="2.08858">
        <ele>117</ele>
        <time>2014-02-23T09:19:01+01:00</time>
      </trkpt>
      <trkpt lat="48.8092" lon="2.08891">
        <ele>110</ele>
        <time>2014-02-23T09:19:05+01:00</time>
      </trkpt>
      <trkpt lat="48.80913" lon="2.08901">
        <ele>107</ele>
        <time>2014-02-23T09:19:09+01:00</time>
      </trkpt>
      <trkpt lat="48.80905" lon="2.08909">
        <ele>107</ele>
        <time>2014-02-23T09:19:13+01:00</time>
      </trkpt>
      <trkpt lat="48.80898" lon="2.08917">
        <ele>105</ele>
        <time>2014-02-23T09:19:17+01:00</time>
      </trkpt>
      <trkpt lat="48.80889" lon="2.08926">
        <ele>104</ele>
        <time>2014-02-23T09:19:21+01:00</time>
      </trkpt>
      <trkpt lat="48.80882" lon="2.08935">
        <ele>101</ele>
        <time>2014-02-23T09:19:25+01:00</time>
      </trkpt>
      <trkpt lat="48.80874" lon="2.08944">
        <ele>100</ele>
        <time>2014-02-23T09:19:29+01:00</time>
      </trkpt>
      <trkpt lat="48.80866" lon="2.08952">
        <ele>99</ele>
        <time>2014-02-23T09:19:33+01:00</time>
      </trkpt>
      <trkpt lat="48.80857" lon="2.0896">
        <ele>101</ele>
        <time>2014-02-23T09:19:37+01:00</time>
      </trkpt>
      <trkpt lat="48.80846" lon="2.08968">
        <ele>106</ele>
        <time>2014-02-23T09:19:41+01:00</time>
      </trkpt>
      <trkpt lat="48.80836" lon="2.08978">
        <ele>104</ele>
        <time>2014-02-23T09:19:45+01:00</time>
      </trkpt>
      <trkpt lat="48.80828" lon="2.08987">
        <ele>104</ele>
        <time>2014-02-23T09:20:03+01:00</time>
      </trkpt>
      <trkpt lat="48.8078" lon="2.09024">
        <ele>108</ele>
        <time>2014-02-23T09:20:09+01:00</time>
      </trkpt>
      <trkpt lat="48.8077" lon="2.09031">
        <ele>109</ele>
        <time>2014-02-23T09:20:13+01:00</time>
      </trkpt>
      <trkpt lat="48.80761" lon="2.0904">
        <ele>109</ele>
        <time>2014-02-23T09:20:17+01:00</time>
      </trkpt>
      <trkpt lat="48.80753" lon="2.09049">
        <ele>109</ele>
        <time>2014-02-23T09:20:21+01:00</time>
      </trkpt>
      <trkpt lat="48.80745" lon="2.09056">
        <ele>110</ele>
        <time>2014-02-23T09:20:25+01:00</time>
      </trkpt>
      <trkpt lat="48.80737" lon="2.09065">
        <ele>112</ele>
        <time>2014-02-23T09:20:29+01:00</time>
      </trkpt>
      <trkpt lat="48.80729" lon="2.09074">
        <ele>110</ele>
        <time>2014-02-23T09:20:33+01:00</time>
      </trkpt>
      <trkpt lat="48.80721" lon="2.09083">
        <ele>110</ele>
        <time>2014-02-23T09:20:37+01:00</time>
      </trkpt>
      <trkpt lat="48.80713" lon="2.0909">
        <ele>110</ele>
        <time>2014-02-23T09:20:41+01:00</time>
      </trkpt>
      <trkpt lat="48.80703" lon="2.09088">
        <ele>112</ele>
        <time>2014-02-23T09:20:45+01:00</time>
      </trkpt>
      <trkpt lat="48.80694" lon="2.0908">
        <ele>112</ele>
        <time>2014-02-23T09:20:49+01:00</time>
      </trkpt>
      <trkpt lat="48.80684" lon="2.09074">
        <ele>113</ele>
        <time>2014-02-23T09:21:07+01:00</time>
      </trkpt>
      <trkpt lat="48.80675" lon="2.09066">
        <ele>113</ele>
        <time>2014-02-23T09:21:08+01:00</time>
      </trkpt>
      <trkpt lat="48.8064" lon="2.09042">
        <ele>117</ele>
        <time>2014-02-23T09:21:13+01:00</time>
      </trkpt>
      <trkpt lat="48.80629" lon="2.09033">
        <ele>119</ele>
        <time>2014-02-23T09:21:17+01:00</time>
      </trkpt>
      <trkpt lat="48.8062" lon="2.09026">
        <ele>118</ele>
        <time>2014-02-23T09:21:21+01:00</time>
      </trkpt>
      <trkpt lat="48.80611" lon="2.09021">
        <ele>116</ele>
        <time>2014-02-23T09:21:25+01:00</time>
      </trkpt>
      <trkpt lat="48.80601" lon="2.09014">
        <ele>114</ele>
        <time>2014-02-23T09:21:29+01:00</time>
      </trkpt>
      <trkpt lat="48.80592" lon="2.09009">
        <ele>113</ele>
        <time>2014-02-23T09:21:33+01:00</time>
      </trkpt>
      <trkpt lat="48.80583" lon="2.09005">
        <ele>116</ele>
        <time>2014-02-23T09:21:37+01:00</time>
      </trkpt>
      <trkpt lat="48.80577" lon="2.09007">
        <ele>119</ele>
        <time>2014-02-23T09:21:41+01:00</time>
      </trkpt>
      <trkpt lat="48.8057" lon="2.09015">
        <ele>115</ele>
        <time>2014-02-23T09:21:45+01:00</time>
      </trkpt>
      <trkpt lat="48.80567" lon="2.09031">
        <ele>115</ele>
        <time>2014-02-23T09:21:49+01:00</time>
      </trkpt>
      <trkpt lat="48.80568" lon="2.09047">
        <ele>116</ele>
        <time>2014-02-23T09:21:53+01:00</time>
      </trkpt>
      <trkpt lat="48.80568" lon="2.09062">
        <ele>117</ele>
        <time>2014-02-23T09:22:09+01:00</time>
      </trkpt>
      <trkpt lat="48.80569" lon="2.09078">
        <ele>116</ele>
        <time>2014-02-23T09:22:10+01:00</time>
      </trkpt>
      <trkpt lat="48.80576" lon="2.09147">
        <ele>113</ele>
        <time>2014-02-23T09:22:17+01:00</time>
      </trkpt>
      <trkpt lat="48.80579" lon="2.09162">
        <ele>111</ele>
        <time>2014-02-23T09:22:21+01:00</time>
      </trkpt>
      <trkpt lat="48.80581" lon="2.09177">
        <ele>113</ele>
        <time>2014-02-23T09:22:25+01:00</time>
      </trkpt>
      <trkpt lat="48.80583" lon="2.09191">
        <ele>112</ele>
        <time>2014-02-23T09:22:29+01:00</time>
      </trkpt>
      <trkpt lat="48.80582" lon="2.09202">
        <ele>114</ele>
        <time>2014-02-23T09:22:33+01:00</time>
      </trkpt>
      <trkpt lat="48.80577" lon="2.09214">
        <ele>114</ele>
        <time>2014-02-23T09:22:37+01:00</time>
      </trkpt>
      <trkpt lat="48.80568" lon="2.09226">
        <ele>114</ele>
        <time>2014-02-23T09:22:41+01:00</time>
      </trkpt>
      <trkpt lat="48.80559" lon="2.09235">
        <ele>113</ele>
        <time>2014-02-23T09:22:45+01:00</time>
      </trkpt>
      <trkpt lat="48.80551" lon="2.09243">
        <ele>113</ele>
        <time>2014-02-23T09:22:49+01:00</time>
      </trkpt>
      <trkpt lat="48.80542" lon="2.09251">
        <ele>112</ele>
        <time>2014-02-23T09:22:53+01:00</time>
      </trkpt>
      <trkpt lat="48.80532" lon="2.09262">
        <ele>113</ele>
        <time>2014-02-23T09:22:57+01:00</time>
      </trkpt>
      <trkpt lat="48.80524" lon="2.09273">
        <ele>113</ele>
        <time>2014-02-23T09:23:09+01:00</time>
      </trkpt>
      <trkpt lat="48.80512" lon="2.09317">
        <ele>115</ele>
        <time>2014-02-23T09:23:13+01:00</time>
      </trkpt>
      <trkpt lat="48.80509" lon="2.09332">
        <ele>115</ele>
        <time>2014-02-23T09:23:17+01:00</time>
      </trkpt>
      <trkpt lat="48.80506" lon="2.09347">
        <ele>114</ele>
        <time>2014-02-23T09:23:21+01:00</time>
      </trkpt>
      <trkpt lat="48.80503" lon="2.09362">
        <ele>114</ele>
        <time>2014-02-23T09:23:25+01:00</time>
      </trkpt>
      <trkpt lat="48.805" lon="2.09377">
        <ele>115</ele>
        <time>2014-02-23T09:23:29+01:00</time>
      </trkpt>
      <trkpt lat="48.80498" lon="2.09392">
        <ele>114</ele>
        <time>2014-02-23T09:23:33+01:00</time>
      </trkpt>
      <trkpt lat="48.80495" lon="2.09407">
        <ele>114</ele>
        <time>2014-02-23T09:23:37+01:00</time>
      </trkpt>
      <trkpt lat="48.80492" lon="2.09421">
        <ele>114</ele>
        <time>2014-02-23T09:23:41+01:00</time>
      </trkpt>
      <trkpt lat="48.80488" lon="2.09434">
        <ele>114</ele>
        <time>2014-02-23T09:23:45+01:00</time>
      </trkpt>
      <trkpt lat="48.80482" lon="2.09445">
        <ele>113</ele>
        <time>2014-02-23T09:23:49+01:00</time>
      </trkpt>
      <trkpt lat="48.80476" lon="2.09455">
        <ele>113</ele>
        <time>2014-02-23T09:23:53+01:00</time>
      </trkpt>
      <trkpt lat="48.80469" lon="2.09465">
        <ele>113</ele>
        <time>2014-02-23T09:23:57+01:00</time>
      </trkpt>
      <trkpt lat="48.80463" lon="2.09475">
        <ele>114</ele>
        <time>2014-02-23T09:24:01+01:00</time>
      </trkpt>
      <trkpt lat="48.80457" lon="2.09487">
        <ele>113</ele>
        <time>2014-02-23T09:24:15+01:00</time>
      </trkpt>
      <trkpt lat="48.80438" lon="2.09537">
        <ele>115</ele>
        <time>2014-02-23T09:24:21+01:00</time>
      </trkpt>
      <trkpt lat="48.80436" lon="2.0955">
        <ele>115</ele>
        <time>2014-02-23T09:24:25+01:00</time>
      </trkpt>
      <trkpt lat="48.80438" lon="2.09563">
        <ele>116</ele>
        <time>2014-02-23T09:24:29+01:00</time>
      </trkpt>
      <trkpt lat="48.80446" lon="2.09566">
        <ele>117</ele>
        <time>2014-02-23T09:24:33+01:00</time>
      </trkpt>
      <trkpt lat="48.80455" lon="2.09569">
        <ele>117</ele>
        <time>2014-02-23T09:24:37+01:00</time>
      </trkpt>
      <trkpt lat="48.80462" lon="2.09577">
        <ele>117</ele>
        <time>2014-02-23T09:24:41+01:00</time>
      </trkpt>
      <trkpt lat="48.8047" lon="2.09584">
        <ele>117</ele>
        <time>2014-02-23T09:24:45+01:00</time>
      </trkpt>
      <trkpt lat="48.80479" lon="2.09589">
        <ele>117</ele>
        <time>2014-02-23T09:24:49+01:00</time>
      </trkpt>
      <trkpt lat="48.80487" lon="2.09596">
        <ele>117</ele>
        <time>2014-02-23T09:24:53+01:00</time>
      </trkpt>
      <trkpt lat="48.80497" lon="2.09601">
        <ele>115</ele>
        <time>2014-02-23T09:24:57+01:00</time>
      </trkpt>
      <trkpt lat="48.80506" lon="2.09608">
        <ele>114</ele>
        <time>2014-02-23T09:25:01+01:00</time>
      </trkpt>
      <trkpt lat="48.80516" lon="2.09613">
        <ele>113</ele>
        <time>2014-02-23T09:25:15+01:00</time>
      </trkpt>
      <trkpt lat="48.80559" lon="2.0964">
        <ele>110</ele>
        <time>2014-02-23T09:25:21+01:00</time>
      </trkpt>
      <trkpt lat="48.80569" lon="2.09647">
        <ele>109</ele>
        <time>2014-02-23T09:25:25+01:00</time>
      </trkpt>
      <trkpt lat="48.80578" lon="2.09654">
        <ele>109</ele>
        <time>2014-02-23T09:25:29+01:00</time>
      </trkpt>
      <trkpt lat="48.80589" lon="2.0966">
        <ele>108</ele>
        <time>2014-02-23T09:25:33+01:00</time>
      </trkpt>
      <trkpt lat="48.80598" lon="2.09666">
        <ele>108</ele>
        <time>2014-02-23T09:25:37+01:00</time>
      </trkpt>
      <trkpt lat="48.80607" lon="2.09672">
        <ele>108</ele>
        <time>2014-02-23T09:25:41+01:00</time>
      </trkpt>
      <trkpt lat="48.80617" lon="2.09678">
        <ele>108</ele>
        <time>2014-02-23T09:25:45+01:00</time>
      </trkpt>
      <trkpt lat="48.80626" lon="2.09683">
        <ele>108</ele>
        <time>2014-02-23T09:25:49+01:00</time>
      </trkpt>
      <trkpt lat="48.80636" lon="2.0969">
        <ele>108</ele>
        <time>2014-02-23T09:25:53+01:00</time>
      </trkpt>
      <trkpt lat="48.80647" lon="2.09695">
        <ele>108</ele>
        <time>2014-02-23T09:25:57+01:00</time>
      </trkpt>
      <trkpt lat="48.80657" lon="2.09702">
        <ele>108</ele>
        <time>2014-02-23T09:26:01+01:00</time>
      </trkpt>
      <trkpt lat="48.80666" lon="2.09708">
        <ele>107</ele>
        <time>2014-02-23T09:26:16+01:00</time>
      </trkpt>
      <trkpt lat="48.80675" lon="2.09713">
        <ele>107</ele>
        <time>2014-02-23T09:26:16+01:00</time>
      </trkpt>
      <trkpt lat="48.80702" lon="2.09724">
        <ele>105</ele>
        <time>2014-02-23T09:26:21+01:00</time>
      </trkpt>
      <trkpt lat="48.8071" lon="2.09728">
        <ele>105</ele>
        <time>2014-02-23T09:26:25+01:00</time>
      </trkpt>
      <trkpt lat="48.80719" lon="2.09735">
        <ele>107</ele>
        <time>2014-02-23T09:26:29+01:00</time>
      </trkpt>
      <trkpt lat="48.80728" lon="2.0974">
        <ele>106</ele>
        <time>2014-02-23T09:26:33+01:00</time>
      </trkpt>
      <trkpt lat="48.80738" lon="2.09745">
        <ele>107</ele>
        <time>2014-02-23T09:26:37+01:00</time>
      </trkpt>
      <trkpt lat="48.80747" lon="2.09752">
        <ele>108</ele>
        <time>2014-02-23T09:26:41+01:00</time>
      </trkpt>
      <trkpt lat="48.80757" lon="2.09756">
        <ele>109</ele>
        <time>2014-02-23T09:26:45+01:00</time>
      </trkpt>
      <trkpt lat="48.80768" lon="2.09763">
        <ele>109</ele>
        <time>2014-02-23T09:26:49+01:00</time>
      </trkpt>
      <trkpt lat="48.80777" lon="2.09771">
        <ele>110</ele>
        <time>2014-02-23T09:26:53+01:00</time>
      </trkpt>
      <trkpt lat="48.80786" lon="2.09779">
        <ele>108</ele>
        <time>2014-02-23T09:26:57+01:00</time>
      </trkpt>
      <trkpt lat="48.80795" lon="2.09785">
        <ele>107</ele>
        <time>2014-02-23T09:27:01+01:00</time>
      </trkpt>
      <trkpt lat="48.80805" lon="2.0979">
        <ele>106</ele>
        <time>2014-02-23T09:27:21+01:00</time>
      </trkpt>
      <trkpt lat="48.80853" lon="2.09816">
        <ele>105</ele>
        <time>2014-02-23T09:27:25+01:00</time>
      </trkpt>
      <trkpt lat="48.80863" lon="2.09824">
        <ele>103</ele>
        <time>2014-02-23T09:27:29+01:00</time>
      </trkpt>
      <trkpt lat="48.80872" lon="2.09829">
        <ele>103</ele>
        <time>2014-02-23T09:27:33+01:00</time>
      </trkpt>
      <trkpt lat="48.80881" lon="2.09835">
        <ele>105</ele>
        <time>2014-02-23T09:27:37+01:00</time>
      </trkpt>
      <trkpt lat="48.80891" lon="2.09841">
        <ele>105</ele>
        <time>2014-02-23T09:27:41+01:00</time>
      </trkpt>
      <trkpt lat="48.809" lon="2.09846">
        <ele>104</ele>
        <time>2014-02-23T09:27:45+01:00</time>
      </trkpt>
      <trkpt lat="48.80909" lon="2.0985">
        <ele>102</ele>
        <time>2014-02-23T09:27:49+01:00</time>
      </trkpt>
      <trkpt lat="48.80918" lon="2.09855">
        <ele>102</ele>
        <time>2014-02-23T09:27:53+01:00</time>
      </trkpt>
      <trkpt lat="48.80927" lon="2.09862">
        <ele>103</ele>
        <time>2014-02-23T09:27:57+01:00</time>
      </trkpt>
      <trkpt lat="48.80937" lon="2.09867">
        <ele>104</ele>
        <time>2014-02-23T09:28:01+01:00</time>
      </trkpt>
      <trkpt lat="48.80946" lon="2.09867">
        <ele>103</ele>
        <time>2014-02-23T09:28:05+01:00</time>
      </trkpt>
      <trkpt lat="48.80956" lon="2.09862">
        <ele>105</ele>
        <time>2014-02-23T09:28:13+01:00</time>
      </trkpt>
      <trkpt lat="48.80971" lon="2.09846">
        <ele>104</ele>
        <time>2014-02-23T09:28:17+01:00</time>
      </trkpt>
      <trkpt lat="48.80977" lon="2.09834">
        <ele>105</ele>
        <time>2014-02-23T09:28:21+01:00</time>
      </trkpt>
      <trkpt lat="48.80986" lon="2.09825">
        <ele>105</ele>
        <time>2014-02-23T09:28:25+01:00</time>
      </trkpt>
      <trkpt lat="48.80997" lon="2.09819">
        <ele>106</ele>
        <time>2014-02-23T09:28:29+01:00</time>
      </trkpt>
      <trkpt lat="48.81006" lon="2.09814">
        <ele>104</ele>
        <time>2014-02-23T09:28:33+01:00</time>
      </trkpt>
      <trkpt lat="48.81013" lon="2.09801">
        <ele>104</ele>
        <time>2014-02-23T09:28:37+01:00</time>
      </trkpt>
      <trkpt lat="48.81016" lon="2.09788">
        <ele>105</ele>
        <time>2014-02-23T09:28:41+01:00</time>
      </trkpt>
      <trkpt lat="48.81017" lon="2.09775">
        <ele>106</ele>
        <time>2014-02-23T09:28:45+01:00</time>
      </trkpt>
      <trkpt lat="48.8102" lon="2.0976">
        <ele>106</ele>
        <time>2014-02-23T09:28:49+01:00</time>
      </trkpt>
      <trkpt lat="48.81021" lon="2.09746">
        <ele>105</ele>
        <time>2014-02-23T09:28:53+01:00</time>
      </trkpt>
      <trkpt lat="48.81024" lon="2.09731">
        <ele>104</ele>
        <time>2014-02-23T09:28:57+01:00</time>
      </trkpt>
      <trkpt lat="48.81028" lon="2.09717">
        <ele>104</ele>
        <time>2014-02-23T09:29:01+01:00</time>
      </trkpt>
      <trkpt lat="48.81034" lon="2.09703">
        <ele>103</ele>
        <time>2014-02-23T09:29:05+01:00</time>
      </trkpt>
      <trkpt lat="48.81038" lon="2.0969">
        <ele>103</ele>
        <time>2014-02-23T09:29:16+01:00</time>
      </trkpt>
      <trkpt lat="48.81041" lon="2.09675">
        <ele>98</ele>
        <time>2014-02-23T09:29:16+01:00</time>
      </trkpt>
      <trkpt lat="48.81049" lon="2.09645">
        <ele>97</ele>
        <time>2014-02-23T09:29:21+01:00</time>
      </trkpt>
      <trkpt lat="48.81052" lon="2.0963">
        <ele>96</ele>
        <time>2014-02-23T09:29:25+01:00</time>
      </trkpt>
      <trkpt lat="48.81058" lon="2.09616">
        <ele>97</ele>
        <time>2014-02-23T09:29:29+01:00</time>
      </trkpt>
      <trkpt lat="48.81062" lon="2.09603">
        <ele>96</ele>
        <time>2014-02-23T09:29:33+01:00</time>
      </trkpt>
      <trkpt lat="48.81067" lon="2.09588">
        <ele>100</ele>
        <time>2014-02-23T09:29:37+01:00</time>
      </trkpt>
      <trkpt lat="48.81071" lon="2.09573">
        <ele>100</ele>
        <time>2014-02-23T09:29:41+01:00</time>
      </trkpt>
      <trkpt lat="48.81075" lon="2.09558">
        <ele>102</ele>
        <time>2014-02-23T09:29:45+01:00</time>
      </trkpt>
      <trkpt lat="48.81078" lon="2.09545">
        <ele>102</ele>
        <time>2014-02-23T09:29:49+01:00</time>
      </trkpt>
      <trkpt lat="48.81084" lon="2.09531">
        <ele>101</ele>
        <time>2014-02-23T09:29:53+01:00</time>
      </trkpt>
      <trkpt lat="48.81088" lon="2.09517">
        <ele>102</ele>
        <time>2014-02-23T09:29:57+01:00</time>
      </trkpt>
      <trkpt lat="48.81091" lon="2.09502">
        <ele>100</ele>
        <time>2014-02-23T09:30:01+01:00</time>
      </trkpt>
      <trkpt lat="48.81095" lon="2.09488">
        <ele>102</ele>
        <time>2014-02-23T09:30:05+01:00</time>
      </trkpt>
      <trkpt lat="48.81099" lon="2.09474">
        <ele>101</ele>
        <time>2014-02-23T09:30:09+01:00</time>
      </trkpt>
      <trkpt lat="48.81102" lon="2.09461">
        <ele>101</ele>
        <time>2014-02-23T09:30:17+01:00</time>
      </trkpt>
      <trkpt lat="48.81106" lon="2.09445">
        <ele>103</ele>
        <time>2014-02-23T09:30:18+01:00</time>
      </trkpt>
      <trkpt lat="48.8111" lon="2.0943">
        <ele>102</ele>
        <time>2014-02-23T09:30:21+01:00</time>
      </trkpt>
      <trkpt lat="48.81113" lon="2.09415">
        <ele>102</ele>
        <time>2014-02-23T09:30:25+01:00</time>
      </trkpt>
      <trkpt lat="48.81117" lon="2.09401">
        <ele>102</ele>
        <time>2014-02-23T09:30:29+01:00</time>
      </trkpt>
      <trkpt lat="48.81121" lon="2.09387">
        <ele>101</ele>
        <time>2014-02-23T09:30:33+01:00</time>
      </trkpt>
      <trkpt lat="48.81125" lon="2.09373">
        <ele>101</ele>
        <time>2014-02-23T09:30:37+01:00</time>
      </trkpt>
      <trkpt lat="48.81128" lon="2.09358">
        <ele>101</ele>
        <time>2014-02-23T09:30:41+01:00</time>
      </trkpt>
      <trkpt lat="48.81132" lon="2.09345">
        <ele>101</ele>
        <time>2014-02-23T09:30:45+01:00</time>
      </trkpt>
      <trkpt lat="48.81135" lon="2.09331">
        <ele>100</ele>
        <time>2014-02-23T09:30:49+01:00</time>
      </trkpt>
      <trkpt lat="48.81137" lon="2.09317">
        <ele>100</ele>
        <time>2014-02-23T09:30:53+01:00</time>
      </trkpt>
      <trkpt lat="48.8114" lon="2.09303">
        <ele>100</ele>
        <time>2014-02-23T09:30:57+01:00</time>
      </trkpt>
      <trkpt lat="48.81141" lon="2.09289">
        <ele>100</ele>
        <time>2014-02-23T09:31:01+01:00</time>
      </trkpt>
      <trkpt lat="48.81143" lon="2.09275">
        <ele>98</ele>
        <time>2014-02-23T09:31:05+01:00</time>
      </trkpt>
      <trkpt lat="48.81143" lon="2.0926">
        <ele>99</ele>
        <time>2014-02-23T09:31:09+01:00</time>
      </trkpt>
      <trkpt lat="48.81145" lon="2.09245">
        <ele>101</ele>
        <time>2014-02-23T09:31:13+01:00</time>
      </trkpt>
      <trkpt lat="48.81145" lon="2.09233">
        <ele>100</ele>
        <time>2014-02-23T09:31:21+01:00</time>
      </trkpt>
      <trkpt lat="48.81143" lon="2.09223">
        <ele>101</ele>
        <time>2014-02-23T09:31:21+01:00</time>
      </trkpt>
      <trkpt lat="48.81141" lon="2.09211">
        <ele>100</ele>
        <time>2014-02-23T09:31:25+01:00</time>
      </trkpt>
      <trkpt lat="48.81141" lon="2.09198">
        <ele>100</ele>
        <time>2014-02-23T09:31:29+01:00</time>
      </trkpt>
      <trkpt lat="48.81138" lon="2.09188">
        <ele>101</ele>
        <time>2014-02-23T09:31:33+01:00</time>
      </trkpt>
      <trkpt lat="48.81132" lon="2.09174">
        <ele>103</ele>
        <time>2014-02-23T09:31:37+01:00</time>
      </trkpt>
      <trkpt lat="48.81127" lon="2.09162">
        <ele>105</ele>
        <time>2014-02-23T09:31:41+01:00</time>
      </trkpt>
      <trkpt lat="48.81122" lon="2.09146">
        <ele>102</ele>
        <time>2014-02-23T09:31:45+01:00</time>
      </trkpt>
      <trkpt lat="48.81119" lon="2.09131">
        <ele>102</ele>
        <time>2014-02-23T09:31:49+01:00</time>
      </trkpt>
      <trkpt lat="48.81121" lon="2.09115">
        <ele>105</ele>
        <time>2014-02-23T09:31:53+01:00</time>
      </trkpt>
      <trkpt lat="48.81124" lon="2.091">
        <ele>106</ele>
        <time>2014-02-23T09:31:57+01:00</time>
      </trkpt>
      <trkpt lat="48.81127" lon="2.09083">
        <ele>108</ele>
        <time>2014-02-23T09:32:01+01:00</time>
      </trkpt>
      <trkpt lat="48.81131" lon="2.0907">
        <ele>107</ele>
        <time>2014-02-23T09:32:05+01:00</time>
      </trkpt>
      <trkpt lat="48.81134" lon="2.09056">
        <ele>110</ele>
        <time>2014-02-23T09:32:09+01:00</time>
      </trkpt>
      <trkpt lat="48.81136" lon="2.09041">
        <ele>108</ele>
        <time>2014-02-23T09:32:13+01:00</time>
      </trkpt>
      <trkpt lat="48.81139" lon="2.09027">
        <ele>109</ele>
        <time>2014-02-23T09:32:21+01:00</time>
      </trkpt>
      <trkpt lat="48.81143" lon="2.09">
        <ele>109</ele>
        <time>2014-02-23T09:32:25+01:00</time>
      </trkpt>
      <trkpt lat="48.81147" lon="2.08986">
        <ele>110</ele>
        <time>2014-02-23T09:32:29+01:00</time>
      </trkpt>
      <trkpt lat="48.81153" lon="2.08972">
        <ele>110</ele>
        <time>2014-02-23T09:32:33+01:00</time>
      </trkpt>
      <trkpt lat="48.81158" lon="2.08959">
        <ele>112</ele>
        <time>2014-02-23T09:32:37+01:00</time>
      </trkpt>
      <trkpt lat="48.81161" lon="2.08944">
        <ele>111</ele>
        <time>2014-02-23T09:32:41+01:00</time>
      </trkpt>
      <trkpt lat="48.81163" lon="2.0893">
        <ele>110</ele>
        <time>2014-02-23T09:32:45+01:00</time>
      </trkpt>
      <trkpt lat="48.81166" lon="2.08915">
        <ele>109</ele>
        <time>2014-02-23T09:32:49+01:00</time>
      </trkpt>
      <trkpt lat="48.81168" lon="2.08902">
        <ele>110</ele>
        <time>2014-02-23T09:32:53+01:00</time>
      </trkpt>
      <trkpt lat="48.81173" lon="2.08887">
        <ele>109</ele>
        <time>2014-02-23T09:32:57+01:00</time>
      </trkpt>
      <trkpt lat="48.81176" lon="2.08874">
        <ele>107</ele>
        <time>2014-02-23T09:33:01+01:00</time>
      </trkpt>
      <trkpt lat="48.81179" lon="2.08861">
        <ele>106</ele>
        <time>2014-02-23T09:33:05+01:00</time>
      </trkpt>
      <trkpt lat="48.81182" lon="2.08848">
        <ele>108</ele>
        <time>2014-02-23T09:33:09+01:00</time>
      </trkpt>
      <trkpt lat="48.81187" lon="2.08833">
        <ele>110</ele>
        <time>2014-02-23T09:33:13+01:00</time>
      </trkpt>
      <trkpt lat="48.81192" lon="2.0882">
        <ele>112</ele>
        <time>2014-02-23T09:33:22+01:00</time>
      </trkpt>
      <trkpt lat="48.81199" lon="2.08806">
        <ele>111</ele>
        <time>2014-02-23T09:33:22+01:00</time>
      </trkpt>
      <trkpt lat="48.81208" lon="2.08799">
        <ele>115</ele>
        <time>2014-02-23T09:33:25+01:00</time>
      </trkpt>
      <trkpt lat="48.81217" lon="2.08789">
        <ele>110</ele>
        <time>2014-02-23T09:33:29+01:00</time>
      </trkpt>
      <trkpt lat="48.81223" lon="2.08778">
        <ele>109</ele>
        <time>2014-02-23T09:33:33+01:00</time>
      </trkpt>
      <trkpt lat="48.8123" lon="2.08767">
        <ele>109</ele>
        <time>2014-02-23T09:33:37+01:00</time>
      </trkpt>
      <trkpt lat="48.81234" lon="2.08755">
        <ele>109</ele>
        <time>2014-02-23T09:33:41+01:00</time>
      </trkpt>
      <trkpt lat="48.81239" lon="2.08744">
        <ele>110</ele>
        <time>2014-02-23T09:33:45+01:00</time>
      </trkpt>
      <trkpt lat="48.81246" lon="2.08736">
        <ele>111</ele>
        <time>2014-02-23T09:33:49+01:00</time>
      </trkpt>
      <trkpt lat="48.81254" lon="2.08728">
        <ele>112</ele>
        <time>2014-02-23T09:33:53+01:00</time>
      </trkpt>
      <trkpt lat="48.81263" lon="2.08722">
        <ele>112</ele>
        <time>2014-02-23T09:33:57+01:00</time>
      </trkpt>
      <trkpt lat="48.81274" lon="2.08716">
        <ele>112</ele>
        <time>2014-02-23T09:34:01+01:00</time>
      </trkpt>
      <trkpt lat="48.81284" lon="2.08709">
        <ele>112</ele>
        <time>2014-02-23T09:34:05+01:00</time>
      </trkpt>
      <trkpt lat="48.81297" lon="2.08702">
        <ele>112</ele>
        <time>2014-02-23T09:34:09+01:00</time>
      </trkpt>
      <trkpt lat="48.81309" lon="2.08696">
        <ele>112</ele>
        <time>2014-02-23T09:34:13+01:00</time>
      </trkpt>
      <trkpt lat="48.81321" lon="2.08695">
        <ele>113</ele>
        <time>2014-02-23T09:34:27+01:00</time>
      </trkpt>
      <trkpt lat="48.81362" lon="2.08702">
        <ele>111</ele>
        <time>2014-02-23T09:34:33+01:00</time>
      </trkpt>
      <trkpt lat="48.81372" lon="2.08709">
        <ele>114</ele>
        <time>2014-02-23T09:34:37+01:00</time>
      </trkpt>
      <trkpt lat="48.81382" lon="2.08718">
        <ele>115</ele>
        <time>2014-02-23T09:34:41+01:00</time>
      </trkpt>
      <trkpt lat="48.8139" lon="2.08727">
        <ele>116</ele>
        <time>2014-02-23T09:34:45+01:00</time>
      </trkpt>
      <trkpt lat="48.81398" lon="2.08738">
        <ele>116</ele>
        <time>2014-02-23T09:34:49+01:00</time>
      </trkpt>
      <trkpt lat="48.81405" lon="2.0875">
        <ele>117</ele>
        <time>2014-02-23T09:34:53+01:00</time>
      </trkpt>
      <trkpt lat="48.81412" lon="2.0876">
        <ele>117</ele>
        <time>2014-02-23T09:34:57+01:00</time>
      </trkpt>
      <trkpt lat="48.81417" lon="2.08774">
        <ele>118</ele>
        <time>2014-02-23T09:35:01+01:00</time>
      </trkpt>
      <trkpt lat="48.81421" lon="2.08788">
        <ele>118</ele>
        <time>2014-02-23T09:35:05+01:00</time>
      </trkpt>
      <trkpt lat="48.81425" lon="2.08802">
        <ele>119</ele>
        <time>2014-02-23T09:35:09+01:00</time>
      </trkpt>
      <trkpt lat="48.81425" lon="2.08817">
        <ele>116</ele>
        <time>2014-02-23T09:35:13+01:00</time>
      </trkpt>
      <trkpt lat="48.81428" lon="2.08832">
        <ele>117</ele>
        <time>2014-02-23T09:35:17+01:00</time>
      </trkpt>
      <trkpt lat="48.8143" lon="2.08848">
        <ele>117</ele>
        <time>2014-02-23T09:35:24+01:00</time>
      </trkpt>
      <trkpt lat="48.81428" lon="2.0888">
        <ele>118</ele>
        <time>2014-02-23T09:35:29+01:00</time>
      </trkpt>
      <trkpt lat="48.81426" lon="2.08895">
        <ele>116</ele>
        <time>2014-02-23T09:35:33+01:00</time>
      </trkpt>
      <trkpt lat="48.81424" lon="2.08911">
        <ele>116</ele>
        <time>2014-02-23T09:35:37+01:00</time>
      </trkpt>
      <trkpt lat="48.81425" lon="2.08926">
        <ele>116</ele>
        <time>2014-02-23T09:35:41+01:00</time>
      </trkpt>
      <trkpt lat="48.81426" lon="2.08942">
        <ele>116</ele>
        <time>2014-02-23T09:35:45+01:00</time>
      </trkpt>
      <trkpt lat="48.81423" lon="2.08958">
        <ele>115</ele>
        <time>2014-02-23T09:35:49+01:00</time>
      </trkpt>
      <trkpt lat="48.81422" lon="2.08976">
        <ele>114</ele>
        <time>2014-02-23T09:35:53+01:00</time>
      </trkpt>
      <trkpt lat="48.8142" lon="2.08989">
        <ele>114</ele>
        <time>2014-02-23T09:35:57+01:00</time>
      </trkpt>
      <trkpt lat="48.81417" lon="2.08999">
        <ele>113</ele>
        <time>2014-02-23T09:36:01+01:00</time>
      </trkpt>
      <trkpt lat="48.81414" lon="2.09013">
        <ele>113</ele>
        <time>2014-02-23T09:36:05+01:00</time>
      </trkpt>
      <trkpt lat="48.81411" lon="2.09028">
        <ele>110</ele>
        <time>2014-02-23T09:36:09+01:00</time>
      </trkpt>
      <trkpt lat="48.81407" lon="2.09043">
        <ele>110</ele>
        <time>2014-02-23T09:36:13+01:00</time>
      </trkpt>
      <trkpt lat="48.81402" lon="2.09058">
        <ele>111</ele>
        <time>2014-02-23T09:36:17+01:00</time>
      </trkpt>
      <trkpt lat="48.81398" lon="2.09073">
        <ele>109</ele>
        <time>2014-02-23T09:36:29+01:00</time>
      </trkpt>
      <trkpt lat="48.81392" lon="2.0909">
        <ele>112</ele>
        <time>2014-02-23T09:36:30+01:00</time>
      </trkpt>
      <trkpt lat="48.81384" lon="2.0912">
        <ele>113</ele>
        <time>2014-02-23T09:36:33+01:00</time>
      </trkpt>
      <trkpt lat="48.8138" lon="2.09133">
        <ele>114</ele>
        <time>2014-02-23T09:36:37+01:00</time>
      </trkpt>
      <trkpt lat="48.81377" lon="2.09146">
        <ele>112</ele>
        <time>2014-02-23T09:36:41+01:00</time>
      </trkpt>
      <trkpt lat="48.81373" lon="2.0916">
        <ele>112</ele>
        <time>2014-02-23T09:36:45+01:00</time>
      </trkpt>
      <trkpt lat="48.81371" lon="2.09173">
        <ele>112</ele>
        <time>2014-02-23T09:36:49+01:00</time>
      </trkpt>
      <trkpt lat="48.81368" lon="2.09186">
        <ele>110</ele>
        <time>2014-02-23T09:36:53+01:00</time>
      </trkpt>
      <trkpt lat="48.81367" lon="2.09197">
        <ele>106</ele>
        <time>2014-02-23T09:36:57+01:00</time>
      </trkpt>
      <trkpt lat="48.81364" lon="2.09209">
        <ele>106</ele>
        <time>2014-02-23T09:37:01+01:00</time>
      </trkpt>
      <trkpt lat="48.81359" lon="2.09222">
        <ele>108</ele>
        <time>2014-02-23T09:37:05+01:00</time>
      </trkpt>
      <trkpt lat="48.81356" lon="2.09235">
        <ele>107</ele>
        <time>2014-02-23T09:37:09+01:00</time>
      </trkpt>
      <trkpt lat="48.81351" lon="2.09247">
        <ele>108</ele>
        <time>2014-02-23T09:37:13+01:00</time>
      </trkpt>
      <trkpt lat="48.81342" lon="2.0926">
        <ele>110</ele>
        <time>2014-02-23T09:37:17+01:00</time>
      </trkpt>
      <trkpt lat="48.8133" lon="2.09267">
        <ele>112</ele>
        <time>2014-02-23T09:37:35+01:00</time>
      </trkpt>
      <trkpt lat="48.8132" lon="2.09265">
        <ele>109</ele>
        <time>2014-02-23T09:37:35+01:00</time>
      </trkpt>
      <trkpt lat="48.81285" lon="2.09304">
        <ele>110</ele>
        <time>2014-02-23T09:37:41+01:00</time>
      </trkpt>
      <trkpt lat="48.81278" lon="2.09314">
        <ele>108</ele>
        <time>2014-02-23T09:37:45+01:00</time>
      </trkpt>
      <trkpt lat="48.8127" lon="2.09324">
        <ele>110</ele>
        <time>2014-02-23T09:37:49+01:00</time>
      </trkpt>
      <trkpt lat="48.81261" lon="2.09332">
        <ele>109</ele>
        <time>2014-02-23T09:37:53+01:00</time>
      </trkpt>
      <trkpt lat="48.81254" lon="2.09345">
        <ele>109</ele>
        <time>2014-02-23T09:37:57+01:00</time>
      </trkpt>
      <trkpt lat="48.8125" lon="2.09359">
        <ele>108</ele>
        <time>2014-02-23T09:38:01+01:00</time>
      </trkpt>
      <trkpt lat="48.81246" lon="2.09372">
        <ele>107</ele>
        <time>2014-02-23T09:38:05+01:00</time>
      </trkpt>
      <trkpt lat="48.81241" lon="2.09383">
        <ele>108</ele>
        <time>2014-02-23T09:38:09+01:00</time>
      </trkpt>
      <trkpt lat="48.81237" lon="2.09397">
        <ele>107</ele>
        <time>2014-02-23T09:38:13+01:00</time>
      </trkpt>
      <trkpt lat="48.81232" lon="2.09411">
        <ele>108</ele>
        <time>2014-02-23T09:38:17+01:00</time>
      </trkpt>
      <trkpt lat="48.81228" lon="2.09428">
        <ele>107</ele>
        <time>2014-02-23T09:38:21+01:00</time>
      </trkpt>
      <trkpt lat="48.81223" lon="2.09445">
        <ele>106</ele>
        <time>2014-02-23T09:38:39+01:00</time>
      </trkpt>
      <trkpt lat="48.81201" lon="2.09523">
        <ele>108</ele>
        <time>2014-02-23T09:38:45+01:00</time>
      </trkpt>
      <trkpt lat="48.81197" lon="2.09537">
        <ele>107</ele>
        <time>2014-02-23T09:38:49+01:00</time>
      </trkpt>
      <trkpt lat="48.81193" lon="2.09551">
        <ele>106</ele>
        <time>2014-02-23T09:38:53+01:00</time>
      </trkpt>
      <trkpt lat="48.8119" lon="2.09565">
        <ele>106</ele>
        <time>2014-02-23T09:38:57+01:00</time>
      </trkpt>
      <trkpt lat="48.81186" lon="2.09579">
        <ele>105</ele>
        <time>2014-02-23T09:39:01+01:00</time>
      </trkpt>
      <trkpt lat="48.81181" lon="2.09592">
        <ele>103</ele>
        <time>2014-02-23T09:39:05+01:00</time>
      </trkpt>
      <trkpt lat="48.81178" lon="2.09608">
        <ele>103</ele>
        <time>2014-02-23T09:39:09+01:00</time>
      </trkpt>
      <trkpt lat="48.81174" lon="2.09625">
        <ele>103</ele>
        <time>2014-02-23T09:39:13+01:00</time>
      </trkpt>
      <trkpt lat="48.81171" lon="2.09639">
        <ele>104</ele>
        <time>2014-02-23T09:39:17+01:00</time>
      </trkpt>
      <trkpt lat="48.81167" lon="2.09651">
        <ele>103</ele>
        <time>2014-02-23T09:39:21+01:00</time>
      </trkpt>
      <trkpt lat="48.81163" lon="2.09665">
        <ele>103</ele>
        <time>2014-02-23T09:39:25+01:00</time>
      </trkpt>
      <trkpt lat="48.81159" lon="2.09679">
        <ele>103</ele>
        <time>2014-02-23T09:39:44+01:00</time>
      </trkpt>
      <trkpt lat="48.81142" lon="2.09747">
        <ele>103</ele>
        <time>2014-02-23T09:39:49+01:00</time>
      </trkpt>
      <trkpt lat="48.81137" lon="2.09764">
        <ele>103</ele>
        <time>2014-02-23T09:39:53+01:00</time>
      </trkpt>
      <trkpt lat="48.81134" lon="2.09779">
        <ele>103</ele>
        <time>2014-02-23T09:39:57+01:00</time>
      </trkpt>
      <trkpt lat="48.81132" lon="2.09794">
        <ele>102</ele>
        <time>2014-02-23T09:40:01+01:00</time>
      </trkpt>
      <trkpt lat="48.8113" lon="2.09809">
        <ele>104</ele>
        <time>2014-02-23T09:40:05+01:00</time>
      </trkpt>
      <trkpt lat="48.81125" lon="2.09823">
        <ele>105</ele>
        <time>2014-02-23T09:40:09+01:00</time>
      </trkpt>
      <trkpt lat="48.81121" lon="2.09835">
        <ele>106</ele>
        <time>2014-02-23T09:40:13+01:00</time>
      </trkpt>
      <trkpt lat="48.81118" lon="2.09847">
        <ele>104</ele>
        <time>2014-02-23T09:40:17+01:00</time>
      </trkpt>
      <trkpt lat="48.81112" lon="2.0986">
        <ele>106</ele>
        <time>2014-02-23T09:40:21+01:00</time>
      </trkpt>
      <trkpt lat="48.81109" lon="2.09877">
        <ele>108</ele>
        <time>2014-02-23T09:40:25+01:00</time>
      </trkpt>
      <trkpt lat="48.81111" lon="2.09894">
        <ele>107</ele>
        <time>2014-02-23T09:40:29+01:00</time>
      </trkpt>
      <trkpt lat="48.81115" lon="2.0991">
        <ele>106</ele>
        <time>2014-02-23T09:40:46+01:00</time>
      </trkpt>
      <trkpt lat="48.81119" lon="2.09926">
        <ele>106</ele>
        <time>2014-02-23T09:40:47+01:00</time>
      </trkpt>
      <trkpt lat="48.81137" lon="2.09976">
        <ele>112</ele>
        <time>2014-02-23T09:40:53+01:00</time>
      </trkpt>
      <trkpt lat="48.81145" lon="2.09985">
        <ele>111</ele>
        <time>2014-02-23T09:40:58+01:00</time>
      </trkpt>
      <trkpt lat="48.81152" lon="2.09991">
        <ele>113</ele>
        <time>2014-02-23T09:41:01+01:00</time>
      </trkpt>
      <trkpt lat="48.8116" lon="2.09996">
        <ele>111</ele>
        <time>2014-02-23T09:41:05+01:00</time>
      </trkpt>
      <trkpt lat="48.81167" lon="2.10001">
        <ele>109</ele>
        <time>2014-02-23T09:41:09+01:00</time>
      </trkpt>
      <trkpt lat="48.81176" lon="2.10007">
        <ele>109</ele>
        <time>2014-02-23T09:41:13+01:00</time>
      </trkpt>
      <trkpt lat="48.81185" lon="2.10011">
        <ele>106</ele>
        <time>2014-02-23T09:41:17+01:00</time>
      </trkpt>
      <trkpt lat="48.81194" lon="2.10015">
        <ele>104</ele>
        <time>2014-02-23T09:41:21+01:00</time>
      </trkpt>
      <trkpt lat="48.81202" lon="2.10021">
        <ele>104</ele>
        <time>2014-02-23T09:41:25+01:00</time>
      </trkpt>
      <trkpt lat="48.81212" lon="2.10028">
        <ele>104</ele>
        <time>2014-02-23T09:41:29+01:00</time>
      </trkpt>
      <trkpt lat="48.81222" lon="2.10034">
        <ele>104</ele>
        <time>2014-02-23T09:41:33+01:00</time>
      </trkpt>
      <trkpt lat="48.81232" lon="2.1004">
        <ele>105</ele>
        <time>2014-02-23T09:41:51+01:00</time>
      </trkpt>
      <trkpt lat="48.81279" lon="2.10067">
        <ele>100</ele>
        <time>2014-02-23T09:41:57+01:00</time>
      </trkpt>
      <trkpt lat="48.81289" lon="2.10074">
        <ele>100</ele>
        <time>2014-02-23T09:42:01+01:00</time>
      </trkpt>
      <trkpt lat="48.81299" lon="2.10079">
        <ele>100</ele>
        <time>2014-02-23T09:42:07+01:00</time>
      </trkpt>
      <trkpt lat="48.81308" lon="2.10086">
        <ele>100</ele>
        <time>2014-02-23T09:42:10+01:00</time>
      </trkpt>
      <trkpt lat="48.81317" lon="2.1009">
        <ele>99</ele>
        <time>2014-02-23T09:42:13+01:00</time>
      </trkpt>
      <trkpt lat="48.81327" lon="2.10096">
        <ele>99</ele>
        <time>2014-02-23T09:42:17+01:00</time>
      </trkpt>
      <trkpt lat="48.81337" lon="2.10103">
        <ele>99</ele>
        <time>2014-02-23T09:42:21+01:00</time>
      </trkpt>
      <trkpt lat="48.81346" lon="2.10109">
        <ele>101</ele>
        <time>2014-02-23T09:42:25+01:00</time>
      </trkpt>
      <trkpt lat="48.81355" lon="2.10114">
        <ele>101</ele>
        <time>2014-02-23T09:42:29+01:00</time>
      </trkpt>
      <trkpt lat="48.81365" lon="2.10121">
        <ele>102</ele>
        <time>2014-02-23T09:42:33+01:00</time>
      </trkpt>
      <trkpt lat="48.81374" lon="2.10126">
        <ele>101</ele>
        <time>2014-02-23T09:42:37+01:00</time>
      </trkpt>
      <trkpt lat="48.81383" lon="2.10134">
        <ele>101</ele>
        <time>2014-02-23T09:42:56+01:00</time>
      </trkpt>
      <trkpt lat="48.81393" lon="2.1014">
        <ele>99</ele>
        <time>2014-02-23T09:42:56+01:00</time>
      </trkpt>
      <trkpt lat="48.81401" lon="2.10153">
        <ele>102</ele>
        <time>2014-02-23T09:42:57+01:00</time>
      </trkpt>
      <trkpt lat="48.81409" lon="2.10182">
        <ele>106</ele>
        <time>2014-02-23T09:43:01+01:00</time>
      </trkpt>
      <trkpt lat="48.8141" lon="2.1019">
        <ele>107</ele>
        <time>2014-02-23T09:43:05+01:00</time>
      </trkpt>
      <trkpt lat="48.81412" lon="2.10198">
        <ele>109</ele>
        <time>2014-02-23T09:43:09+01:00</time>
      </trkpt>
      <trkpt lat="48.81415" lon="2.10214">
        <ele>110</ele>
        <time>2014-02-23T09:43:13+01:00</time>
      </trkpt>
      <trkpt lat="48.81418" lon="2.10229">
        <ele>110</ele>
        <time>2014-02-23T09:43:17+01:00</time>
      </trkpt>
      <trkpt lat="48.81417" lon="2.10246">
        <ele>110</ele>
        <time>2014-02-23T09:43:21+01:00</time>
      </trkpt>
      <trkpt lat="48.81413" lon="2.10261">
        <ele>110</ele>
        <time>2014-02-23T09:43:25+01:00</time>
      </trkpt>
      <trkpt lat="48.81405" lon="2.10272">
        <ele>110</ele>
        <time>2014-02-23T09:43:29+01:00</time>
      </trkpt>
      <trkpt lat="48.81396" lon="2.10279">
        <ele>110</ele>
        <time>2014-02-23T09:43:33+01:00</time>
      </trkpt>
      <trkpt lat="48.81386" lon="2.10286">
        <ele>109</ele>
        <time>2014-02-23T09:43:37+01:00</time>
      </trkpt>
      <trkpt lat="48.81378" lon="2.10295">
        <ele>110</ele>
        <time>2014-02-23T09:43:41+01:00</time>
      </trkpt>
      <trkpt lat="48.81369" lon="2.10302">
        <ele>108</ele>
        <time>2014-02-23T09:43:51+01:00</time>
      </trkpt>
      <trkpt lat="48.81338" lon="2.10294">
        <ele>109</ele>
        <time>2014-02-23T09:43:57+01:00</time>
      </trkpt>
      <trkpt lat="48.81327" lon="2.10289">
        <ele>110</ele>
        <time>2014-02-23T09:44:01+01:00</time>
      </trkpt>
      <trkpt lat="48.81317" lon="2.10283">
        <ele>110</ele>
        <time>2014-02-23T09:44:05+01:00</time>
      </trkpt>
      <trkpt lat="48.81307" lon="2.10277">
        <ele>111</ele>
        <time>2014-02-23T09:44:10+01:00</time>
      </trkpt>
      <trkpt lat="48.81296" lon="2.1027">
        <ele>109</ele>
        <time>2014-02-23T09:44:14+01:00</time>
      </trkpt>
      <trkpt lat="48.81286" lon="2.10264">
        <ele>108</ele>
        <time>2014-02-23T09:44:18+01:00</time>
      </trkpt>
      <trkpt lat="48.81276" lon="2.10259">
        <ele>108</ele>
        <time>2014-02-23T09:44:22+01:00</time>
      </trkpt>
      <trkpt lat="48.81266" lon="2.10256">
        <ele>105</ele>
        <time>2014-02-23T09:44:26+01:00</time>
      </trkpt>
      <trkpt lat="48.81257" lon="2.1025">
        <ele>105</ele>
        <time>2014-02-23T09:44:30+01:00</time>
      </trkpt>
      <trkpt lat="48.81248" lon="2.10244">
        <ele>105</ele>
        <time>2014-02-23T09:44:34+01:00</time>
      </trkpt>
      <trkpt lat="48.81239" lon="2.10237">
        <ele>106</ele>
        <time>2014-02-23T09:44:38+01:00</time>
      </trkpt>
      <trkpt lat="48.81228" lon="2.1023">
        <ele>107</ele>
        <time>2014-02-23T09:44:42+01:00</time>
      </trkpt>
      <trkpt lat="48.81217" lon="2.10224">
        <ele>108</ele>
        <time>2014-02-23T09:45:02+01:00</time>
      </trkpt>
      <trkpt lat="48.81207" lon="2.10219">
        <ele>107</ele>
        <time>2014-02-23T09:45:03+01:00</time>
      </trkpt>
      <trkpt lat="48.8117" lon="2.10199">
        <ele>105</ele>
        <time>2014-02-23T09:45:06+01:00</time>
      </trkpt>
      <trkpt lat="48.81161" lon="2.10194">
        <ele>104</ele>
        <time>2014-02-23T09:45:10+01:00</time>
      </trkpt>
      <trkpt lat="48.81151" lon="2.10189">
        <ele>103</ele>
        <time>2014-02-23T09:45:14+01:00</time>
      </trkpt>
      <trkpt lat="48.81142" lon="2.10184">
        <ele>104</ele>
        <time>2014-02-23T09:45:18+01:00</time>
      </trkpt>
      <trkpt lat="48.81132" lon="2.10178">
        <ele>106</ele>
        <time>2014-02-23T09:45:22+01:00</time>
      </trkpt>
      <trkpt lat="48.81123" lon="2.10172">
        <ele>107</ele>
        <time>2014-02-23T09:45:26+01:00</time>
      </trkpt>
      <trkpt lat="48.81113" lon="2.10166">
        <ele>103</ele>
        <time>2014-02-23T09:45:30+01:00</time>
      </trkpt>
      <trkpt lat="48.81104" lon="2.10161">
        <ele>103</ele>
        <time>2014-02-23T09:45:34+01:00</time>
      </trkpt>
      <trkpt lat="48.81095" lon="2.10156">
        <ele>105</ele>
        <time>2014-02-23T09:45:38+01:00</time>
      </trkpt>
      <trkpt lat="48.81084" lon="2.10156">
        <ele>105</ele>
        <time>2014-02-23T09:45:42+01:00</time>
      </trkpt>
      <trkpt lat="48.81075" lon="2.10164">
        <ele>106</ele>
        <time>2014-02-23T09:46:03+01:00</time>
      </trkpt>
      <trkpt lat="48.81067" lon="2.10172">
        <ele>105</ele>
        <time>2014-02-23T09:46:03+01:00</time>
      </trkpt>
      <trkpt lat="48.81028" lon="2.10215">
        <ele>110</ele>
        <time>2014-02-23T09:46:10+01:00</time>
      </trkpt>
      <trkpt lat="48.81021" lon="2.10228">
        <ele>110</ele>
        <time>2014-02-23T09:46:14+01:00</time>
      </trkpt>
      <trkpt lat="48.81016" lon="2.10242">
        <ele>108</ele>
        <time>2014-02-23T09:46:18+01:00</time>
      </trkpt>
      <trkpt lat="48.81011" lon="2.10255">
        <ele>109</ele>
        <time>2014-02-23T09:46:22+01:00</time>
      </trkpt>
      <trkpt lat="48.81008" lon="2.10268">
        <ele>108</ele>
        <time>2014-02-23T09:46:26+01:00</time>
      </trkpt>
      <trkpt lat="48.81004" lon="2.10279">
        <ele>107</ele>
        <time>2014-02-23T09:46:30+01:00</time>
      </trkpt>
      <trkpt lat="48.81001" lon="2.10291">
        <ele>109</ele>
        <time>2014-02-23T09:46:34+01:00</time>
      </trkpt>
      <trkpt lat="48.80997" lon="2.10305">
        <ele>110</ele>
        <time>2014-02-23T09:46:38+01:00</time>
      </trkpt>
      <trkpt lat="48.80993" lon="2.10317">
        <ele>108</ele>
        <time>2014-02-23T09:46:42+01:00</time>
      </trkpt>
      <trkpt lat="48.80989" lon="2.10329">
        <ele>108</ele>
        <time>2014-02-23T09:46:46+01:00</time>
      </trkpt>
      <trkpt lat="48.80986" lon="2.10342">
        <ele>106</ele>
        <time>2014-02-23T09:47:05+01:00</time>
      </trkpt>
      <trkpt lat="48.80967" lon="2.10412">
        <ele>107</ele>
        <time>2014-02-23T09:47:10+01:00</time>
      </trkpt>
      <trkpt lat="48.80963" lon="2.10426">
        <ele>106</ele>
        <time>2014-02-23T09:47:14+01:00</time>
      </trkpt>
      <trkpt lat="48.80959" lon="2.10438">
        <ele>104</ele>
        <time>2014-02-23T09:47:18+01:00</time>
      </trkpt>
      <trkpt lat="48.80954" lon="2.1045">
        <ele>104</ele>
        <time>2014-02-23T09:47:22+01:00</time>
      </trkpt>
      <trkpt lat="48.8095" lon="2.10465">
        <ele>101</ele>
        <time>2014-02-23T09:47:26+01:00</time>
      </trkpt>
      <trkpt lat="48.80947" lon="2.10482">
        <ele>104</ele>
        <time>2014-02-23T09:47:30+01:00</time>
      </trkpt>
      <trkpt lat="48.80944" lon="2.10495">
        <ele>105</ele>
        <time>2014-02-23T09:47:34+01:00</time>
      </trkpt>
      <trkpt lat="48.80939" lon="2.10514">
        <ele>105</ele>
        <time>2014-02-23T09:47:38+01:00</time>
      </trkpt>
      <trkpt lat="48.80934" lon="2.10531">
        <ele>103</ele>
        <time>2014-02-23T09:47:42+01:00</time>
      </trkpt>
      <trkpt lat="48.8093" lon="2.10547">
        <ele>104</ele>
        <time>2014-02-23T09:47:46+01:00</time>
      </trkpt>
      <trkpt lat="48.80925" lon="2.10562">
        <ele>106</ele>
        <time>2014-02-23T09:48:03+01:00</time>
      </trkpt>
      <trkpt lat="48.80919" lon="2.10577">
        <ele>105</ele>
        <time>2014-02-23T09:48:04+01:00</time>
      </trkpt>
      <trkpt lat="48.80903" lon="2.10638">
        <ele>104</ele>
        <time>2014-02-23T09:48:10+01:00</time>
      </trkpt>
      <trkpt lat="48.809" lon="2.10652">
        <ele>107</ele>
        <time>2014-02-23T09:48:14+01:00</time>
      </trkpt>
      <trkpt lat="48.80896" lon="2.10664">
        <ele>108</ele>
        <time>2014-02-23T09:48:18+01:00</time>
      </trkpt>
      <trkpt lat="48.80892" lon="2.10676">
        <ele>108</ele>
        <time>2014-02-23T09:48:22+01:00</time>
      </trkpt>
      <trkpt lat="48.8089" lon="2.10692">
        <ele>106</ele>
        <time>2014-02-23T09:48:26+01:00</time>
      </trkpt>
      <trkpt lat="48.80888" lon="2.10707">
        <ele>107</ele>
        <time>2014-02-23T09:48:30+01:00</time>
      </trkpt>
      <trkpt lat="48.80887" lon="2.10721">
        <ele>106</ele>
        <time>2014-02-23T09:48:34+01:00</time>
      </trkpt>
      <trkpt lat="48.80885" lon="2.10738">
        <ele>106</ele>
        <time>2014-02-23T09:48:38+01:00</time>
      </trkpt>
      <trkpt lat="48.80884" lon="2.10756">
        <ele>105</ele>
        <time>2014-02-23T09:48:42+01:00</time>
      </trkpt>
      <trkpt lat="48.80885" lon="2.10772">
        <ele>105</ele>
        <time>2014-02-23T09:48:46+01:00</time>
      </trkpt>
      <trkpt lat="48.80886" lon="2.10788">
        <ele>103</ele>
        <time>2014-02-23T09:48:50+01:00</time>
      </trkpt>
      <trkpt lat="48.80886" lon="2.10804">
        <ele>104</ele>
        <time>2014-02-23T09:49:02+01:00</time>
      </trkpt>
      <trkpt lat="48.80887" lon="2.10819">
        <ele>105</ele>
        <time>2014-02-23T09:49:02+01:00</time>
      </trkpt>
      <trkpt lat="48.8089" lon="2.1085">
        <ele>108</ele>
        <time>2014-02-23T09:49:06+01:00</time>
      </trkpt>
      <trkpt lat="48.80896" lon="2.10863">
        <ele>108</ele>
        <time>2014-02-23T09:49:10+01:00</time>
      </trkpt>
      <trkpt lat="48.80905" lon="2.1087">
        <ele>108</ele>
        <time>2014-02-23T09:49:14+01:00</time>
      </trkpt>
      <trkpt lat="48.8091" lon="2.10871">
        <ele>108</ele>
        <time>2014-02-23T09:49:18+01:00</time>
      </trkpt>
      <trkpt lat="48.80923" lon="2.10878">
        <ele>109</ele>
        <time>2014-02-23T09:49:30+01:00</time>
      </trkpt>
      <trkpt lat="48.80927" lon="2.10881">
        <ele>108</ele>
        <time>2014-02-23T09:49:34+01:00</time>
      </trkpt>
      <trkpt lat="48.80931" lon="2.10884">
        <ele>108</ele>
        <time>2014-02-23T09:49:38+01:00</time>
      </trkpt>
      <trkpt lat="48.8094" lon="2.1089">
        <ele>108</ele>
        <time>2014-02-23T09:49:46+01:00</time>
      </trkpt>
      <trkpt lat="48.80944" lon="2.10893">
        <ele>108</ele>
        <time>2014-02-23T09:49:50+01:00</time>
      </trkpt>
      <trkpt lat="48.80949" lon="2.10895">
        <ele>109</ele>
        <time>2014-02-23T09:49:54+01:00</time>
      </trkpt>
      <trkpt lat="48.80959" lon="2.109">
        <ele>108</ele>
        <time>2014-02-23T09:50:06+01:00</time>
      </trkpt>
      <trkpt lat="48.80964" lon="2.10904">
        <ele>109</ele>
        <time>2014-02-23T09:50:06+01:00</time>
      </trkpt>
      <trkpt lat="48.80969" lon="2.10906">
        <ele>109</ele>
        <time>2014-02-23T09:50:10+01:00</time>
      </trkpt>
      <trkpt lat="48.80974" lon="2.10909">
        <ele>109</ele>
        <time>2014-02-23T09:50:14+01:00</time>
      </trkpt>
      <trkpt lat="48.80983" lon="2.10915">
        <ele>109</ele>
        <time>2014-02-23T09:50:22+01:00</time>
      </trkpt>
      <trkpt lat="48.80987" lon="2.10918">
        <ele>107</ele>
        <time>2014-02-23T09:50:26+01:00</time>
      </trkpt>
      <trkpt lat="48.80996" lon="2.10922">
        <ele>107</ele>
        <time>2014-02-23T09:50:34+01:00</time>
      </trkpt>
      <trkpt lat="48.81001" lon="2.10926">
        <ele>109</ele>
        <time>2014-02-23T09:50:38+01:00</time>
      </trkpt>
      <trkpt lat="48.81008" lon="2.10931">
        <ele>110</ele>
        <time>2014-02-23T09:50:42+01:00</time>
      </trkpt>
      <trkpt lat="48.81012" lon="2.10933">
        <ele>109</ele>
        <time>2014-02-23T09:50:46+01:00</time>
      </trkpt>
      <trkpt lat="48.81013" lon="2.10933">
        <ele>110</ele>
        <time>2014-02-23T09:50:50+01:00</time>
      </trkpt>
      <trkpt lat="48.81019" lon="2.10938">
        <ele>110</ele>
        <time>2014-02-23T09:51:10+01:00</time>
      </trkpt>
      <trkpt lat="48.81026" lon="2.10941">
        <ele>110</ele>
        <time>2014-02-23T09:51:15+01:00</time>
      </trkpt>
      <trkpt lat="48.81033" lon="2.10944">
        <ele>109</ele>
        <time>2014-02-23T09:51:18+01:00</time>
      </trkpt>
      <trkpt lat="48.81039" lon="2.10947">
        <ele>109</ele>
        <time>2014-02-23T09:51:22+01:00</time>
      </trkpt>
      <trkpt lat="48.81045" lon="2.10951">
        <ele>108</ele>
        <time>2014-02-23T09:51:26+01:00</time>
      </trkpt>
      <trkpt lat="48.81052" lon="2.10955">
        <ele>110</ele>
        <time>2014-02-23T09:51:30+01:00</time>
      </trkpt>
      <trkpt lat="48.81062" lon="2.10962">
        <ele>107</ele>
        <time>2014-02-23T09:51:34+01:00</time>
      </trkpt>
      <trkpt lat="48.81071" lon="2.1097">
        <ele>106</ele>
        <time>2014-02-23T09:51:38+01:00</time>
      </trkpt>
      <trkpt lat="48.81081" lon="2.10977">
        <ele>108</ele>
        <time>2014-02-23T09:51:42+01:00</time>
      </trkpt>
      <trkpt lat="48.81089" lon="2.10984">
        <ele>108</ele>
        <time>2014-02-23T09:51:46+01:00</time>
      </trkpt>
      <trkpt lat="48.81097" lon="2.10992">
        <ele>109</ele>
        <time>2014-02-23T09:51:50+01:00</time>
      </trkpt>
      <trkpt lat="48.81106" lon="2.10999">
        <ele>108</ele>
        <time>2014-02-23T09:51:54+01:00</time>
      </trkpt>
      <trkpt lat="48.81114" lon="2.11006">
        <ele>106</ele>
        <time>2014-02-23T09:52:07+01:00</time>
      </trkpt>
      <trkpt lat="48.81153" lon="2.11029">
        <ele>105</ele>
        <time>2014-02-23T09:52:14+01:00</time>
      </trkpt>
      <trkpt lat="48.81164" lon="2.11035">
        <ele>105</ele>
        <time>2014-02-23T09:52:18+01:00</time>
      </trkpt>
      <trkpt lat="48.81174" lon="2.11041">
        <ele>107</ele>
        <time>2014-02-23T09:52:22+01:00</time>
      </trkpt>
      <trkpt lat="48.81182" lon="2.11048">
        <ele>106</ele>
        <time>2014-02-23T09:52:26+01:00</time>
      </trkpt>
      <trkpt lat="48.81193" lon="2.11053">
        <ele>106</ele>
        <time>2014-02-23T09:52:30+01:00</time>
      </trkpt>
      <trkpt lat="48.81205" lon="2.11059">
        <ele>107</ele>
        <time>2014-02-23T09:52:34+01:00</time>
      </trkpt>
      <trkpt lat="48.81216" lon="2.11065">
        <ele>110</ele>
        <time>2014-02-23T09:52:38+01:00</time>
      </trkpt>
      <trkpt lat="48.81229" lon="2.11073">
        <ele>113</ele>
        <time>2014-02-23T09:52:42+01:00</time>
      </trkpt>
      <trkpt lat="48.81241" lon="2.11079">
        <ele>114</ele>
        <time>2014-02-23T09:52:46+01:00</time>
      </trkpt>
      <trkpt lat="48.81253" lon="2.11083">
        <ele>112</ele>
        <time>2014-02-23T09:52:50+01:00</time>
      </trkpt>
      <trkpt lat="48.81263" lon="2.11088">
        <ele>114</ele>
        <time>2014-02-23T09:52:54+01:00</time>
      </trkpt>
      <trkpt lat="48.81273" lon="2.11093">
        <ele>111</ele>
        <time>2014-02-23T09:53:12+01:00</time>
      </trkpt>
      <trkpt lat="48.81282" lon="2.11102">
        <ele>113</ele>
        <time>2014-02-23T09:53:13+01:00</time>
      </trkpt>
      <trkpt lat="48.81319" lon="2.11132">
        <ele>114</ele>
        <time>2014-02-23T09:53:18+01:00</time>
      </trkpt>
      <trkpt lat="48.81328" lon="2.11137">
        <ele>113</ele>
        <time>2014-02-23T09:53:22+01:00</time>
      </trkpt>
      <trkpt lat="48.81337" lon="2.11142">
        <ele>114</ele>
        <time>2014-02-23T09:53:26+01:00</time>
      </trkpt>
      <trkpt lat="48.81346" lon="2.11147">
        <ele>116</ele>
        <time>2014-02-23T09:53:30+01:00</time>
      </trkpt>
      <trkpt lat="48.81356" lon="2.11153">
        <ele>115</ele>
        <time>2014-02-23T09:53:34+01:00</time>
      </trkpt>
      <trkpt lat="48.81366" lon="2.11159">
        <ele>115</ele>
        <time>2014-02-23T09:53:38+01:00</time>
      </trkpt>
      <trkpt lat="48.81376" lon="2.11164">
        <ele>115</ele>
        <time>2014-02-23T09:53:42+01:00</time>
      </trkpt>
      <trkpt lat="48.81385" lon="2.11172">
        <ele>116</ele>
        <time>2014-02-23T09:53:46+01:00</time>
      </trkpt>
      <trkpt lat="48.81395" lon="2.11177">
        <ele>118</ele>
        <time>2014-02-23T09:53:50+01:00</time>
      </trkpt>
      <trkpt lat="48.81405" lon="2.11184">
        <ele>119</ele>
        <time>2014-02-23T09:53:54+01:00</time>
      </trkpt>
      <trkpt lat="48.81414" lon="2.11188">
        <ele>117</ele>
        <time>2014-02-23T09:53:58+01:00</time>
      </trkpt>
      <trkpt lat="48.81423" lon="2.11192">
        <ele>117</ele>
        <time>2014-02-23T09:54:18+01:00</time>
      </trkpt>
      <trkpt lat="48.81467" lon="2.11221">
        <ele>119</ele>
        <time>2014-02-23T09:54:22+01:00</time>
      </trkpt>
      <trkpt lat="48.81476" lon="2.11227">
        <ele>120</ele>
        <time>2014-02-23T09:54:26+01:00</time>
      </trkpt>
      <trkpt lat="48.81486" lon="2.11233">
        <ele>121</ele>
        <time>2014-02-23T09:54:30+01:00</time>
      </trkpt>
      <trkpt lat="48.81495" lon="2.11237">
        <ele>120</ele>
        <time>2014-02-23T09:54:34+01:00</time>
      </trkpt>
      <trkpt lat="48.81505" lon="2.11241">
        <ele>122</ele>
        <time>2014-02-23T09:54:38+01:00</time>
      </trkpt>
      <trkpt lat="48.81515" lon="2.11246">
        <ele>123</ele>
        <time>2014-02-23T09:54:42+01:00</time>
      </trkpt>
      <trkpt lat="48.81524" lon="2.11252">
        <ele>124</ele>
        <time>2014-02-23T09:54:46+01:00</time>
      </trkpt>
      <trkpt lat="48.81534" lon="2.11258">
        <ele>123</ele>
        <time>2014-02-23T09:54:50+01:00</time>
      </trkpt>
      <trkpt lat="48.81545" lon="2.1126">
        <ele>123</ele>
        <time>2014-02-23T09:54:54+01:00</time>
      </trkpt>
      <trkpt lat="48.81556" lon="2.11263">
        <ele>122</ele>
        <time>2014-02-23T09:54:58+01:00</time>
      </trkpt>
      <trkpt lat="48.81565" lon="2.11267">
        <ele>122</ele>
        <time>2014-02-23T09:55:02+01:00</time>
      </trkpt>
      <trkpt lat="48.81575" lon="2.11271">
        <ele>121</ele>
        <time>2014-02-23T09:55:20+01:00</time>
      </trkpt>
      <trkpt lat="48.81585" lon="2.11276">
        <ele>124</ele>
        <time>2014-02-23T09:55:21+01:00</time>
      </trkpt>
      <trkpt lat="48.81625" lon="2.11299">
        <ele>128</ele>
        <time>2014-02-23T09:55:26+01:00</time>
      </trkpt>
      <trkpt lat="48.81635" lon="2.11305">
        <ele>126</ele>
        <time>2014-02-23T09:55:30+01:00</time>
      </trkpt>
      <trkpt lat="48.81645" lon="2.11311">
        <ele>125</ele>
        <time>2014-02-23T09:55:34+01:00</time>
      </trkpt>
      <trkpt lat="48.81656" lon="2.11316">
        <ele>125</ele>
        <time>2014-02-23T09:55:38+01:00</time>
      </trkpt>
      <trkpt lat="48.81666" lon="2.11321">
        <ele>126</ele>
        <time>2014-02-23T09:55:42+01:00</time>
      </trkpt>
      <trkpt lat="48.81675" lon="2.11327">
        <ele>127</ele>
        <time>2014-02-23T09:55:46+01:00</time>
      </trkpt>
      <trkpt lat="48.81684" lon="2.11333">
        <ele>124</ele>
        <time>2014-02-23T09:55:50+01:00</time>
      </trkpt>
      <trkpt lat="48.81694" lon="2.11337">
        <ele>125</ele>
        <time>2014-02-23T09:55:54+01:00</time>
      </trkpt>
      <trkpt lat="48.81704" lon="2.11343">
        <ele>126</ele>
        <time>2014-02-23T09:55:58+01:00</time>
      </trkpt>
      <trkpt lat="48.81713" lon="2.11347">
        <ele>126</ele>
        <time>2014-02-23T09:56:02+01:00</time>
      </trkpt>
      <trkpt lat="48.81722" lon="2.11355">
        <ele>128</ele>
        <time>2014-02-23T09:56:06+01:00</time>
      </trkpt>
      <trkpt lat="48.8173" lon="2.1136">
        <ele>128</ele>
        <time>2014-02-23T09:56:27+01:00</time>
      </trkpt>
      <trkpt lat="48.81738" lon="2.11366">
        <ele>126</ele>
        <time>2014-02-23T09:56:27+01:00</time>
      </trkpt>
      <trkpt lat="48.81776" lon="2.11389">
        <ele>126</ele>
        <time>2014-02-23T09:56:30+01:00</time>
      </trkpt>
      <trkpt lat="48.81786" lon="2.11394">
        <ele>127</ele>
        <time>2014-02-23T09:56:34+01:00</time>
      </trkpt>
      <trkpt lat="48.81795" lon="2.11399">
        <ele>126</ele>
        <time>2014-02-23T09:56:38+01:00</time>
      </trkpt>
      <trkpt lat="48.81804" lon="2.11403">
        <ele>126</ele>
        <time>2014-02-23T09:56:42+01:00</time>
      </trkpt>
      <trkpt lat="48.81813" lon="2.11409">
        <ele>124</ele>
        <time>2014-02-23T09:56:46+01:00</time>
      </trkpt>
      <trkpt lat="48.81822" lon="2.11414">
        <ele>125</ele>
        <time>2014-02-23T09:56:50+01:00</time>
      </trkpt>
      <trkpt lat="48.8183" lon="2.11419">
        <ele>125</ele>
        <time>2014-02-23T09:56:54+01:00</time>
      </trkpt>
      <trkpt lat="48.8184" lon="2.11424">
        <ele>124</ele>
        <time>2014-02-23T09:56:58+01:00</time>
      </trkpt>
      <trkpt lat="48.81849" lon="2.11429">
        <ele>125</ele>
        <time>2014-02-23T09:57:02+01:00</time>
      </trkpt>
      <trkpt lat="48.81859" lon="2.11436">
        <ele>126</ele>
        <time>2014-02-23T09:57:06+01:00</time>
      </trkpt>
      <trkpt lat="48.81869" lon="2.11442">
        <ele>128</ele>
        <time>2014-02-23T09:57:27+01:00</time>
      </trkpt>
      <trkpt lat="48.81878" lon="2.11447">
        <ele>128</ele>
        <time>2014-02-23T09:57:28+01:00</time>
      </trkpt>
      <trkpt lat="48.81926" lon="2.11475">
        <ele>128</ele>
        <time>2014-02-23T09:57:34+01:00</time>
      </trkpt>
      <trkpt lat="48.81936" lon="2.11482">
        <ele>125</ele>
        <time>2014-02-23T09:57:38+01:00</time>
      </trkpt>
      <trkpt lat="48.81948" lon="2.11484">
        <ele>122</ele>
        <time>2014-02-23T09:57:42+01:00</time>
      </trkpt>
      <trkpt lat="48.81956" lon="2.11475">
        <ele>125</ele>
        <time>2014-02-23T09:57:46+01:00</time>
      </trkpt>
      <trkpt lat="48.81961" lon="2.11461">
        <ele>125</ele>
        <time>2014-02-23T09:57:50+01:00</time>
      </trkpt>
      <trkpt lat="48.81966" lon="2.11449">
        <ele>126</ele>
        <time>2014-02-23T09:57:54+01:00</time>
      </trkpt>
      <trkpt lat="48.81969" lon="2.11436">
        <ele>124</ele>
        <time>2014-02-23T09:57:58+01:00</time>
      </trkpt>
      <trkpt lat="48.81973" lon="2.11424">
        <ele>123</ele>
        <time>2014-02-23T09:58:02+01:00</time>
      </trkpt>
      <trkpt lat="48.81977" lon="2.11412">
        <ele>122</ele>
        <time>2014-02-23T09:58:06+01:00</time>
      </trkpt>
      <trkpt lat="48.81982" lon="2.11403">
        <ele>122</ele>
        <time>2014-02-23T09:58:10+01:00</time>
      </trkpt>
      <trkpt lat="48.81983" lon="2.11403">
        <ele>122</ele>
        <time>2014-02-23T09:58:29+01:00</time>
      </trkpt>
      <trkpt lat="48.81989" lon="2.11385">
        <ele>122</ele>
        <time>2014-02-23T09:58:30+01:00</time>
      </trkpt>
      <trkpt lat="48.81991" lon="2.11378">
        <ele>121</ele>
        <time>2014-02-23T09:58:30+01:00</time>
      </trkpt>
      <trkpt lat="48.81994" lon="2.1137">
        <ele>122</ele>
        <time>2014-02-23T09:58:34+01:00</time>
      </trkpt>
      <trkpt lat="48.81999" lon="2.11356">
        <ele>124</ele>
        <time>2014-02-23T09:58:38+01:00</time>
      </trkpt>
      <trkpt lat="48.82002" lon="2.11341">
        <ele>123</ele>
        <time>2014-02-23T09:58:42+01:00</time>
      </trkpt>
      <trkpt lat="48.82007" lon="2.11327">
        <ele>124</ele>
        <time>2014-02-23T09:58:46+01:00</time>
      </trkpt>
      <trkpt lat="48.82011" lon="2.11314">
        <ele>127</ele>
        <time>2014-02-23T09:58:50+01:00</time>
      </trkpt>
      <trkpt lat="48.82016" lon="2.113">
        <ele>126</ele>
        <time>2014-02-23T09:58:54+01:00</time>
      </trkpt>
      <trkpt lat="48.82021" lon="2.11286">
        <ele>127</ele>
        <time>2014-02-23T09:58:58+01:00</time>
      </trkpt>
      <trkpt lat="48.82023" lon="2.1127">
        <ele>128</ele>
        <time>2014-02-23T09:59:02+01:00</time>
      </trkpt>
      <trkpt lat="48.82027" lon="2.11257">
        <ele>128</ele>
        <time>2014-02-23T09:59:06+01:00</time>
      </trkpt>
      <trkpt lat="48.82031" lon="2.11245">
        <ele>127</ele>
        <time>2014-02-23T09:59:10+01:00</time>
      </trkpt>
      <trkpt lat="48.82033" lon="2.11231">
        <ele>128</ele>
        <time>2014-02-23T09:59:28+01:00</time>
      </trkpt>
      <trkpt lat="48.82038" lon="2.11217">
        <ele>130</ele>
        <time>2014-02-23T09:59:29+01:00</time>
      </trkpt>
      <trkpt lat="48.82054" lon="2.11165">
        <ele>129</ele>
        <time>2014-02-23T09:59:34+01:00</time>
      </trkpt>
      <trkpt lat="48.82059" lon="2.1115">
        <ele>129</ele>
        <time>2014-02-23T09:59:38+01:00</time>
      </trkpt>
      <trkpt lat="48.82063" lon="2.11135">
        <ele>129</ele>
        <time>2014-02-23T09:59:42+01:00</time>
      </trkpt>
      <trkpt lat="48.82066" lon="2.1112">
        <ele>128</ele>
        <time>2014-02-23T09:59:46+01:00</time>
      </trkpt>
      <trkpt lat="48.82071" lon="2.11104">
        <ele>128</ele>
        <time>2014-02-23T09:59:51+01:00</time>
      </trkpt>
      <trkpt lat="48.82077" lon="2.11089">
        <ele>126</ele>
        <time>2014-02-23T09:59:54+01:00</time>
      </trkpt>
      <trkpt lat="48.82082" lon="2.11076">
        <ele>128</ele>
        <time>2014-02-23T09:59:58+01:00</time>
      </trkpt>
      <trkpt lat="48.82086" lon="2.11061">
        <ele>128</ele>
        <time>2014-02-23T10:00:02+01:00</time>
      </trkpt>
      <trkpt lat="48.8209" lon="2.11045">
        <ele>128</ele>
        <time>2014-02-23T10:00:06+01:00</time>
      </trkpt>
      <trkpt lat="48.82095" lon="2.1103">
        <ele>129</ele>
        <time>2014-02-23T10:00:10+01:00</time>
      </trkpt>
      <trkpt lat="48.82099" lon="2.11015">
        <ele>128</ele>
        <time>2014-02-23T10:00:14+01:00</time>
      </trkpt>
      <trkpt lat="48.82104" lon="2.11">
        <ele>128</ele>
        <time>2014-02-23T10:00:27+01:00</time>
      </trkpt>
      <trkpt lat="48.82108" lon="2.10987">
        <ele>126</ele>
        <time>2014-02-23T10:00:28+01:00</time>
      </trkpt>
      <trkpt lat="48.82122" lon="2.10943">
        <ele>124</ele>
        <time>2014-02-23T10:00:34+01:00</time>
      </trkpt>
      <trkpt lat="48.82126" lon="2.10929">
        <ele>123</ele>
        <time>2014-02-23T10:00:38+01:00</time>
      </trkpt>
      <trkpt lat="48.82131" lon="2.10917">
        <ele>122</ele>
        <time>2014-02-23T10:00:42+01:00</time>
      </trkpt>
      <trkpt lat="48.82135" lon="2.10903">
        <ele>124</ele>
        <time>2014-02-23T10:00:46+01:00</time>
      </trkpt>
      <trkpt lat="48.8214" lon="2.10889">
        <ele>122</ele>
        <time>2014-02-23T10:00:50+01:00</time>
      </trkpt>
      <trkpt lat="48.82144" lon="2.10874">
        <ele>122</ele>
        <time>2014-02-23T10:00:54+01:00</time>
      </trkpt>
      <trkpt lat="48.82149" lon="2.1086">
        <ele>121</ele>
        <time>2014-02-23T10:00:58+01:00</time>
      </trkpt>
      <trkpt lat="48.82153" lon="2.10844">
        <ele>122</ele>
        <time>2014-02-23T10:01:02+01:00</time>
      </trkpt>
      <trkpt lat="48.82156" lon="2.10829">
        <ele>122</ele>
        <time>2014-02-23T10:01:06+01:00</time>
      </trkpt>
      <trkpt lat="48.82161" lon="2.10814">
        <ele>123</ele>
        <time>2014-02-23T10:01:10+01:00</time>
      </trkpt>
      <trkpt lat="48.82166" lon="2.10798">
        <ele>123</ele>
        <time>2014-02-23T10:01:14+01:00</time>
      </trkpt>
      <trkpt lat="48.82172" lon="2.10784">
        <ele>122</ele>
        <time>2014-02-23T10:01:18+01:00</time>
      </trkpt>
      <trkpt lat="48.82177" lon="2.10771">
        <ele>122</ele>
        <time>2014-02-23T10:01:36+01:00</time>
      </trkpt>
      <trkpt lat="48.82198" lon="2.10696">
        <ele>121</ele>
        <time>2014-02-23T10:01:43+01:00</time>
      </trkpt>
      <trkpt lat="48.82204" lon="2.10679">
        <ele>121</ele>
        <time>2014-02-23T10:01:47+01:00</time>
      </trkpt>
      <trkpt lat="48.82209" lon="2.10662">
        <ele>121</ele>
        <time>2014-02-23T10:01:51+01:00</time>
      </trkpt>
      <trkpt lat="48.82214" lon="2.10646">
        <ele>121</ele>
        <time>2014-02-23T10:01:55+01:00</time>
      </trkpt>
      <trkpt lat="48.82219" lon="2.10629">
        <ele>119</ele>
        <time>2014-02-23T10:01:59+01:00</time>
      </trkpt>
      <trkpt lat="48.82223" lon="2.10614">
        <ele>119</ele>
        <time>2014-02-23T10:02:03+01:00</time>
      </trkpt>
      <trkpt lat="48.82228" lon="2.106">
        <ele>121</ele>
        <time>2014-02-23T10:02:07+01:00</time>
      </trkpt>
      <trkpt lat="48.82232" lon="2.10584">
        <ele>122</ele>
        <time>2014-02-23T10:02:11+01:00</time>
      </trkpt>
      <trkpt lat="48.82236" lon="2.10568">
        <ele>121</ele>
        <time>2014-02-23T10:02:15+01:00</time>
      </trkpt>
      <trkpt lat="48.82238" lon="2.10554">
        <ele>122</ele>
        <time>2014-02-23T10:02:19+01:00</time>
      </trkpt>
      <trkpt lat="48.82243" lon="2.1054">
        <ele>122</ele>
        <time>2014-02-23T10:02:31+01:00</time>
      </trkpt>
      <trkpt lat="48.82259" lon="2.10492">
        <ele>128</ele>
        <time>2014-02-23T10:02:35+01:00</time>
      </trkpt>
      <trkpt lat="48.82264" lon="2.10478">
        <ele>127</ele>
        <time>2014-02-23T10:02:39+01:00</time>
      </trkpt>
      <trkpt lat="48.82268" lon="2.10462">
        <ele>126</ele>
        <time>2014-02-23T10:02:43+01:00</time>
      </trkpt>
      <trkpt lat="48.82272" lon="2.10447">
        <ele>128</ele>
        <time>2014-02-23T10:02:47+01:00</time>
      </trkpt>
      <trkpt lat="48.82277" lon="2.10434">
        <ele>125</ele>
        <time>2014-02-23T10:02:51+01:00</time>
      </trkpt>
      <trkpt lat="48.82282" lon="2.10421">
        <ele>125</ele>
        <time>2014-02-23T10:02:55+01:00</time>
      </trkpt>
      <trkpt lat="48.82288" lon="2.10408">
        <ele>124</ele>
        <time>2014-02-23T10:02:59+01:00</time>
      </trkpt>
      <trkpt lat="48.82292" lon="2.10393">
        <ele>125</ele>
        <time>2014-02-23T10:03:03+01:00</time>
      </trkpt>
      <trkpt lat="48.82296" lon="2.10378">
        <ele>125</ele>
        <time>2014-02-23T10:03:07+01:00</time>
      </trkpt>
      <trkpt lat="48.82302" lon="2.10365">
        <ele>126</ele>
        <time>2014-02-23T10:03:11+01:00</time>
      </trkpt>
      <trkpt lat="48.82305" lon="2.1035">
        <ele>128</ele>
        <time>2014-02-23T10:03:15+01:00</time>
      </trkpt>
      <trkpt lat="48.82308" lon="2.10335">
        <ele>128</ele>
        <time>2014-02-23T10:03:19+01:00</time>
      </trkpt>
      <trkpt lat="48.82312" lon="2.1032">
        <ele>127</ele>
        <time>2014-02-23T10:03:41+01:00</time>
      </trkpt>
      <trkpt lat="48.82316" lon="2.10306">
        <ele>126</ele>
        <time>2014-02-23T10:03:42+01:00</time>
      </trkpt>
      <trkpt lat="48.82322" lon="2.10294">
        <ele>126</ele>
        <time>2014-02-23T10:03:42+01:00</time>
      </trkpt>
      <trkpt lat="48.82342" lon="2.10244">
        <ele>129</ele>
        <time>2014-02-23T10:03:47+01:00</time>
      </trkpt>
      <trkpt lat="48.82351" lon="2.10239">
        <ele>131</ele>
        <time>2014-02-23T10:03:51+01:00</time>
      </trkpt>
      <trkpt lat="48.82358" lon="2.1023">
        <ele>131</ele>
        <time>2014-02-23T10:03:55+01:00</time>
      </trkpt>
      <trkpt lat="48.82361" lon="2.10217">
        <ele>130</ele>
        <time>2014-02-23T10:03:59+01:00</time>
      </trkpt>
      <trkpt lat="48.82364" lon="2.10204">
        <ele>131</ele>
        <time>2014-02-23T10:04:03+01:00</time>
      </trkpt>
      <trkpt lat="48.8237" lon="2.10193">
        <ele>133</ele>
        <time>2014-02-23T10:04:07+01:00</time>
      </trkpt>
      <trkpt lat="48.82373" lon="2.10179">
        <ele>132</ele>
        <time>2014-02-23T10:04:11+01:00</time>
      </trkpt>
      <trkpt lat="48.82376" lon="2.10167">
        <ele>131</ele>
        <time>2014-02-23T10:04:15+01:00</time>
      </trkpt>
      <trkpt lat="48.8238" lon="2.10153">
        <ele>131</ele>
        <time>2014-02-23T10:04:19+01:00</time>
      </trkpt>
      <trkpt lat="48.82383" lon="2.10139">
        <ele>131</ele>
        <time>2014-02-23T10:04:23+01:00</time>
      </trkpt>
      <trkpt lat="48.82388" lon="2.10125">
        <ele>132</ele>
        <time>2014-02-23T10:04:34+01:00</time>
      </trkpt>
      <trkpt lat="48.82392" lon="2.10112">
        <ele>132</ele>
        <time>2014-02-23T10:04:35+01:00</time>
      </trkpt>
      <trkpt lat="48.82397" lon="2.10099">
        <ele>133</ele>
        <time>2014-02-23T10:04:35+01:00</time>
      </trkpt>
      <trkpt lat="48.82401" lon="2.10085">
        <ele>130</ele>
        <time>2014-02-23T10:04:39+01:00</time>
      </trkpt>
      <trkpt lat="48.82404" lon="2.1007">
        <ele>129</ele>
        <time>2014-02-23T10:04:43+01:00</time>
      </trkpt>
      <trkpt lat="48.82407" lon="2.10056">
        <ele>128</ele>
        <time>2014-02-23T10:04:47+01:00</time>
      </trkpt>
      <trkpt lat="48.82411" lon="2.10043">
        <ele>127</ele>
        <time>2014-02-23T10:04:51+01:00</time>
      </trkpt>
      <trkpt lat="48.82414" lon="2.10029">
        <ele>125</ele>
        <time>2014-02-23T10:04:55+01:00</time>
      </trkpt>
      <trkpt lat="48.82419" lon="2.10016">
        <ele>125</ele>
        <time>2014-02-23T10:04:59+01:00</time>
      </trkpt>
      <trkpt lat="48.82423" lon="2.10004">
        <ele>124</ele>
        <time>2014-02-23T10:05:03+01:00</time>
      </trkpt>
      <trkpt lat="48.8243" lon="2.09994">
        <ele>123</ele>
        <time>2014-02-23T10:05:07+01:00</time>
      </trkpt>
      <trkpt lat="48.82433" lon="2.09983">
        <ele>123</ele>
        <time>2014-02-23T10:05:11+01:00</time>
      </trkpt>
      <trkpt lat="48.82438" lon="2.09972">
        <ele>124</ele>
        <time>2014-02-23T10:05:15+01:00</time>
      </trkpt>
      <trkpt lat="48.82441" lon="2.0996">
        <ele>123</ele>
        <time>2014-02-23T10:05:19+01:00</time>
      </trkpt>
      <trkpt lat="48.82444" lon="2.09948">
        <ele>122</ele>
        <time>2014-02-23T10:05:23+01:00</time>
      </trkpt>
      <trkpt lat="48.82448" lon="2.09936">
        <ele>122</ele>
        <time>2014-02-23T10:05:37+01:00</time>
      </trkpt>
      <trkpt lat="48.82463" lon="2.09879">
        <ele>123</ele>
        <time>2014-02-23T10:05:43+01:00</time>
      </trkpt>
      <trkpt lat="48.82468" lon="2.09865">
        <ele>120</ele>
        <time>2014-02-23T10:05:47+01:00</time>
      </trkpt>
      <trkpt lat="48.82472" lon="2.09852">
        <ele>121</ele>
        <time>2014-02-23T10:05:51+01:00</time>
      </trkpt>
      <trkpt lat="48.82475" lon="2.09839">
        <ele>122</ele>
        <time>2014-02-23T10:05:55+01:00</time>
      </trkpt>
      <trkpt lat="48.82476" lon="2.09826">
        <ele>124</ele>
        <time>2014-02-23T10:05:59+01:00</time>
      </trkpt>
      <trkpt lat="48.82479" lon="2.09814">
        <ele>123</ele>
        <time>2014-02-23T10:06:03+01:00</time>
      </trkpt>
      <trkpt lat="48.82483" lon="2.09801">
        <ele>124</ele>
        <time>2014-02-23T10:06:07+01:00</time>
      </trkpt>
      <trkpt lat="48.82486" lon="2.09788">
        <ele>124</ele>
        <time>2014-02-23T10:06:11+01:00</time>
      </trkpt>
      <trkpt lat="48.8249" lon="2.09774">
        <ele>122</ele>
        <time>2014-02-23T10:06:15+01:00</time>
      </trkpt>
      <trkpt lat="48.82496" lon="2.09762">
        <ele>122</ele>
        <time>2014-02-23T10:06:19+01:00</time>
      </trkpt>
      <trkpt lat="48.82502" lon="2.09747">
        <ele>125</ele>
        <time>2014-02-23T10:06:23+01:00</time>
      </trkpt>
      <trkpt lat="48.82507" lon="2.09732">
        <ele>126</ele>
        <time>2014-02-23T10:06:27+01:00</time>
      </trkpt>
      <trkpt lat="48.82511" lon="2.09716">
        <ele>124</ele>
        <time>2014-02-23T10:06:39+01:00</time>
      </trkpt>
      <trkpt lat="48.82519" lon="2.09671">
        <ele>125</ele>
        <time>2014-02-23T10:06:43+01:00</time>
      </trkpt>
      <trkpt lat="48.82522" lon="2.09658">
        <ele>125</ele>
        <time>2014-02-23T10:06:47+01:00</time>
      </trkpt>
      <trkpt lat="48.82525" lon="2.09645">
        <ele>125</ele>
        <time>2014-02-23T10:06:51+01:00</time>
      </trkpt>
      <trkpt lat="48.82528" lon="2.09632">
        <ele>125</ele>
        <time>2014-02-23T10:06:55+01:00</time>
      </trkpt>
      <trkpt lat="48.82533" lon="2.0962">
        <ele>130</ele>
        <time>2014-02-23T10:06:59+01:00</time>
      </trkpt>
      <trkpt lat="48.82535" lon="2.09605">
        <ele>128</ele>
        <time>2014-02-23T10:07:03+01:00</time>
      </trkpt>
      <trkpt lat="48.82531" lon="2.09588">
        <ele>131</ele>
        <time>2014-02-23T10:07:07+01:00</time>
      </trkpt>
      <trkpt lat="48.82525" lon="2.09575">
        <ele>128</ele>
        <time>2014-02-23T10:07:11+01:00</time>
      </trkpt>
      <trkpt lat="48.82518" lon="2.09566">
        <ele>129</ele>
        <time>2014-02-23T10:07:15+01:00</time>
      </trkpt>
      <trkpt lat="48.8251" lon="2.09559">
        <ele>129</ele>
        <time>2014-02-23T10:07:19+01:00</time>
      </trkpt>
      <trkpt lat="48.82504" lon="2.09552">
        <ele>127</ele>
        <time>2014-02-23T10:07:23+01:00</time>
      </trkpt>
      <trkpt lat="48.82504" lon="2.0954">
        <ele>127</ele>
        <time>2014-02-23T10:07:27+01:00</time>
      </trkpt>
      <trkpt lat="48.82498" lon="2.0953">
        <ele>128</ele>
        <time>2014-02-23T10:07:36+01:00</time>
      </trkpt>
      <trkpt lat="48.82492" lon="2.0952">
        <ele>126</ele>
        <time>2014-02-23T10:07:36+01:00</time>
      </trkpt>
      <trkpt lat="48.82481" lon="2.09502">
        <ele>123</ele>
        <time>2014-02-23T10:07:43+01:00</time>
      </trkpt>
      <trkpt lat="48.82474" lon="2.0949">
        <ele>124</ele>
        <time>2014-02-23T10:07:47+01:00</time>
      </trkpt>
      <trkpt lat="48.82468" lon="2.09478">
        <ele>122</ele>
        <time>2014-02-23T10:07:51+01:00</time>
      </trkpt>
      <trkpt lat="48.82465" lon="2.09463">
        <ele>122</ele>
        <time>2014-02-23T10:07:54+01:00</time>
      </trkpt>
      <trkpt lat="48.82462" lon="2.09448">
        <ele>120</ele>
        <time>2014-02-23T10:07:58+01:00</time>
      </trkpt>
      <trkpt lat="48.82455" lon="2.09437">
        <ele>120</ele>
        <time>2014-02-23T10:08:02+01:00</time>
      </trkpt>
      <trkpt lat="48.82449" lon="2.09426">
        <ele>120</ele>
        <time>2014-02-23T10:08:06+01:00</time>
      </trkpt>
      <trkpt lat="48.82444" lon="2.09416">
        <ele>120</ele>
        <time>2014-02-23T10:08:10+01:00</time>
      </trkpt>
      <trkpt lat="48.82439" lon="2.09403">
        <ele>119</ele>
        <time>2014-02-23T10:08:14+01:00</time>
      </trkpt>
      <trkpt lat="48.82432" lon="2.09391">
        <ele>118</ele>
        <time>2014-02-23T10:08:18+01:00</time>
      </trkpt>
      <trkpt lat="48.82424" lon="2.09381">
        <ele>116</ele>
        <time>2014-02-23T10:08:22+01:00</time>
      </trkpt>
      <trkpt lat="48.82418" lon="2.09368">
        <ele>116</ele>
        <time>2014-02-23T10:08:26+01:00</time>
      </trkpt>
      <trkpt lat="48.82412" lon="2.09356">
        <ele>116</ele>
        <time>2014-02-23T10:08:30+01:00</time>
      </trkpt>
      <trkpt lat="48.82405" lon="2.09344">
        <ele>115</ele>
        <time>2014-02-23T10:08:36+01:00</time>
      </trkpt>
      <trkpt lat="48.82389" lon="2.09323">
        <ele>114</ele>
        <time>2014-02-23T10:08:42+01:00</time>
      </trkpt>
      <trkpt lat="48.82382" lon="2.09312">
        <ele>117</ele>
        <time>2014-02-23T10:08:45+01:00</time>
      </trkpt>
      <trkpt lat="48.82375" lon="2.093">
        <ele>116</ele>
        <time>2014-02-23T10:08:49+01:00</time>
      </trkpt>
      <trkpt lat="48.82368" lon="2.09287">
        <ele>116</ele>
        <time>2014-02-23T10:08:53+01:00</time>
      </trkpt>
      <trkpt lat="48.82361" lon="2.09276">
        <ele>116</ele>
        <time>2014-02-23T10:08:57+01:00</time>
      </trkpt>
      <trkpt lat="48.82353" lon="2.09267">
        <ele>117</ele>
        <time>2014-02-23T10:09:01+01:00</time>
      </trkpt>
      <trkpt lat="48.82343" lon="2.09259">
        <ele>119</ele>
        <time>2014-02-23T10:09:05+01:00</time>
      </trkpt>
      <trkpt lat="48.82333" lon="2.09261">
        <ele>119</ele>
        <time>2014-02-23T10:09:09+01:00</time>
      </trkpt>
      <trkpt lat="48.82327" lon="2.09253">
        <ele>119</ele>
        <time>2014-02-23T10:09:13+01:00</time>
      </trkpt>
      <trkpt lat="48.82321" lon="2.09242">
        <ele>120</ele>
        <time>2014-02-23T10:09:17+01:00</time>
      </trkpt>
      <trkpt lat="48.82313" lon="2.09229">
        <ele>118</ele>
        <time>2014-02-23T10:09:21+01:00</time>
      </trkpt>
      <trkpt lat="48.82305" lon="2.09217">
        <ele>117</ele>
        <time>2014-02-23T10:09:25+01:00</time>
      </trkpt>
      <trkpt lat="48.82299" lon="2.09205">
        <ele>117</ele>
        <time>2014-02-23T10:09:29+01:00</time>
      </trkpt>
      <trkpt lat="48.82292" lon="2.09197">
        <ele>117</ele>
        <time>2014-02-23T10:09:32+01:00</time>
      </trkpt>
      <trkpt lat="48.82285" lon="2.09185">
        <ele>116</ele>
        <time>2014-02-23T10:09:51+01:00</time>
      </trkpt>
      <trkpt lat="48.82277" lon="2.09173">
        <ele>118</ele>
        <time>2014-02-23T10:09:52+01:00</time>
      </trkpt>
      <trkpt lat="48.82246" lon="2.09126">
        <ele>113</ele>
        <time>2014-02-23T10:09:57+01:00</time>
      </trkpt>
      <trkpt lat="48.82239" lon="2.09114">
        <ele>114</ele>
        <time>2014-02-23T10:10:01+01:00</time>
      </trkpt>
      <trkpt lat="48.82231" lon="2.09102">
        <ele>112</ele>
        <time>2014-02-23T10:10:04+01:00</time>
      </trkpt>
      <trkpt lat="48.82224" lon="2.09089">
        <ele>112</ele>
        <time>2014-02-23T10:10:08+01:00</time>
      </trkpt>
      <trkpt lat="48.82217" lon="2.09076">
        <ele>114</ele>
        <time>2014-02-23T10:10:13+01:00</time>
      </trkpt>
      <trkpt lat="48.82209" lon="2.09063">
        <ele>114</ele>
        <time>2014-02-23T10:10:16+01:00</time>
      </trkpt>
      <trkpt lat="48.82201" lon="2.09052">
        <ele>111</ele>
        <time>2014-02-23T10:10:20+01:00</time>
      </trkpt>
      <trkpt lat="48.82194" lon="2.0904">
        <ele>112</ele>
        <time>2014-02-23T10:10:24+01:00</time>
      </trkpt>
      <trkpt lat="48.82187" lon="2.09029">
        <ele>112</ele>
        <time>2014-02-23T10:10:29+01:00</time>
      </trkpt>
      <trkpt lat="48.82179" lon="2.09018">
        <ele>112</ele>
        <time>2014-02-23T10:10:32+01:00</time>
      </trkpt>
      <trkpt lat="48.82175" lon="2.09005">
        <ele>114</ele>
        <time>2014-02-23T10:10:36+01:00</time>
      </trkpt>
      <trkpt lat="48.8217" lon="2.08994">
        <ele>115</ele>
        <time>2014-02-23T10:10:51+01:00</time>
      </trkpt>
      <trkpt lat="48.82163" lon="2.08984">
        <ele>113</ele>
        <time>2014-02-23T10:10:51+01:00</time>
      </trkpt>
      <trkpt lat="48.82158" lon="2.08972">
        <ele>113</ele>
        <time>2014-02-23T10:10:51+01:00</time>
      </trkpt>
      <trkpt lat="48.82146" lon="2.08957">
        <ele>110</ele>
        <time>2014-02-23T10:10:56+01:00</time>
      </trkpt>
      <trkpt lat="48.82142" lon="2.08949">
        <ele>109</ele>
        <time>2014-02-23T10:11:00+01:00</time>
      </trkpt>
      <trkpt lat="48.82138" lon="2.08941">
        <ele>110</ele>
        <time>2014-02-23T10:11:06+01:00</time>
      </trkpt>
      <trkpt lat="48.82132" lon="2.0893">
        <ele>109</ele>
        <time>2014-02-23T10:11:09+01:00</time>
      </trkpt>
      <trkpt lat="48.82125" lon="2.08921">
        <ele>107</ele>
        <time>2014-02-23T10:11:12+01:00</time>
      </trkpt>
      <trkpt lat="48.82118" lon="2.08911">
        <ele>106</ele>
        <time>2014-02-23T10:11:16+01:00</time>
      </trkpt>
      <trkpt lat="48.8211" lon="2.089">
        <ele>106</ele>
        <time>2014-02-23T10:11:20+01:00</time>
      </trkpt>
      <trkpt lat="48.82103" lon="2.08888">
        <ele>106</ele>
        <time>2014-02-23T10:11:24+01:00</time>
      </trkpt>
      <trkpt lat="48.82095" lon="2.08875">
        <ele>107</ele>
        <time>2014-02-23T10:11:28+01:00</time>
      </trkpt>
      <trkpt lat="48.82088" lon="2.08863">
        <ele>107</ele>
        <time>2014-02-23T10:11:32+01:00</time>
      </trkpt>
      <trkpt lat="48.82081" lon="2.08851">
        <ele>107</ele>
        <time>2014-02-23T10:11:36+01:00</time>
      </trkpt>
      <trkpt lat="48.82074" lon="2.0884">
        <ele>107</ele>
        <time>2014-02-23T10:11:56+01:00</time>
      </trkpt>
      <trkpt lat="48.82039" lon="2.08777">
        <ele>109</ele>
        <time>2014-02-23T10:12:00+01:00</time>
      </trkpt>
      <trkpt lat="48.82033" lon="2.08766">
        <ele>110</ele>
        <time>2014-02-23T10:12:04+01:00</time>
      </trkpt>
      <trkpt lat="48.82027" lon="2.08756">
        <ele>111</ele>
        <time>2014-02-23T10:12:08+01:00</time>
      </trkpt>
      <trkpt lat="48.8202" lon="2.08745">
        <ele>110</ele>
        <time>2014-02-23T10:12:12+01:00</time>
      </trkpt>
      <trkpt lat="48.82011" lon="2.08733">
        <ele>109</ele>
        <time>2014-02-23T10:12:16+01:00</time>
      </trkpt>
      <trkpt lat="48.82003" lon="2.08723">
        <ele>110</ele>
        <time>2014-02-23T10:12:21+01:00</time>
      </trkpt>
      <trkpt lat="48.81996" lon="2.08712">
        <ele>108</ele>
        <time>2014-02-23T10:12:25+01:00</time>
      </trkpt>
      <trkpt lat="48.81989" lon="2.08701">
        <ele>109</ele>
        <time>2014-02-23T10:12:29+01:00</time>
      </trkpt>
      <trkpt lat="48.81983" lon="2.0869">
        <ele>109</ele>
        <time>2014-02-23T10:12:33+01:00</time>
      </trkpt>
      <trkpt lat="48.81976" lon="2.08679">
        <ele>109</ele>
        <time>2014-02-23T10:12:37+01:00</time>
      </trkpt>
      <trkpt lat="48.81969" lon="2.08667">
        <ele>108</ele>
        <time>2014-02-23T10:12:41+01:00</time>
      </trkpt>
      <trkpt lat="48.81962" lon="2.08655">
        <ele>108</ele>
        <time>2014-02-23T10:13:01+01:00</time>
      </trkpt>
      <trkpt lat="48.81954" lon="2.08642">
        <ele>108</ele>
        <time>2014-02-23T10:13:01+01:00</time>
      </trkpt>
      <trkpt lat="48.81928" lon="2.08598">
        <ele>105</ele>
        <time>2014-02-23T10:13:05+01:00</time>
      </trkpt>
      <trkpt lat="48.81921" lon="2.08587">
        <ele>103</ele>
        <time>2014-02-23T10:13:09+01:00</time>
      </trkpt>
      <trkpt lat="48.81915" lon="2.08575">
        <ele>101</ele>
        <time>2014-02-23T10:13:13+01:00</time>
      </trkpt>
      <trkpt lat="48.81908" lon="2.08564">
        <ele>102</ele>
        <time>2014-02-23T10:13:17+01:00</time>
      </trkpt>
      <trkpt lat="48.81901" lon="2.08554">
        <ele>102</ele>
        <time>2014-02-23T10:13:21+01:00</time>
      </trkpt>
      <trkpt lat="48.81894" lon="2.08543">
        <ele>102</ele>
        <time>2014-02-23T10:13:25+01:00</time>
      </trkpt>
      <trkpt lat="48.81887" lon="2.0853">
        <ele>103</ele>
        <time>2014-02-23T10:13:29+01:00</time>
      </trkpt>
      <trkpt lat="48.8188" lon="2.08519">
        <ele>104</ele>
        <time>2014-02-23T10:13:33+01:00</time>
      </trkpt>
      <trkpt lat="48.81871" lon="2.08509">
        <ele>103</ele>
        <time>2014-02-23T10:13:37+01:00</time>
      </trkpt>
      <trkpt lat="48.81864" lon="2.08499">
        <ele>105</ele>
        <time>2014-02-23T10:13:41+01:00</time>
      </trkpt>
      <trkpt lat="48.81859" lon="2.08488">
        <ele>106</ele>
        <time>2014-02-23T10:13:45+01:00</time>
      </trkpt>
      <trkpt lat="48.81853" lon="2.08477">
        <ele>107</ele>
        <time>2014-02-23T10:13:59+01:00</time>
      </trkpt>
      <trkpt lat="48.8183" lon="2.08439">
        <ele>107</ele>
        <time>2014-02-23T10:14:05+01:00</time>
      </trkpt>
      <trkpt lat="48.81821" lon="2.08426">
        <ele>108</ele>
        <time>2014-02-23T10:14:09+01:00</time>
      </trkpt>
      <trkpt lat="48.81813" lon="2.08414">
        <ele>108</ele>
        <time>2014-02-23T10:14:13+01:00</time>
      </trkpt>
      <trkpt lat="48.81807" lon="2.08403">
        <ele>111</ele>
        <time>2014-02-23T10:14:17+01:00</time>
      </trkpt>
      <trkpt lat="48.818" lon="2.08392">
        <ele>111</ele>
        <time>2014-02-23T10:14:21+01:00</time>
      </trkpt>
      <trkpt lat="48.81793" lon="2.08382">
        <ele>111</ele>
        <time>2014-02-23T10:14:25+01:00</time>
      </trkpt>
      <trkpt lat="48.81787" lon="2.08373">
        <ele>110</ele>
        <time>2014-02-23T10:14:29+01:00</time>
      </trkpt>
      <trkpt lat="48.81782" lon="2.08362">
        <ele>110</ele>
        <time>2014-02-23T10:14:33+01:00</time>
      </trkpt>
      <trkpt lat="48.81775" lon="2.08352">
        <ele>108</ele>
        <time>2014-02-23T10:14:37+01:00</time>
      </trkpt>
      <trkpt lat="48.81769" lon="2.08342">
        <ele>107</ele>
        <time>2014-02-23T10:14:42+01:00</time>
      </trkpt>
      <trkpt lat="48.81762" lon="2.08332">
        <ele>107</ele>
        <time>2014-02-23T10:14:45+01:00</time>
      </trkpt>
      <trkpt lat="48.81755" lon="2.08322">
        <ele>108</ele>
        <time>2014-02-23T10:15:09+01:00</time>
      </trkpt>
      <trkpt lat="48.81748" lon="2.08313">
        <ele>108</ele>
        <time>2014-02-23T10:15:09+01:00</time>
      </trkpt>
      <trkpt lat="48.81742" lon="2.08302">
        <ele>110</ele>
        <time>2014-02-23T10:15:10+01:00</time>
      </trkpt>
      <trkpt lat="48.8171" lon="2.08249">
        <ele>111</ele>
        <time>2014-02-23T10:15:17+01:00</time>
      </trkpt>
      <trkpt lat="48.81709" lon="2.08245">
        <ele>111</ele>
        <time>2014-02-23T10:15:21+01:00</time>
      </trkpt>
      <trkpt lat="48.81699" lon="2.0823">
        <ele>111</ele>
        <time>2014-02-23T10:15:29+01:00</time>
      </trkpt>
      <trkpt lat="48.81693" lon="2.0822">
        <ele>113</ele>
        <time>2014-02-23T10:15:33+01:00</time>
      </trkpt>
      <trkpt lat="48.81687" lon="2.08209">
        <ele>114</ele>
        <time>2014-02-23T10:15:37+01:00</time>
      </trkpt>
      <trkpt lat="48.81679" lon="2.08198">
        <ele>113</ele>
        <time>2014-02-23T10:15:41+01:00</time>
      </trkpt>
      <trkpt lat="48.8167" lon="2.08194">
        <ele>114</ele>
        <time>2014-02-23T10:15:45+01:00</time>
      </trkpt>
      <trkpt lat="48.81661" lon="2.082">
        <ele>116</ele>
        <time>2014-02-23T10:15:49+01:00</time>
      </trkpt>
      <trkpt lat="48.81651" lon="2.08208">
        <ele>117</ele>
        <time>2014-02-23T10:16:14+01:00</time>
      </trkpt>
      <trkpt lat="48.81642" lon="2.08216">
        <ele>119</ele>
        <time>2014-02-23T10:16:15+01:00</time>
      </trkpt>
      <trkpt lat="48.81633" lon="2.08223">
        <ele>118</ele>
        <time>2014-02-23T10:16:15+01:00</time>
      </trkpt>
      <trkpt lat="48.81591" lon="2.08261">
        <ele>120</ele>
        <time>2014-02-23T10:16:21+01:00</time>
      </trkpt>
      <trkpt lat="48.81583" lon="2.08269">
        <ele>120</ele>
        <time>2014-02-23T10:16:25+01:00</time>
      </trkpt>
      <trkpt lat="48.81574" lon="2.08277">
        <ele>119</ele>
        <time>2014-02-23T10:16:29+01:00</time>
      </trkpt>
      <trkpt lat="48.81565" lon="2.08285">
        <ele>119</ele>
        <time>2014-02-23T10:16:33+01:00</time>
      </trkpt>
      <trkpt lat="48.81556" lon="2.08293">
        <ele>119</ele>
        <time>2014-02-23T10:16:37+01:00</time>
      </trkpt>
      <trkpt lat="48.81547" lon="2.083">
        <ele>119</ele>
        <time>2014-02-23T10:16:41+01:00</time>
      </trkpt>
      <trkpt lat="48.81538" lon="2.08309">
        <ele>117</ele>
        <time>2014-02-23T10:16:45+01:00</time>
      </trkpt>
      <trkpt lat="48.81528" lon="2.08315">
        <ele>118</ele>
        <time>2014-02-23T10:16:49+01:00</time>
      </trkpt>
      <trkpt lat="48.81519" lon="2.08308">
        <ele>119</ele>
        <time>2014-02-23T10:16:53+01:00</time>
      </trkpt>
      <trkpt lat="48.81511" lon="2.08298">
        <ele>119</ele>
        <time>2014-02-23T10:17:07+01:00</time>
      </trkpt>
      <trkpt lat="48.81504" lon="2.08288">
        <ele>118</ele>
        <time>2014-02-23T10:17:07+01:00</time>
      </trkpt>
      <trkpt lat="48.8148" lon="2.08264">
        <ele>120</ele>
        <time>2014-02-23T10:17:13+01:00</time>
      </trkpt>
      <trkpt lat="48.81471" lon="2.08258">
        <ele>120</ele>
        <time>2014-02-23T10:17:17+01:00</time>
      </trkpt>
      <trkpt lat="48.81461" lon="2.08254">
        <ele>121</ele>
        <time>2014-02-23T10:17:21+01:00</time>
      </trkpt>
      <trkpt lat="48.8145" lon="2.08252">
        <ele>119</ele>
        <time>2014-02-23T10:17:25+01:00</time>
      </trkpt>
      <trkpt lat="48.8144" lon="2.08251">
        <ele>120</ele>
        <time>2014-02-23T10:17:29+01:00</time>
      </trkpt>
      <trkpt lat="48.8143" lon="2.08252">
        <ele>120</ele>
        <time>2014-02-23T10:17:33+01:00</time>
      </trkpt>
      <trkpt lat="48.8142" lon="2.08254">
        <ele>120</ele>
        <time>2014-02-23T10:17:37+01:00</time>
      </trkpt>
      <trkpt lat="48.8141" lon="2.08259">
        <ele>122</ele>
        <time>2014-02-23T10:17:41+01:00</time>
      </trkpt>
      <trkpt lat="48.81408" lon="2.08261">
        <ele>121</ele>
        <time>2014-02-23T10:17:45+01:00</time>
      </trkpt>
      <trkpt lat="48.81409" lon="2.08261">
        <ele>122</ele>
        <time>2014-02-23T10:17:57+01:00</time>
      </trkpt>
      <trkpt lat="48.81403" lon="2.08264">
        <ele>122</ele>
        <time>2014-02-23T10:18:13+01:00</time>
      </trkpt>
      <trkpt lat="48.81394" lon="2.08271">
        <ele>121</ele>
        <time>2014-02-23T10:18:17+01:00</time>
      </trkpt>
      <trkpt lat="48.81389" lon="2.08275">
        <ele>122</ele>
        <time>2014-02-23T10:18:21+01:00</time>
      </trkpt>
      <trkpt lat="48.81378" lon="2.08286">
        <ele>120</ele>
        <time>2014-02-23T10:18:25+01:00</time>
      </trkpt>
      <trkpt lat="48.81368" lon="2.08299">
        <ele>121</ele>
        <time>2014-02-23T10:18:29+01:00</time>
      </trkpt>
      <trkpt lat="48.81361" lon="2.08312">
        <ele>120</ele>
        <time>2014-02-23T10:18:33+01:00</time>
      </trkpt>
      <trkpt lat="48.81355" lon="2.08327">
        <ele>120</ele>
        <time>2014-02-23T10:18:37+01:00</time>
      </trkpt>
      <trkpt lat="48.8135" lon="2.08343">
        <ele>119</ele>
        <time>2014-02-23T10:18:41+01:00</time>
      </trkpt>
      <trkpt lat="48.81346" lon="2.08359">
        <ele>118</ele>
        <time>2014-02-23T10:18:45+01:00</time>
      </trkpt>
      <trkpt lat="48.81344" lon="2.08376">
        <ele>117</ele>
        <time>2014-02-23T10:18:49+01:00</time>
      </trkpt>
      <trkpt lat="48.81342" lon="2.08393">
        <ele>117</ele>
        <time>2014-02-23T10:18:53+01:00</time>
      </trkpt>
      <trkpt lat="48.81342" lon="2.0841">
        <ele>116</ele>
        <time>2014-02-23T10:18:57+01:00</time>
      </trkpt>
      <trkpt lat="48.81343" lon="2.08426">
        <ele>115</ele>
        <time>2014-02-23T10:19:11+01:00</time>
      </trkpt>
      <trkpt lat="48.81348" lon="2.08492">
        <ele>113</ele>
        <time>2014-02-23T10:19:17+01:00</time>
      </trkpt>
      <trkpt lat="48.81338" lon="2.085">
        <ele>112</ele>
        <time>2014-02-23T10:19:22+01:00</time>
      </trkpt>
      <trkpt lat="48.81328" lon="2.08509">
        <ele>112</ele>
        <time>2014-02-23T10:19:25+01:00</time>
      </trkpt>
      <trkpt lat="48.81319" lon="2.08516">
        <ele>112</ele>
        <time>2014-02-23T10:19:29+01:00</time>
      </trkpt>
      <trkpt lat="48.81309" lon="2.08524">
        <ele>111</ele>
        <time>2014-02-23T10:19:33+01:00</time>
      </trkpt>
      <trkpt lat="48.81301" lon="2.08532">
        <ele>110</ele>
        <time>2014-02-23T10:19:37+01:00</time>
      </trkpt>
      <trkpt lat="48.81293" lon="2.0854">
        <ele>111</ele>
        <time>2014-02-23T10:19:41+01:00</time>
      </trkpt>
      <trkpt lat="48.81284" lon="2.08548">
        <ele>111</ele>
        <time>2014-02-23T10:19:45+01:00</time>
      </trkpt>
      <trkpt lat="48.81275" lon="2.08556">
        <ele>111</ele>
        <time>2014-02-23T10:19:49+01:00</time>
      </trkpt>
      <trkpt lat="48.81266" lon="2.08564">
        <ele>111</ele>
        <time>2014-02-23T10:19:53+01:00</time>
      </trkpt>
      <trkpt lat="48.81256" lon="2.08572">
        <ele>111</ele>
        <time>2014-02-23T10:19:57+01:00</time>
      </trkpt>
      <trkpt lat="48.81247" lon="2.08579">
        <ele>110</ele>
        <time>2014-02-23T10:20:16+01:00</time>
      </trkpt>
      <trkpt lat="48.81203" lon="2.08623">
        <ele>113</ele>
        <time>2014-02-23T10:20:21+01:00</time>
      </trkpt>
      <trkpt lat="48.81194" lon="2.08632">
        <ele>113</ele>
        <time>2014-02-23T10:20:25+01:00</time>
      </trkpt>
      <trkpt lat="48.81185" lon="2.08639">
        <ele>114</ele>
        <time>2014-02-23T10:20:29+01:00</time>
      </trkpt>
      <trkpt lat="48.81177" lon="2.08647">
        <ele>115</ele>
        <time>2014-02-23T10:20:33+01:00</time>
      </trkpt>
      <trkpt lat="48.81169" lon="2.08656">
        <ele>117</ele>
        <time>2014-02-23T10:20:37+01:00</time>
      </trkpt>
      <trkpt lat="48.81161" lon="2.08666">
        <ele>118</ele>
        <time>2014-02-23T10:20:41+01:00</time>
      </trkpt>
      <trkpt lat="48.81153" lon="2.08674">
        <ele>119</ele>
        <time>2014-02-23T10:20:45+01:00</time>
      </trkpt>
      <trkpt lat="48.81144" lon="2.08682">
        <ele>119</ele>
        <time>2014-02-23T10:20:49+01:00</time>
      </trkpt>
      <trkpt lat="48.81136" lon="2.08689">
        <ele>117</ele>
        <time>2014-02-23T10:20:53+01:00</time>
      </trkpt>
      <trkpt lat="48.81126" lon="2.08696">
        <ele>119</ele>
        <time>2014-02-23T10:20:57+01:00</time>
      </trkpt>
      <trkpt lat="48.81116" lon="2.08702">
        <ele>119</ele>
        <time>2014-02-23T10:21:01+01:00</time>
      </trkpt>
      <trkpt lat="48.81107" lon="2.0871">
        <ele>118</ele>
        <time>2014-02-23T10:21:21+01:00</time>
      </trkpt>
      <trkpt lat="48.81098" lon="2.08718">
        <ele>117</ele>
        <time>2014-02-23T10:21:21+01:00</time>
      </trkpt>
      <trkpt lat="48.81066" lon="2.08755">
        <ele>121</ele>
        <time>2014-02-23T10:21:25+01:00</time>
      </trkpt>
      <trkpt lat="48.81056" lon="2.08762">
        <ele>120</ele>
        <time>2014-02-23T10:21:29+01:00</time>
      </trkpt>
      <trkpt lat="48.81047" lon="2.0877">
        <ele>120</ele>
        <time>2014-02-23T10:21:33+01:00</time>
      </trkpt>
      <trkpt lat="48.81041" lon="2.08778">
        <ele>120</ele>
        <time>2014-02-23T10:21:37+01:00</time>
      </trkpt>
      <trkpt lat="48.81034" lon="2.08785">
        <ele>120</ele>
        <time>2014-02-23T10:21:41+01:00</time>
      </trkpt>
      <trkpt lat="48.81027" lon="2.08793">
        <ele>122</ele>
        <time>2014-02-23T10:21:45+01:00</time>
      </trkpt>
      <trkpt lat="48.81019" lon="2.088">
        <ele>121</ele>
        <time>2014-02-23T10:21:49+01:00</time>
      </trkpt>
      <trkpt lat="48.8101" lon="2.08807">
        <ele>121</ele>
        <time>2014-02-23T10:21:53+01:00</time>
      </trkpt>
      <trkpt lat="48.81001" lon="2.08814">
        <ele>121</ele>
        <time>2014-02-23T10:21:57+01:00</time>
      </trkpt>
      <trkpt lat="48.80993" lon="2.08822">
        <ele>120</ele>
        <time>2014-02-23T10:22:01+01:00</time>
      </trkpt>
      <trkpt lat="48.80982" lon="2.08832">
        <ele>120</ele>
        <time>2014-02-23T10:22:05+01:00</time>
      </trkpt>
      <trkpt lat="48.80971" lon="2.08841">
        <ele>120</ele>
        <time>2014-02-23T10:22:22+01:00</time>
      </trkpt>
      <trkpt lat="48.80926" lon="2.08883">
        <ele>116</ele>
        <time>2014-02-23T10:22:29+01:00</time>
      </trkpt>
      <trkpt lat="48.80916" lon="2.08891">
        <ele>116</ele>
        <time>2014-02-23T10:22:33+01:00</time>
      </trkpt>
      <trkpt lat="48.80907" lon="2.08899">
        <ele>116</ele>
        <time>2014-02-23T10:22:37+01:00</time>
      </trkpt>
      <trkpt lat="48.809" lon="2.08907">
        <ele>115</ele>
        <time>2014-02-23T10:22:41+01:00</time>
      </trkpt>
      <trkpt lat="48.80893" lon="2.08915">
        <ele>114</ele>
        <time>2014-02-23T10:22:45+01:00</time>
      </trkpt>
      <trkpt lat="48.80884" lon="2.08922">
        <ele>114</ele>
        <time>2014-02-23T10:22:49+01:00</time>
      </trkpt>
      <trkpt lat="48.80877" lon="2.08931">
        <ele>113</ele>
        <time>2014-02-23T10:22:53+01:00</time>
      </trkpt>
      <trkpt lat="48.80869" lon="2.08941">
        <ele>113</ele>
        <time>2014-02-23T10:22:57+01:00</time>
      </trkpt>
      <trkpt lat="48.80861" lon="2.08949">
        <ele>113</ele>
        <time>2014-02-23T10:23:01+01:00</time>
      </trkpt>
      <trkpt lat="48.80852" lon="2.08958">
        <ele>112</ele>
        <time>2014-02-23T10:23:05+01:00</time>
      </trkpt>
      <trkpt lat="48.80843" lon="2.08966">
        <ele>111</ele>
        <time>2014-02-23T10:23:09+01:00</time>
      </trkpt>
      <trkpt lat="48.80835" lon="2.08974">
        <ele>110</ele>
        <time>2014-02-23T10:23:29+01:00</time>
      </trkpt>
      <trkpt lat="48.8079" lon="2.09016">
        <ele>109</ele>
        <time>2014-02-23T10:23:33+01:00</time>
      </trkpt>
      <trkpt lat="48.80782" lon="2.09025">
        <ele>108</ele>
        <time>2014-02-23T10:23:37+01:00</time>
      </trkpt>
      <trkpt lat="48.80773" lon="2.09031">
        <ele>110</ele>
        <time>2014-02-23T10:23:41+01:00</time>
      </trkpt>
      <trkpt lat="48.80764" lon="2.09039">
        <ele>110</ele>
        <time>2014-02-23T10:23:45+01:00</time>
      </trkpt>
      <trkpt lat="48.80755" lon="2.09046">
        <ele>110</ele>
        <time>2014-02-23T10:23:49+01:00</time>
      </trkpt>
      <trkpt lat="48.80747" lon="2.09053">
        <ele>110</ele>
        <time>2014-02-23T10:23:53+01:00</time>
      </trkpt>
      <trkpt lat="48.80739" lon="2.09061">
        <ele>109</ele>
        <time>2014-02-23T10:23:57+01:00</time>
      </trkpt>
      <trkpt lat="48.80731" lon="2.09069">
        <ele>108</ele>
        <time>2014-02-23T10:24:01+01:00</time>
      </trkpt>
      <trkpt lat="48.80722" lon="2.09075">
        <ele>109</ele>
        <time>2014-02-23T10:24:05+01:00</time>
      </trkpt>
      <trkpt lat="48.80713" lon="2.09082">
        <ele>108</ele>
        <time>2014-02-23T10:24:09+01:00</time>
      </trkpt>
      <trkpt lat="48.80705" lon="2.09091">
        <ele>109</ele>
        <time>2014-02-23T10:24:13+01:00</time>
      </trkpt>
      <trkpt lat="48.80698" lon="2.091">
        <ele>111</ele>
        <time>2014-02-23T10:24:34+01:00</time>
      </trkpt>
      <trkpt lat="48.80691" lon="2.09105">
        <ele>112</ele>
        <time>2014-02-23T10:24:34+01:00</time>
      </trkpt>
      <trkpt lat="48.80684" lon="2.09112">
        <ele>113</ele>
        <time>2014-02-23T10:24:34+01:00</time>
      </trkpt>
      <trkpt lat="48.80657" lon="2.09139">
        <ele>115</ele>
        <time>2014-02-23T10:24:41+01:00</time>
      </trkpt>
      <trkpt lat="48.80649" lon="2.09146">
        <ele>114</ele>
        <time>2014-02-23T10:24:45+01:00</time>
      </trkpt>
      <trkpt lat="48.8064" lon="2.09155">
        <ele>115</ele>
        <time>2014-02-23T10:24:49+01:00</time>
      </trkpt>
      <trkpt lat="48.80631" lon="2.09163">
        <ele>118</ele>
        <time>2014-02-23T10:24:53+01:00</time>
      </trkpt>
      <trkpt lat="48.80623" lon="2.09172">
        <ele>117</ele>
        <time>2014-02-23T10:24:57+01:00</time>
      </trkpt>
      <trkpt lat="48.80614" lon="2.0918">
        <ele>115</ele>
        <time>2014-02-23T10:25:01+01:00</time>
      </trkpt>
      <trkpt lat="48.80607" lon="2.09188">
        <ele>114</ele>
        <time>2014-02-23T10:25:05+01:00</time>
      </trkpt>
      <trkpt lat="48.80597" lon="2.09196">
        <ele>112</ele>
        <time>2014-02-23T10:25:09+01:00</time>
      </trkpt>
      <trkpt lat="48.80589" lon="2.09204">
        <ele>113</ele>
        <time>2014-02-23T10:25:13+01:00</time>
      </trkpt>
      <trkpt lat="48.80579" lon="2.09208">
        <ele>113</ele>
        <time>2014-02-23T10:25:31+01:00</time>
      </trkpt>
      <trkpt lat="48.80541" lon="2.0925">
        <ele>113</ele>
        <time>2014-02-23T10:25:37+01:00</time>
      </trkpt>
      <trkpt lat="48.80532" lon="2.09258">
        <ele>113</ele>
        <time>2014-02-23T10:25:41+01:00</time>
      </trkpt>
      <trkpt lat="48.80524" lon="2.09266">
        <ele>113</ele>
        <time>2014-02-23T10:25:45+01:00</time>
      </trkpt>
      <trkpt lat="48.80518" lon="2.09279">
        <ele>113</ele>
        <time>2014-02-23T10:25:49+01:00</time>
      </trkpt>
      <trkpt lat="48.80514" lon="2.09294">
        <ele>113</ele>
        <time>2014-02-23T10:25:53+01:00</time>
      </trkpt>
      <trkpt lat="48.8051" lon="2.0931">
        <ele>114</ele>
        <time>2014-02-23T10:25:57+01:00</time>
      </trkpt>
      <trkpt lat="48.80508" lon="2.09325">
        <ele>114</ele>
        <time>2014-02-23T10:26:01+01:00</time>
      </trkpt>
      <trkpt lat="48.80505" lon="2.09339">
        <ele>114</ele>
        <time>2014-02-23T10:26:05+01:00</time>
      </trkpt>
      <trkpt lat="48.80502" lon="2.09353">
        <ele>113</ele>
        <time>2014-02-23T10:26:09+01:00</time>
      </trkpt>
      <trkpt lat="48.80499" lon="2.09367">
        <ele>113</ele>
        <time>2014-02-23T10:26:13+01:00</time>
      </trkpt>
      <trkpt lat="48.80496" lon="2.09383">
        <ele>112</ele>
        <time>2014-02-23T10:26:29+01:00</time>
      </trkpt>
      <trkpt lat="48.80482" lon="2.09439">
        <ele>114</ele>
        <time>2014-02-23T10:26:33+01:00</time>
      </trkpt>
      <trkpt lat="48.80474" lon="2.0945">
        <ele>114</ele>
        <time>2014-02-23T10:26:37+01:00</time>
      </trkpt>
      <trkpt lat="48.80468" lon="2.09462">
        <ele>115</ele>
        <time>2014-02-23T10:26:41+01:00</time>
      </trkpt>
      <trkpt lat="48.80462" lon="2.09473">
        <ele>114</ele>
        <time>2014-02-23T10:26:45+01:00</time>
      </trkpt>
      <trkpt lat="48.80456" lon="2.09484">
        <ele>115</ele>
        <time>2014-02-23T10:26:49+01:00</time>
      </trkpt>
      <trkpt lat="48.8045" lon="2.09496">
        <ele>114</ele>
        <time>2014-02-23T10:26:53+01:00</time>
      </trkpt>
      <trkpt lat="48.80446" lon="2.09508">
        <ele>114</ele>
        <time>2014-02-23T10:26:57+01:00</time>
      </trkpt>
      <trkpt lat="48.80443" lon="2.09521">
        <ele>113</ele>
        <time>2014-02-23T10:27:01+01:00</time>
      </trkpt>
      <trkpt lat="48.8044" lon="2.09535">
        <ele>115</ele>
        <time>2014-02-23T10:27:05+01:00</time>
      </trkpt>
      <trkpt lat="48.80435" lon="2.0955">
        <ele>115</ele>
        <time>2014-02-23T10:27:09+01:00</time>
      </trkpt>
      <trkpt lat="48.80431" lon="2.09563">
        <ele>116</ele>
        <time>2014-02-23T10:27:13+01:00</time>
      </trkpt>
      <trkpt lat="48.80428" lon="2.09573">
        <ele>115</ele>
        <time>2014-02-23T10:27:17+01:00</time>
      </trkpt>
      <trkpt lat="48.8042" lon="2.09576">
        <ele>115</ele>
        <time>2014-02-23T10:27:37+01:00</time>
      </trkpt>
      <trkpt lat="48.80377" lon="2.09586">
        <ele>118</ele>
        <time>2014-02-23T10:27:41+01:00</time>
      </trkpt>
      <trkpt lat="48.80372" lon="2.09598">
        <ele>116</ele>
        <time>2014-02-23T10:27:45+01:00</time>
      </trkpt>
      <trkpt lat="48.8037" lon="2.09611">
        <ele>117</ele>
        <time>2014-02-23T10:27:49+01:00</time>
      </trkpt>
      <trkpt lat="48.80369" lon="2.09616">
        <ele>119</ele>
        <time>2014-02-23T10:27:53+01:00</time>
      </trkpt>
      <trkpt lat="48.80366" lon="2.09635">
        <ele>119</ele>
        <time>2014-02-23T10:28:05+01:00</time>
      </trkpt>
      <trkpt lat="48.80365" lon="2.09645">
        <ele>118</ele>
        <time>2014-02-23T10:28:09+01:00</time>
      </trkpt>
      <trkpt lat="48.80367" lon="2.09657">
        <ele>116</ele>
        <time>2014-02-23T10:28:13+01:00</time>
      </trkpt>
      <trkpt lat="48.80372" lon="2.09667">
        <ele>115</ele>
        <time>2014-02-23T10:28:17+01:00</time>
      </trkpt>
      <trkpt lat="48.80378" lon="2.09679">
        <ele>115</ele>
        <time>2014-02-23T10:28:21+01:00</time>
      </trkpt>
      <trkpt lat="48.80383" lon="2.0969">
        <ele>115</ele>
        <time>2014-02-23T10:28:40+01:00</time>
      </trkpt>
      <trkpt lat="48.80387" lon="2.09704">
        <ele>112</ele>
        <time>2014-02-23T10:28:41+01:00</time>
      </trkpt>
      <trkpt lat="48.80375" lon="2.09779">
        <ele>115</ele>
        <time>2014-02-23T10:28:45+01:00</time>
      </trkpt>
      <trkpt lat="48.80378" lon="2.09796">
        <ele>114</ele>
        <time>2014-02-23T10:28:49+01:00</time>
      </trkpt>
      <trkpt lat="48.80384" lon="2.09808">
        <ele>113</ele>
        <time>2014-02-23T10:28:53+01:00</time>
      </trkpt>
      <trkpt lat="48.80391" lon="2.0982">
        <ele>113</ele>
        <time>2014-02-23T10:28:57+01:00</time>
      </trkpt>
      <trkpt lat="48.80396" lon="2.09834">
        <ele>114</ele>
        <time>2014-02-23T10:29:01+01:00</time>
      </trkpt>
      <trkpt lat="48.80401" lon="2.09849">
        <ele>114</ele>
        <time>2014-02-23T10:29:05+01:00</time>
      </trkpt>
      <trkpt lat="48.80405" lon="2.09864">
        <ele>113</ele>
        <time>2014-02-23T10:29:09+01:00</time>
      </trkpt>
      <trkpt lat="48.80411" lon="2.09877">
        <ele>112</ele>
        <time>2014-02-23T10:29:13+01:00</time>
      </trkpt>
      <trkpt lat="48.80416" lon="2.0989">
        <ele>112</ele>
        <time>2014-02-23T10:29:17+01:00</time>
      </trkpt>
      <trkpt lat="48.80421" lon="2.09904">
        <ele>110</ele>
        <time>2014-02-23T10:29:22+01:00</time>
      </trkpt>
      <trkpt lat="48.80426" lon="2.09919">
        <ele>111</ele>
        <time>2014-02-23T10:29:46+01:00</time>
      </trkpt>
      <trkpt lat="48.80464" lon="2.10018">
        <ele>115</ele>
        <time>2014-02-23T10:29:53+01:00</time>
      </trkpt>
      <trkpt lat="48.80468" lon="2.10029">
        <ele>115</ele>
        <time>2014-02-23T10:29:57+01:00</time>
      </trkpt>
      <trkpt lat="48.80473" lon="2.10044">
        <ele>116</ele>
        <time>2014-02-23T10:30:01+01:00</time>
      </trkpt>
      <trkpt lat="48.80479" lon="2.10057">
        <ele>117</ele>
        <time>2014-02-23T10:30:05+01:00</time>
      </trkpt>
      <trkpt lat="48.80484" lon="2.1007">
        <ele>116</ele>
        <time>2014-02-23T10:30:09+01:00</time>
      </trkpt>
      <trkpt lat="48.8049" lon="2.10083">
        <ele>117</ele>
        <time>2014-02-23T10:30:13+01:00</time>
      </trkpt>
      <trkpt lat="48.80495" lon="2.10096">
        <ele>117</ele>
        <time>2014-02-23T10:30:17+01:00</time>
      </trkpt>
      <trkpt lat="48.80501" lon="2.10109">
        <ele>117</ele>
        <time>2014-02-23T10:30:21+01:00</time>
      </trkpt>
      <trkpt lat="48.80506" lon="2.10121">
        <ele>116</ele>
        <time>2014-02-23T10:30:25+01:00</time>
      </trkpt>
      <trkpt lat="48.80512" lon="2.10133">
        <ele>116</ele>
        <time>2014-02-23T10:30:49+01:00</time>
      </trkpt>
      <trkpt lat="48.80546" lon="2.10207">
        <ele>113</ele>
        <time>2014-02-23T10:30:53+01:00</time>
      </trkpt>
      <trkpt lat="48.80552" lon="2.1022">
        <ele>113</ele>
        <time>2014-02-23T10:30:57+01:00</time>
      </trkpt>
      <trkpt lat="48.80557" lon="2.10233">
        <ele>113</ele>
        <time>2014-02-23T10:31:01+01:00</time>
      </trkpt>
      <trkpt lat="48.80562" lon="2.10248">
        <ele>115</ele>
        <time>2014-02-23T10:31:05+01:00</time>
      </trkpt>
      <trkpt lat="48.80567" lon="2.10261">
        <ele>114</ele>
        <time>2014-02-23T10:31:09+01:00</time>
      </trkpt>
      <trkpt lat="48.80572" lon="2.10275">
        <ele>115</ele>
        <time>2014-02-23T10:31:13+01:00</time>
      </trkpt>
      <trkpt lat="48.80578" lon="2.10289">
        <ele>114</ele>
        <time>2014-02-23T10:31:17+01:00</time>
      </trkpt>
      <trkpt lat="48.80583" lon="2.10302">
        <ele>114</ele>
        <time>2014-02-23T10:31:21+01:00</time>
      </trkpt>
      <trkpt lat="48.80588" lon="2.10315">
        <ele>114</ele>
        <time>2014-02-23T10:31:25+01:00</time>
      </trkpt>
      <trkpt lat="48.80594" lon="2.10328">
        <ele>113</ele>
        <time>2014-02-23T10:31:29+01:00</time>
      </trkpt>
      <trkpt lat="48.80601" lon="2.10341">
        <ele>113</ele>
        <time>2014-02-23T10:31:43+01:00</time>
      </trkpt>
      <trkpt lat="48.80606" lon="2.10355">
        <ele>113</ele>
        <time>2014-02-23T10:31:43+01:00</time>
      </trkpt>
      <trkpt lat="48.80622" lon="2.10393">
        <ele>112</ele>
        <time>2014-02-23T10:31:49+01:00</time>
      </trkpt>
      <trkpt lat="48.80625" lon="2.10407">
        <ele>112</ele>
        <time>2014-02-23T10:31:53+01:00</time>
      </trkpt>
      <trkpt lat="48.80623" lon="2.10421">
        <ele>113</ele>
        <time>2014-02-23T10:31:57+01:00</time>
      </trkpt>
      <trkpt lat="48.8062" lon="2.10434">
        <ele>112</ele>
        <time>2014-02-23T10:32:01+01:00</time>
      </trkpt>
      <trkpt lat="48.80622" lon="2.10449">
        <ele>111</ele>
        <time>2014-02-23T10:32:05+01:00</time>
      </trkpt>
      <trkpt lat="48.80627" lon="2.10461">
        <ele>111</ele>
        <time>2014-02-23T10:32:09+01:00</time>
      </trkpt>
      <trkpt lat="48.80632" lon="2.10473">
        <ele>110</ele>
        <time>2014-02-23T10:32:13+01:00</time>
      </trkpt>
      <trkpt lat="48.80636" lon="2.10486">
        <ele>110</ele>
        <time>2014-02-23T10:32:17+01:00</time>
      </trkpt>
      <trkpt lat="48.80641" lon="2.10498">
        <ele>111</ele>
        <time>2014-02-23T10:32:21+01:00</time>
      </trkpt>
      <trkpt lat="48.80646" lon="2.10511">
        <ele>111</ele>
        <time>2014-02-23T10:32:25+01:00</time>
      </trkpt>
      <trkpt lat="48.80651" lon="2.10524">
        <ele>111</ele>
        <time>2014-02-23T10:32:29+01:00</time>
      </trkpt>
      <trkpt lat="48.80655" lon="2.10537">
        <ele>109</ele>
        <time>2014-02-23T10:32:47+01:00</time>
      </trkpt>
      <trkpt lat="48.80659" lon="2.1055">
        <ele>109</ele>
        <time>2014-02-23T10:32:48+01:00</time>
      </trkpt>
      <trkpt lat="48.80664" lon="2.10562">
        <ele>110</ele>
        <time>2014-02-23T10:32:48+01:00</time>
      </trkpt>
      <trkpt lat="48.8068" lon="2.10598">
        <ele>109</ele>
        <time>2014-02-23T10:32:53+01:00</time>
      </trkpt>
      <trkpt lat="48.80684" lon="2.10611">
        <ele>108</ele>
        <time>2014-02-23T10:32:57+01:00</time>
      </trkpt>
      <trkpt lat="48.8069" lon="2.10623">
        <ele>109</ele>
        <time>2014-02-23T10:33:01+01:00</time>
      </trkpt>
      <trkpt lat="48.80698" lon="2.10633">
        <ele>111</ele>
        <time>2014-02-23T10:33:05+01:00</time>
      </trkpt>
      <trkpt lat="48.80703" lon="2.10644">
        <ele>108</ele>
        <time>2014-02-23T10:33:09+01:00</time>
      </trkpt>
      <trkpt lat="48.80707" lon="2.10657">
        <ele>110</ele>
        <time>2014-02-23T10:33:13+01:00</time>
      </trkpt>
      <trkpt lat="48.80713" lon="2.10669">
        <ele>110</ele>
        <time>2014-02-23T10:33:17+01:00</time>
      </trkpt>
      <trkpt lat="48.80718" lon="2.10676">
        <ele>110</ele>
        <time>2014-02-23T10:33:21+01:00</time>
      </trkpt>
      <trkpt lat="48.80725" lon="2.10689">
        <ele>109</ele>
        <time>2014-02-23T10:33:25+01:00</time>
      </trkpt>
      <trkpt lat="48.8073" lon="2.10702">
        <ele>109</ele>
        <time>2014-02-23T10:33:29+01:00</time>
      </trkpt>
      <trkpt lat="48.8073" lon="2.10718">
        <ele>107</ele>
        <time>2014-02-23T10:33:33+01:00</time>
      </trkpt>
      <trkpt lat="48.80728" lon="2.10735">
        <ele>107</ele>
        <time>2014-02-23T10:33:51+01:00</time>
      </trkpt>
      <trkpt lat="48.80691" lon="2.10766">
        <ele>109</ele>
        <time>2014-02-23T10:33:57+01:00</time>
      </trkpt>
      <trkpt lat="48.80682" lon="2.10761">
        <ele>110</ele>
        <time>2014-02-23T10:34:01+01:00</time>
      </trkpt>
      <trkpt lat="48.80674" lon="2.10757">
        <ele>112</ele>
        <time>2014-02-23T10:34:05+01:00</time>
      </trkpt>
      <trkpt lat="48.80666" lon="2.10752">
        <ele>114</ele>
        <time>2014-02-23T10:34:09+01:00</time>
      </trkpt>
      <trkpt lat="48.80658" lon="2.10748">
        <ele>115</ele>
        <time>2014-02-23T10:34:13+01:00</time>
      </trkpt>
      <trkpt lat="48.80651" lon="2.10744">
        <ele>114</ele>
        <time>2014-02-23T10:34:17+01:00</time>
      </trkpt>
      <trkpt lat="48.80642" lon="2.10739">
        <ele>114</ele>
        <time>2014-02-23T10:34:21+01:00</time>
      </trkpt>
      <trkpt lat="48.80633" lon="2.10736">
        <ele>115</ele>
        <time>2014-02-23T10:34:25+01:00</time>
      </trkpt>
      <trkpt lat="48.80625" lon="2.10732">
        <ele>115</ele>
        <time>2014-02-23T10:34:29+01:00</time>
      </trkpt>
      <trkpt lat="48.80615" lon="2.1073">
        <ele>116</ele>
        <time>2014-02-23T10:34:33+01:00</time>
      </trkpt>
      <trkpt lat="48.80606" lon="2.10724">
        <ele>115</ele>
        <time>2014-02-23T10:34:37+01:00</time>
      </trkpt>
      <trkpt lat="48.80596" lon="2.10718">
        <ele>115</ele>
        <time>2014-02-23T10:34:54+01:00</time>
      </trkpt>
      <trkpt lat="48.80562" lon="2.10699">
        <ele>114</ele>
        <time>2014-02-23T10:34:57+01:00</time>
      </trkpt>
      <trkpt lat="48.80553" lon="2.10694">
        <ele>113</ele>
        <time>2014-02-23T10:35:01+01:00</time>
      </trkpt>
      <trkpt lat="48.80545" lon="2.10689">
        <ele>114</ele>
        <time>2014-02-23T10:35:05+01:00</time>
      </trkpt>
      <trkpt lat="48.80537" lon="2.10684">
        <ele>115</ele>
        <time>2014-02-23T10:35:09+01:00</time>
      </trkpt>
      <trkpt lat="48.80529" lon="2.1068">
        <ele>115</ele>
        <time>2014-02-23T10:35:13+01:00</time>
      </trkpt>
      <trkpt lat="48.80521" lon="2.10674">
        <ele>114</ele>
        <time>2014-02-23T10:35:17+01:00</time>
      </trkpt>
      <trkpt lat="48.80512" lon="2.10669">
        <ele>114</ele>
        <time>2014-02-23T10:35:21+01:00</time>
      </trkpt>
      <trkpt lat="48.80503" lon="2.10664">
        <ele>115</ele>
        <time>2014-02-23T10:35:25+01:00</time>
      </trkpt>
      <trkpt lat="48.80494" lon="2.10659">
        <ele>114</ele>
        <time>2014-02-23T10:35:29+01:00</time>
      </trkpt>
      <trkpt lat="48.80486" lon="2.10654">
        <ele>114</ele>
        <time>2014-02-23T10:35:33+01:00</time>
      </trkpt>
      <trkpt lat="48.80478" lon="2.10649">
        <ele>117</ele>
        <time>2014-02-23T10:35:37+01:00</time>
      </trkpt>
      <trkpt lat="48.8047" lon="2.10643">
        <ele>116</ele>
        <time>2014-02-23T10:35:41+01:00</time>
      </trkpt>
      <trkpt lat="48.80462" lon="2.10639">
        <ele>114</ele>
        <time>2014-02-23T10:35:56+01:00</time>
      </trkpt>
      <trkpt lat="48.80453" lon="2.10634">
        <ele>115</ele>
        <time>2014-02-23T10:35:56+01:00</time>
      </trkpt>
      <trkpt lat="48.80444" lon="2.10628">
        <ele>116</ele>
        <time>2014-02-23T10:35:57+01:00</time>
      </trkpt>
      <trkpt lat="48.80426" lon="2.10615">
        <ele>118</ele>
        <time>2014-02-23T10:36:01+01:00</time>
      </trkpt>
      <trkpt lat="48.80418" lon="2.1061">
        <ele>118</ele>
        <time>2014-02-23T10:36:05+01:00</time>
      </trkpt>
      <trkpt lat="48.8041" lon="2.10606">
        <ele>118</ele>
        <time>2014-02-23T10:36:09+01:00</time>
      </trkpt>
      <trkpt lat="48.80402" lon="2.10602">
        <ele>119</ele>
        <time>2014-02-23T10:36:13+01:00</time>
      </trkpt>
      <trkpt lat="48.80396" lon="2.10598">
        <ele>118</ele>
        <time>2014-02-23T10:36:17+01:00</time>
      </trkpt>
      <trkpt lat="48.8039" lon="2.10596">
        <ele>116</ele>
        <time>2014-02-23T10:36:21+01:00</time>
      </trkpt>
      <trkpt lat="48.80382" lon="2.1059">
        <ele>116</ele>
        <time>2014-02-23T10:36:25+01:00</time>
      </trkpt>
      <trkpt lat="48.80374" lon="2.10583">
        <ele>116</ele>
        <time>2014-02-23T10:36:29+01:00</time>
      </trkpt>
      <trkpt lat="48.80366" lon="2.10577">
        <ele>116</ele>
        <time>2014-02-23T10:36:33+01:00</time>
      </trkpt>
      <trkpt lat="48.8036" lon="2.10572">
        <ele>119</ele>
        <time>2014-02-23T10:36:37+01:00</time>
      </trkpt>
      <trkpt lat="48.80356" lon="2.10568">
        <ele>121</ele>
        <time>2014-02-23T10:36:41+01:00</time>
      </trkpt>
      <trkpt lat="48.80347" lon="2.1058">
        <ele>120</ele>
        <time>2014-02-23T10:36:57+01:00</time>
      </trkpt>
      <trkpt lat="48.80345" lon="2.10584">
        <ele>120</ele>
        <time>2014-02-23T10:37:01+01:00</time>
      </trkpt>
      <trkpt lat="48.8034" lon="2.10582">
        <ele>120</ele>
        <time>2014-02-23T10:37:05+01:00</time>
      </trkpt>
      <trkpt lat="48.80332" lon="2.10576">
        <ele>121</ele>
        <time>2014-02-23T10:37:09+01:00</time>
      </trkpt>
      <trkpt lat="48.80324" lon="2.10572">
        <ele>119</ele>
        <time>2014-02-23T10:37:13+01:00</time>
      </trkpt>
      <trkpt lat="48.80319" lon="2.10567">
        <ele>121</ele>
        <time>2014-02-23T10:37:17+01:00</time>
      </trkpt>
      <trkpt lat="48.80316" lon="2.1056">
        <ele>122</ele>
        <time>2014-02-23T10:37:21+01:00</time>
      </trkpt>
      <trkpt lat="48.80309" lon="2.10549">
        <ele>122</ele>
        <time>2014-02-23T10:37:25+01:00</time>
      </trkpt>
      <trkpt lat="48.80299" lon="2.10542">
        <ele>121</ele>
        <time>2014-02-23T10:37:29+01:00</time>
      </trkpt>
      <trkpt lat="48.80289" lon="2.10535">
        <ele>122</ele>
        <time>2014-02-23T10:37:33+01:00</time>
      </trkpt>
      <trkpt lat="48.80279" lon="2.10529">
        <ele>120</ele>
        <time>2014-02-23T10:37:37+01:00</time>
      </trkpt>
      <trkpt lat="48.80269" lon="2.10523">
        <ele>120</ele>
        <time>2014-02-23T10:37:41+01:00</time>
      </trkpt>
      <trkpt lat="48.80258" lon="2.1052">
        <ele>121</ele>
        <time>2014-02-23T10:37:45+01:00</time>
      </trkpt>
      <trkpt lat="48.80248" lon="2.10514">
        <ele>121</ele>
        <time>2014-02-23T10:37:56+01:00</time>
      </trkpt>
      <trkpt lat="48.80219" lon="2.10496">
        <ele>120</ele>
        <time>2014-02-23T10:38:01+01:00</time>
      </trkpt>
      <trkpt lat="48.80209" lon="2.10489">
        <ele>121</ele>
        <time>2014-02-23T10:38:05+01:00</time>
      </trkpt>
      <trkpt lat="48.80201" lon="2.10482">
        <ele>121</ele>
        <time>2014-02-23T10:38:09+01:00</time>
      </trkpt>
      <trkpt lat="48.80192" lon="2.10475">
        <ele>122</ele>
        <time>2014-02-23T10:38:13+01:00</time>
      </trkpt>
      <trkpt lat="48.80183" lon="2.10471">
        <ele>119</ele>
        <time>2014-02-23T10:38:17+01:00</time>
      </trkpt>
      <trkpt lat="48.80174" lon="2.10466">
        <ele>119</ele>
        <time>2014-02-23T10:38:21+01:00</time>
      </trkpt>
      <trkpt lat="48.80165" lon="2.10462">
        <ele>120</ele>
        <time>2014-02-23T10:38:25+01:00</time>
      </trkpt>
      <trkpt lat="48.80156" lon="2.10455">
        <ele>119</ele>
        <time>2014-02-23T10:38:29+01:00</time>
      </trkpt>
      <trkpt lat="48.80146" lon="2.10451">
        <ele>119</ele>
        <time>2014-02-23T10:38:33+01:00</time>
      </trkpt>
      <trkpt lat="48.80137" lon="2.10446">
        <ele>117</ele>
        <time>2014-02-23T10:38:37+01:00</time>
      </trkpt>
      <trkpt lat="48.80128" lon="2.10441">
        <ele>116</ele>
        <time>2014-02-23T10:38:41+01:00</time>
      </trkpt>
      <trkpt lat="48.80118" lon="2.10434">
        <ele>116</ele>
        <time>2014-02-23T10:38:45+01:00</time>
      </trkpt>
      <trkpt lat="48.80109" lon="2.10429">
        <ele>115</ele>
        <time>2014-02-23T10:39:03+01:00</time>
      </trkpt>
      <trkpt lat="48.80062" lon="2.10403">
        <ele>113</ele>
        <time>2014-02-23T10:39:09+01:00</time>
      </trkpt>
      <trkpt lat="48.80053" lon="2.10395">
        <ele>115</ele>
        <time>2014-02-23T10:39:13+01:00</time>
      </trkpt>
      <trkpt lat="48.80044" lon="2.10389">
        <ele>114</ele>
        <time>2014-02-23T10:39:17+01:00</time>
      </trkpt>
      <trkpt lat="48.80034" lon="2.10384">
        <ele>114</ele>
        <time>2014-02-23T10:39:21+01:00</time>
      </trkpt>
      <trkpt lat="48.80025" lon="2.10379">
        <ele>115</ele>
        <time>2014-02-23T10:39:25+01:00</time>
      </trkpt>
      <trkpt lat="48.80015" lon="2.10372">
        <ele>115</ele>
        <time>2014-02-23T10:39:29+01:00</time>
      </trkpt>
      <trkpt lat="48.80006" lon="2.10365">
        <ele>116</ele>
        <time>2014-02-23T10:39:33+01:00</time>
      </trkpt>
      <trkpt lat="48.79997" lon="2.10361">
        <ele>116</ele>
        <time>2014-02-23T10:39:37+01:00</time>
      </trkpt>
      <trkpt lat="48.79988" lon="2.10356">
        <ele>118</ele>
        <time>2014-02-23T10:39:41+01:00</time>
      </trkpt>
      <trkpt lat="48.79978" lon="2.10351">
        <ele>118</ele>
        <time>2014-02-23T10:39:45+01:00</time>
      </trkpt>
      <trkpt lat="48.7997" lon="2.10347">
        <ele>118</ele>
        <time>2014-02-23T10:39:49+01:00</time>
      </trkpt>
      <trkpt lat="48.7996" lon="2.10342">
        <ele>118</ele>
        <time>2014-02-23T10:40:13+01:00</time>
      </trkpt>
      <trkpt lat="48.79951" lon="2.10337">
        <ele>119</ele>
        <time>2014-02-23T10:40:13+01:00</time>
      </trkpt>
      <trkpt lat="48.79908" lon="2.10312">
        <ele>117</ele>
        <time>2014-02-23T10:40:17+01:00</time>
      </trkpt>
      <trkpt lat="48.7991" lon="2.10312">
        <ele>117</ele>
        <time>2014-02-23T10:40:21+01:00</time>
      </trkpt>
      <trkpt lat="48.79906" lon="2.1031">
        <ele>118</ele>
        <time>2014-02-23T10:40:25+01:00</time>
      </trkpt>
      <trkpt lat="48.79898" lon="2.10305">
        <ele>118</ele>
        <time>2014-02-23T10:40:29+01:00</time>
      </trkpt>
      <trkpt lat="48.79888" lon="2.10299">
        <ele>119</ele>
        <time>2014-02-23T10:40:33+01:00</time>
      </trkpt>
      <trkpt lat="48.79878" lon="2.10293">
        <ele>120</ele>
        <time>2014-02-23T10:40:37+01:00</time>
      </trkpt>
      <trkpt lat="48.79869" lon="2.10288">
        <ele>118</ele>
        <time>2014-02-23T10:40:41+01:00</time>
      </trkpt>
      <trkpt lat="48.7986" lon="2.10291">
        <ele>119</ele>
        <time>2014-02-23T10:40:45+01:00</time>
      </trkpt>
      <trkpt lat="48.79855" lon="2.10303">
        <ele>120</ele>
        <time>2014-02-23T10:40:49+01:00</time>
      </trkpt>
      <trkpt lat="48.79852" lon="2.10317">
        <ele>120</ele>
        <time>2014-02-23T10:41:14+01:00</time>
      </trkpt>
      <trkpt lat="48.79827" lon="2.10417">
        <ele>120</ele>
        <time>2014-02-23T10:41:21+01:00</time>
      </trkpt>
      <trkpt lat="48.79824" lon="2.10432">
        <ele>120</ele>
        <time>2014-02-23T10:41:25+01:00</time>
      </trkpt>
      <trkpt lat="48.79821" lon="2.10446">
        <ele>121</ele>
        <time>2014-02-23T10:41:29+01:00</time>
      </trkpt>
      <trkpt lat="48.79818" lon="2.1046">
        <ele>122</ele>
        <time>2014-02-23T10:41:33+01:00</time>
      </trkpt>
      <trkpt lat="48.79815" lon="2.10474">
        <ele>120</ele>
        <time>2014-02-23T10:41:37+01:00</time>
      </trkpt>
      <trkpt lat="48.79812" lon="2.10487">
        <ele>121</ele>
        <time>2014-02-23T10:41:41+01:00</time>
      </trkpt>
      <trkpt lat="48.79809" lon="2.10501">
        <ele>120</ele>
        <time>2014-02-23T10:41:45+01:00</time>
      </trkpt>
      <trkpt lat="48.79807" lon="2.10515">
        <ele>120</ele>
        <time>2014-02-23T10:41:49+01:00</time>
      </trkpt>
      <trkpt lat="48.79804" lon="2.10528">
        <ele>120</ele>
        <time>2014-02-23T10:41:53+01:00</time>
      </trkpt>
      <trkpt lat="48.79801" lon="2.10542">
        <ele>120</ele>
        <time>2014-02-23T10:42:18+01:00</time>
      </trkpt>
      <trkpt lat="48.79783" lon="2.10633">
        <ele>122</ele>
        <time>2014-02-23T10:42:25+01:00</time>
      </trkpt>
      <trkpt lat="48.7978" lon="2.10647">
        <ele>122</ele>
        <time>2014-02-23T10:42:29+01:00</time>
      </trkpt>
      <trkpt lat="48.79778" lon="2.1066">
        <ele>121</ele>
        <time>2014-02-23T10:42:33+01:00</time>
      </trkpt>
      <trkpt lat="48.79775" lon="2.10673">
        <ele>121</ele>
        <time>2014-02-23T10:42:37+01:00</time>
      </trkpt>
      <trkpt lat="48.79773" lon="2.10687">
        <ele>121</ele>
        <time>2014-02-23T10:42:41+01:00</time>
      </trkpt>
      <trkpt lat="48.7977" lon="2.10701">
        <ele>122</ele>
        <time>2014-02-23T10:42:45+01:00</time>
      </trkpt>
      <trkpt lat="48.79767" lon="2.10715">
        <ele>123</ele>
        <time>2014-02-23T10:42:49+01:00</time>
      </trkpt>
      <trkpt lat="48.79765" lon="2.10728">
        <ele>123</ele>
        <time>2014-02-23T10:42:53+01:00</time>
      </trkpt>
      <trkpt lat="48.79763" lon="2.10741">
        <ele>123</ele>
        <time>2014-02-23T10:43:20+01:00</time>
      </trkpt>
      <trkpt lat="48.7976" lon="2.10754">
        <ele>125</ele>
        <time>2014-02-23T10:43:21+01:00</time>
      </trkpt>
      <trkpt lat="48.79744" lon="2.10831">
        <ele>126</ele>
        <time>2014-02-23T10:43:25+01:00</time>
      </trkpt>
      <trkpt lat="48.79742" lon="2.10845">
        <ele>126</ele>
        <time>2014-02-23T10:43:29+01:00</time>
      </trkpt>
      <trkpt lat="48.79739" lon="2.10861">
        <ele>126</ele>
        <time>2014-02-23T10:43:33+01:00</time>
      </trkpt>
      <trkpt lat="48.79736" lon="2.10875">
        <ele>125</ele>
        <time>2014-02-23T10:43:37+01:00</time>
      </trkpt>
      <trkpt lat="48.79733" lon="2.10889">
        <ele>127</ele>
        <time>2014-02-23T10:43:41+01:00</time>
      </trkpt>
      <trkpt lat="48.7973" lon="2.10903">
        <ele>126</ele>
        <time>2014-02-23T10:43:45+01:00</time>
      </trkpt>
      <trkpt lat="48.79727" lon="2.10916">
        <ele>126</ele>
        <time>2014-02-23T10:43:49+01:00</time>
      </trkpt>
      <trkpt lat="48.79725" lon="2.1093">
        <ele>126</ele>
        <time>2014-02-23T10:43:53+01:00</time>
      </trkpt>
      <trkpt lat="48.79721" lon="2.10943">
        <ele>126</ele>
        <time>2014-02-23T10:43:57+01:00</time>
      </trkpt>
      <trkpt lat="48.79719" lon="2.10956">
        <ele>125</ele>
        <time>2014-02-23T10:44:24+01:00</time>
      </trkpt>
      <trkpt lat="48.79696" lon="2.11055">
        <ele>123</ele>
        <time>2014-02-23T10:44:29+01:00</time>
      </trkpt>
      <trkpt lat="48.79692" lon="2.11069">
        <ele>123</ele>
        <time>2014-02-23T10:44:33+01:00</time>
      </trkpt>
      <trkpt lat="48.79689" lon="2.11083">
        <ele>124</ele>
        <time>2014-02-23T10:44:37+01:00</time>
      </trkpt>
      <trkpt lat="48.79686" lon="2.11098">
        <ele>124</ele>
        <time>2014-02-23T10:44:41+01:00</time>
      </trkpt>
      <trkpt lat="48.79683" lon="2.11112">
        <ele>124</ele>
        <time>2014-02-23T10:44:45+01:00</time>
      </trkpt>
      <trkpt lat="48.79681" lon="2.11123">
        <ele>123</ele>
        <time>2014-02-23T10:44:49+01:00</time>
      </trkpt>
      <trkpt lat="48.7968" lon="2.11132">
        <ele>123</ele>
        <time>2014-02-23T10:44:53+01:00</time>
      </trkpt>
      <trkpt lat="48.79679" lon="2.1114">
        <ele>123</ele>
        <time>2014-02-23T10:44:57+01:00</time>
      </trkpt>
      <trkpt lat="48.79675" lon="2.11156">
        <ele>124</ele>
        <time>2014-02-23T10:45:01+01:00</time>
      </trkpt>
      <trkpt lat="48.79672" lon="2.11171">
        <ele>125</ele>
        <time>2014-02-23T10:45:19+01:00</time>
      </trkpt>
      <trkpt lat="48.79655" lon="2.11231">
        <ele>125</ele>
        <time>2014-02-23T10:45:25+01:00</time>
      </trkpt>
      <trkpt lat="48.79648" lon="2.11233">
        <ele>123</ele>
        <time>2014-02-23T10:45:29+01:00</time>
      </trkpt>
      <trkpt lat="48.7964" lon="2.11232">
        <ele>123</ele>
        <time>2014-02-23T10:45:33+01:00</time>
      </trkpt>
      <trkpt lat="48.79631" lon="2.11229">
        <ele>124</ele>
        <time>2014-02-23T10:45:37+01:00</time>
      </trkpt>
      <trkpt lat="48.79623" lon="2.11225">
        <ele>124</ele>
        <time>2014-02-23T10:45:41+01:00</time>
      </trkpt>
      <trkpt lat="48.79614" lon="2.1122">
        <ele>125</ele>
        <time>2014-02-23T10:45:45+01:00</time>
      </trkpt>
      <trkpt lat="48.79605" lon="2.11214">
        <ele>125</ele>
        <time>2014-02-23T10:45:49+01:00</time>
      </trkpt>
      <trkpt lat="48.79594" lon="2.11206">
        <ele>125</ele>
        <time>2014-02-23T10:45:53+01:00</time>
      </trkpt>
      <trkpt lat="48.79584" lon="2.11199">
        <ele>125</ele>
        <time>2014-02-23T10:45:57+01:00</time>
      </trkpt>
      <trkpt lat="48.79576" lon="2.11192">
        <ele>125</ele>
        <time>2014-02-23T10:46:01+01:00</time>
      </trkpt>
      <trkpt lat="48.79567" lon="2.11189">
        <ele>125</ele>
        <time>2014-02-23T10:46:27+01:00</time>
      </trkpt>
      <trkpt lat="48.79513" lon="2.1116">
        <ele>122</ele>
        <time>2014-02-23T10:46:33+01:00</time>
      </trkpt>
      <trkpt lat="48.79505" lon="2.11157">
        <ele>123</ele>
        <time>2014-02-23T10:46:37+01:00</time>
      </trkpt>
      <trkpt lat="48.79498" lon="2.11158">
        <ele>124</ele>
        <time>2014-02-23T10:46:41+01:00</time>
      </trkpt>
      <trkpt lat="48.79491" lon="2.11164">
        <ele>126</ele>
        <time>2014-02-23T10:46:45+01:00</time>
      </trkpt>
      <trkpt lat="48.79486" lon="2.11174">
        <ele>127</ele>
        <time>2014-02-23T10:46:49+01:00</time>
      </trkpt>
      <trkpt lat="48.79481" lon="2.11181">
        <ele>125</ele>
        <time>2014-02-23T10:46:53+01:00</time>
      </trkpt>
      <trkpt lat="48.79476" lon="2.1119">
        <ele>126</ele>
        <time>2014-02-23T10:46:57+01:00</time>
      </trkpt>
      <trkpt lat="48.79471" lon="2.11199">
        <ele>127</ele>
        <time>2014-02-23T10:47:01+01:00</time>
      </trkpt>
      <trkpt lat="48.79466" lon="2.11209">
        <ele>129</ele>
        <time>2014-02-23T10:47:26+01:00</time>
      </trkpt>
      <trkpt lat="48.79461" lon="2.11219">
        <ele>128</ele>
        <time>2014-02-23T10:47:27+01:00</time>
      </trkpt>
      <trkpt lat="48.79432" lon="2.11282">
        <ele>132</ele>
        <time>2014-02-23T10:47:33+01:00</time>
      </trkpt>
      <trkpt lat="48.79427" lon="2.11293">
        <ele>131</ele>
        <time>2014-02-23T10:47:37+01:00</time>
      </trkpt>
      <trkpt lat="48.79421" lon="2.11304">
        <ele>132</ele>
        <time>2014-02-23T10:47:41+01:00</time>
      </trkpt>
      <trkpt lat="48.79417" lon="2.11318">
        <ele>134</ele>
        <time>2014-02-23T10:47:45+01:00</time>
      </trkpt>
      <trkpt lat="48.79413" lon="2.11331">
        <ele>137</ele>
        <time>2014-02-23T10:47:49+01:00</time>
      </trkpt>
      <trkpt lat="48.79408" lon="2.11344">
        <ele>138</ele>
        <time>2014-02-23T10:47:53+01:00</time>
      </trkpt>
      <trkpt lat="48.79406" lon="2.11357">
        <ele>136</ele>
        <time>2014-02-23T10:47:57+01:00</time>
      </trkpt>
      <trkpt lat="48.79403" lon="2.11373">
        <ele>136</ele>
        <time>2014-02-23T10:48:01+01:00</time>
      </trkpt>
      <trkpt lat="48.79402" lon="2.11388">
        <ele>135</ele>
        <time>2014-02-23T10:48:05+01:00</time>
      </trkpt>
      <trkpt lat="48.794" lon="2.11402">
        <ele>137</ele>
        <time>2014-02-23T10:48:23+01:00</time>
      </trkpt>
      <trkpt lat="48.79394" lon="2.11469">
        <ele>139</ele>
        <time>2014-02-23T10:48:29+01:00</time>
      </trkpt>
      <trkpt lat="48.79397" lon="2.11482">
        <ele>143</ele>
        <time>2014-02-23T10:48:33+01:00</time>
      </trkpt>
      <trkpt lat="48.79396" lon="2.11497">
        <ele>143</ele>
        <time>2014-02-23T10:48:37+01:00</time>
      </trkpt>
      <trkpt lat="48.79396" lon="2.11511">
        <ele>143</ele>
        <time>2014-02-23T10:48:41+01:00</time>
      </trkpt>
      <trkpt lat="48.79398" lon="2.1152">
        <ele>141</ele>
        <time>2014-02-23T10:48:44+01:00</time>
      </trkpt>
      <trkpt lat="48.79402" lon="2.11531">
        <ele>141</ele>
        <time>2014-02-23T10:48:48+01:00</time>
      </trkpt>
      <trkpt lat="48.79408" lon="2.11542">
        <ele>140</ele>
        <time>2014-02-23T10:48:52+01:00</time>
      </trkpt>
      <trkpt lat="48.79415" lon="2.11553">
        <ele>139</ele>
        <time>2014-02-23T10:48:56+01:00</time>
      </trkpt>
      <trkpt lat="48.79422" lon="2.11558">
        <ele>138</ele>
        <time>2014-02-23T10:49:00+01:00</time>
      </trkpt>
      <trkpt lat="48.7943" lon="2.11563">
        <ele>138</ele>
        <time>2014-02-23T10:49:04+01:00</time>
      </trkpt>
      <trkpt lat="48.79438" lon="2.11567">
        <ele>136</ele>
        <time>2014-02-23T10:49:08+01:00</time>
      </trkpt>
      <trkpt lat="48.79445" lon="2.11573">
        <ele>131</ele>
        <time>2014-02-23T10:49:27+01:00</time>
      </trkpt>
      <trkpt lat="48.79483" lon="2.11606">
        <ele>125</ele>
        <time>2014-02-23T10:49:32+01:00</time>
      </trkpt>
      <trkpt lat="48.79491" lon="2.11611">
        <ele>122</ele>
        <time>2014-02-23T10:49:36+01:00</time>
      </trkpt>
      <trkpt lat="48.79498" lon="2.11618">
        <ele>124</ele>
        <time>2014-02-23T10:49:40+01:00</time>
      </trkpt>
      <trkpt lat="48.79507" lon="2.11623">
        <ele>122</ele>
        <time>2014-02-23T10:49:44+01:00</time>
      </trkpt>
      <trkpt lat="48.79517" lon="2.11629">
        <ele>123</ele>
        <time>2014-02-23T10:49:48+01:00</time>
      </trkpt>
      <trkpt lat="48.79525" lon="2.11634">
        <ele>122</ele>
        <time>2014-02-23T10:49:52+01:00</time>
      </trkpt>
      <trkpt lat="48.79533" lon="2.1164">
        <ele>121</ele>
        <time>2014-02-23T10:49:56+01:00</time>
      </trkpt>
      <trkpt lat="48.79542" lon="2.11645">
        <ele>120</ele>
        <time>2014-02-23T10:50:00+01:00</time>
      </trkpt>
      <trkpt lat="48.7955" lon="2.11649">
        <ele>120</ele>
        <time>2014-02-23T10:50:04+01:00</time>
      </trkpt>
      <trkpt lat="48.79558" lon="2.11653">
        <ele>119</ele>
        <time>2014-02-23T10:50:08+01:00</time>
      </trkpt>
      <trkpt lat="48.79567" lon="2.11659">
        <ele>120</ele>
        <time>2014-02-23T10:50:25+01:00</time>
      </trkpt>
      <trkpt lat="48.79577" lon="2.11667">
        <ele>120</ele>
        <time>2014-02-23T10:50:25+01:00</time>
      </trkpt>
      <trkpt lat="48.7961" lon="2.11687">
        <ele>116</ele>
        <time>2014-02-23T10:50:32+01:00</time>
      </trkpt>
      <trkpt lat="48.79619" lon="2.11694">
        <ele>115</ele>
        <time>2014-02-23T10:50:37+01:00</time>
      </trkpt>
      <trkpt lat="48.79627" lon="2.11699">
        <ele>117</ele>
        <time>2014-02-23T10:50:40+01:00</time>
      </trkpt>
      <trkpt lat="48.79635" lon="2.11704">
        <ele>116</ele>
        <time>2014-02-23T10:50:44+01:00</time>
      </trkpt>
      <trkpt lat="48.79644" lon="2.11711">
        <ele>117</ele>
        <time>2014-02-23T10:50:48+01:00</time>
      </trkpt>
      <trkpt lat="48.79652" lon="2.11716">
        <ele>115</ele>
        <time>2014-02-23T10:50:52+01:00</time>
      </trkpt>
      <trkpt lat="48.7966" lon="2.1172">
        <ele>115</ele>
        <time>2014-02-23T10:50:56+01:00</time>
      </trkpt>
      <trkpt lat="48.79667" lon="2.11724">
        <ele>114</ele>
        <time>2014-02-23T10:51:00+01:00</time>
      </trkpt>
      <trkpt lat="48.79676" lon="2.11732">
        <ele>115</ele>
        <time>2014-02-23T10:51:04+01:00</time>
      </trkpt>
      <trkpt lat="48.79689" lon="2.11743">
        <ele>116</ele>
        <time>2014-02-23T10:51:08+01:00</time>
      </trkpt>
      <trkpt lat="48.79699" lon="2.1175">
        <ele>115</ele>
        <time>2014-02-23T10:51:12+01:00</time>
      </trkpt>
      <trkpt lat="48.7971" lon="2.11754">
        <ele>118</ele>
        <time>2014-02-23T10:51:30+01:00</time>
      </trkpt>
      <trkpt lat="48.7975" lon="2.11768">
        <ele>119</ele>
        <time>2014-02-23T10:51:36+01:00</time>
      </trkpt>
      <trkpt lat="48.79758" lon="2.1177">
        <ele>118</ele>
        <time>2014-02-23T10:51:40+01:00</time>
      </trkpt>
      <trkpt lat="48.79766" lon="2.11774">
        <ele>120</ele>
        <time>2014-02-23T10:51:44+01:00</time>
      </trkpt>
      <trkpt lat="48.79776" lon="2.11781">
        <ele>120</ele>
        <time>2014-02-23T10:51:48+01:00</time>
      </trkpt>
      <trkpt lat="48.79786" lon="2.11789">
        <ele>120</ele>
        <time>2014-02-23T10:51:52+01:00</time>
      </trkpt>
      <trkpt lat="48.79796" lon="2.11793">
        <ele>120</ele>
        <time>2014-02-23T10:51:56+01:00</time>
      </trkpt>
      <trkpt lat="48.79806" lon="2.11796">
        <ele>120</ele>
        <time>2014-02-23T10:52:00+01:00</time>
      </trkpt>
      <trkpt lat="48.79813" lon="2.11808">
        <ele>121</ele>
        <time>2014-02-23T10:52:04+01:00</time>
      </trkpt>
      <trkpt lat="48.79822" lon="2.11815">
        <ele>119</ele>
        <time>2014-02-23T10:52:08+01:00</time>
      </trkpt>
      <trkpt lat="48.7983" lon="2.1182">
        <ele>119</ele>
        <time>2014-02-23T10:52:12+01:00</time>
      </trkpt>
      <trkpt lat="48.79838" lon="2.11826">
        <ele>119</ele>
        <time>2014-02-23T10:52:30+01:00</time>
      </trkpt>
      <trkpt lat="48.79846" lon="2.11833">
        <ele>119</ele>
        <time>2014-02-23T10:52:31+01:00</time>
      </trkpt>
      <trkpt lat="48.79875" lon="2.11851">
        <ele>121</ele>
        <time>2014-02-23T10:52:36+01:00</time>
      </trkpt>
      <trkpt lat="48.79886" lon="2.11857">
        <ele>122</ele>
        <time>2014-02-23T10:52:40+01:00</time>
      </trkpt>
      <trkpt lat="48.79897" lon="2.11865">
        <ele>120</ele>
        <time>2014-02-23T10:52:44+01:00</time>
      </trkpt>
      <trkpt lat="48.79905" lon="2.11871">
        <ele>120</ele>
        <time>2014-02-23T10:52:48+01:00</time>
      </trkpt>
      <trkpt lat="48.79914" lon="2.11876">
        <ele>120</ele>
        <time>2014-02-23T10:52:52+01:00</time>
      </trkpt>
      <trkpt lat="48.79923" lon="2.11882">
        <ele>121</ele>
        <time>2014-02-23T10:52:58+01:00</time>
      </trkpt>
      <trkpt lat="48.79931" lon="2.11886">
        <ele>122</ele>
        <time>2014-02-23T10:53:00+01:00</time>
      </trkpt>
      <trkpt lat="48.7994" lon="2.11893">
        <ele>122</ele>
        <time>2014-02-23T10:53:04+01:00</time>
      </trkpt>
      <trkpt lat="48.7995" lon="2.119">
        <ele>124</ele>
        <time>2014-02-23T10:53:08+01:00</time>
      </trkpt>
      <trkpt lat="48.7996" lon="2.11905">
        <ele>123</ele>
        <time>2014-02-23T10:53:12+01:00</time>
      </trkpt>
      <trkpt lat="48.7997" lon="2.1191">
        <ele>125</ele>
        <time>2014-02-23T10:53:16+01:00</time>
      </trkpt>
      <trkpt lat="48.79979" lon="2.11916">
        <ele>125</ele>
        <time>2014-02-23T10:53:20+01:00</time>
      </trkpt>
      <trkpt lat="48.79986" lon="2.11922">
        <ele>125</ele>
        <time>2014-02-23T10:53:24+01:00</time>
      </trkpt>
    </trkseg>
  </trk>
</gpx>